[[{"header":{"parameterUnit":"m.s-1","parameterCategory":1,"la1":31.0,"la2":29.5877,"lo1":-88.7671,"lo2":-86.6584,"dy":0.0162,"dx":0.0185,"nx":115,"ny":88,"refTime":"2024-03-29T06:00:00:Z","depth":0,"parameterNumber":2,"parameterNumberName":"U-component_of_WINDS"},"data":[0.0,0.0,0.0,0.0,0.0,0.0,0.0,0.0,0.0,0.0,0.0,0.0,0.0,0.0,0.0,0.0,0.0,0.0,0.0,0.0,0.0,0.0,0.0,0.0,0.0,0.0,0.0,0.0,0.0,0.0,0.0,0.0,0.0,0.0,0.0,0.0,0.0,0.0,0.0,0.0,0.0,0.0,0.0,0.0,0.0,0.0,0.0,0.0,0.0,0.0,0.0,0.0,0.0,0.0,0.0,0.0,0.0,0.0,0.0,0.0,0.0,0.0,0.0,0.0,0.0,0.0,0.0,0.0,0.0,0.0,0.0,0.0,0.0,0.0,0.0,0.0,0.0,0.0,0.0,0.0,0.0,0.0,0.0,0.0,0.0,0.0,0.0,0.0,0.0,0.0,0.0,0.0,0.0,0.0,0.0,0.0,0.0,0.0,0.0,0.0,0.0,0.0,0.0,0.0,0.0,0.0,0.0,0.0,0.0,0.0,0.0,0.0,0.0,0.0,0.0,0.0,0.0,0.0,0.0,0.0,0.0,0.0,0.0,0.0,0.0,0.0,0.0,0.0,0.0,0.0,0.0,0.0,0.0,0.0,0.0,0.0,0.0,0.0,0.0,0.0,0.0,0.0,0.0,0.0,0.0,0.0,0.0,0.0,0.0,0.0,0.0,0.0,0.0,0.0,0.0,0.0,0.0,0.0,0.0,0.0,0.0,0.0,0.0,0.0,0.0,0.0,0.0,0.0,0.0,0.0,0.0,0.0,0.0,0.0,0.0,0.0,0.0,0.0,0.0,0.0,0.0,0.0,0.0,0.0,0.0,0.0,0.0,0.0,0.0,0.0,0.0,0.0,0.0,0.0,0.0,0.0,0.0,0.0,0.0,0.0,0.0,0.0,0.0,0.0,0.0,0.0,0.0,0.0,0.0,0.0,0.0,0.0,0.0,0.0,0.0,0.0,0.0,0.0,0.0,0.0,0.0,0.0,0.0,0.0,0.0,0.0,0.0,0.0,0.0,0.0,0.0,0.0,0.0,0.0,0.0,0.0,0.0,0.0,0.0,0.0,0.0,0.0,0.0,0.0,0.0,0.0,0.0,0.0,0.0,0.0,0.0,0.0,0.0,0.0,0.0,0.0,0.0,0.0,0.0,0.0,0.0,0.0,0.0,0.0,0.0,0.0,0.0,0.0,0.0,0.0,0.0,0.0,0.0,0.0,0.0,0.0,0.0,0.0,0.0,0.0,0.0,0.0,0.0,0.0,0.0,0.0,0.0,0.0,0.0,0.0,0.0,0.0,0.0,0.0,0.0,0.0,0.0,0.0,0.0,0.0,0.0,0.0,0.0,0.0,0.0,0.0,0.0,0.0,0.0,0.0,0.0,0.0,0.0,0.0,0.0,0.0,0.0,0.0,0.0,0.0,0.0,0.0,0.0,0.0,0.0,0.0,0.0,0.0,0.0,0.0,0.0,0.0,0.0,0.0,0.0,0.0,0.0,0.0,0.0,0.0,0.0,0.0,0.0,0.0,0.0,0.0,0.0,0.0,0.0,0.0,0.0,0.0,0.0,0.0,0.0,0.0,0.0,0.0,0.0,0.0,0.0,0.0,0.0,0.0,0.0,0.0,0.0,0.0,0.0,0.0,0.0,0.0,0.0,0.0,0.0,0.0,0.0,0.0,0.0,0.0,0.0,0.0,0.0,0.0,0.0,0.0,0.0,0.0,0.0,0.0,0.0,0.0,0.0,0.0,0.0,0.0,0.0,0.0,0.0,0.0,0.0,0.0,0.0,0.0,0.0,0.0,0.0,0.0,0.0,0.0,0.0,0.0,0.0,0.0,0.0,0.0,0.0,0.0,0.0,0.0,0.0,0.0,0.0,0.0,0.0,0.0,0.0,0.0,0.0,0.0,0.0,0.0,0.0,0.0,0.0,0.0,0.0,0.0,0.0,0.0,0.0,0.0,0.0,0.0,0.0,0.0,0.0,0.0,0.0,0.0,0.0,0.0,0.0,0.0,0.0,0.0,0.0,0.0,0.0,0.0,0.0,0.0,0.0,0.0,0.0,0.0,0.0,0.0,0.0,0.0,0.0,0.0,0.0,0.0,0.0,0.0,0.0,0.0,0.0,0.0,0.0,0.0,0.0,0.0,0.0,0.0,0.0,0.0,0.0,0.0,0.0,0.0,0.0,0.0,0.0,0.0,0.0,0.0,0.0,0.0,0.0,0.0,0.0,0.0,0.0,0.0,0.0,0.0,0.0,0.0,0.0,0.0,0.0,0.0,0.0,0.0,0.0,0.0,0.0,0.0,0.0,0.0,0.0,0.0,0.0,0.0,0.0,0.0,0.0,0.0,0.0,0.0,0.0,0.0,0.0,0.0,0.0,0.0,0.0,0.0,0.0,0.0,0.0,0.0,0.0,0.0,0.0,0.0,0.0,0.0,0.0,0.0,0.0,0.0,0.0,0.0,0.0,0.0,0.0,0.0,0.0,0.0,0.0,0.0,0.0,0.0,0.0,0.0,0.0,0.0,0.0,0.0,0.0,0.0,0.0,0.0,0.0,0.0,0.0,0.0,0.0,0.0,0.0,0.0,0.0,0.0,0.0,0.0,0.0,0.0,0.0,0.0,0.0,0.0,0.0,0.0,0.0,0.0,0.0,0.0,0.0,0.0,0.0,0.0,0.0,0.0,0.0,0.0,0.0,0.0,0.0,0.0,0.0,0.0,0.0,0.0,0.0,0.0,0.0,0.0,0.0,0.0,0.0,0.0,0.0,0.0,0.0,0.0,0.0,0.0,0.0,0.0,0.0,0.0,0.0,0.0,0.0,0.0,0.0,0.0,0.0,0.0,0.0,0.0,0.0,0.0,0.0,0.0,0.0,0.0,0.0,0.0,0.0,0.0,0.0,0.0,0.0,0.0,0.0,0.0,0.0,0.0,0.0,0.0,0.0,0.0,0.0,0.0,0.0,0.0,0.0,0.0,0.0,0.0,0.0,0.0,0.0,0.0,0.0,0.0,0.0,0.0,0.0,0.0,0.0,0.0,0.0,0.0,0.0,0.0,0.0,0.0,0.0,0.0,0.0,0.0,0.0,0.0,0.0,0.0,0.0,0.0,0.0,0.0,0.0,0.0,0.0,0.0,0.0,0.0,0.0,0.0,0.0,0.0,0.0,0.0,0.0,0.0,0.0,0.0,0.0,0.0,0.0,0.0,0.0,0.0,0.0,0.0,0.0,0.0,0.0,0.0,0.0,0.0,0.0,0.0,0.0,0.0,0.0,0.0,0.0,0.0,0.0,0.0,0.0,0.0,0.0,0.0,0.0,0.0,0.0,0.0,0.0,0.0,0.0,0.0,0.0,0.0,0.0,0.0,0.0,0.0,0.0,0.0,0.0,0.0,0.0,0.0,0.0,0.0,0.0,0.0,0.0,0.0,0.0,0.0,0.0,0.0,0.0,0.0,0.0,0.0,0.0,0.0,0.0,0.0,0.0,0.0,0.0,0.0,0.0,0.0,0.0,0.0,0.0,0.0,0.0,0.0,0.0,0.0,0.0,0.0,0.0,0.0,0.0,0.0,0.0,0.0,0.0,0.0,0.0,0.0,0.0,0.0,0.0,0.0,0.0,0.0,0.0,0.0,0.0,0.0,0.0,0.0,0.0,0.0,0.0,0.0,0.0,0.0,0.0,0.0,0.0,0.0,0.0,0.0,0.0,0.0,0.0,0.0,0.0,0.0,0.0,0.0,0.0,0.0,0.0,0.0,0.0,0.0,0.0,0.0,0.0,0.0,0.0,0.0,0.0,0.0,0.0,0.0,0.0,0.0,0.0,0.0,0.0,0.0,0.0,0.0,0.0,0.0,0.0,0.0,0.0,0.0,0.0,0.0,0.0,0.0,0.0,0.0,0.0,0.0,0.0,0.0,0.0,0.0,0.0,0.0,0.0,0.0,0.0,0.0,0.0,0.0,0.0,0.0,0.0,0.0,0.0,0.0,0.0,0.0,0.0,0.0,0.0,0.0,0.0,0.0,0.0,0.0,0.0,0.0,0.0,0.0,0.0,0.0,0.0,0.0,0.0,0.0,0.0,0.0,0.0,0.0,0.0,0.0,0.0,0.0,0.0,0.0,0.0,0.0,0.0,0.0,0.0,0.0,0.0,0.0,0.0,0.0,0.0,0.0,0.0,0.0,0.0,0.0,0.0,0.0,0.0,0.0,0.0,0.0,0.0,0.0,0.0,0.0,0.0,0.0,0.0,0.0,0.0,0.0,0.0,0.0,0.0,0.0,-6.1386,0.0,0.0,0.0,0.0,0.0,0.0,0.0,0.0,0.0,0.0,0.0,0.0,0.0,0.0,0.0,0.0,0.0,0.0,0.0,0.0,0.0,0.0,0.0,0.0,0.0,0.0,0.0,0.0,0.0,0.0,0.0,0.0,0.0,0.0,0.0,0.0,0.0,0.0,0.0,0.0,0.0,0.0,0.0,0.0,0.0,0.0,0.0,0.0,0.0,0.0,0.0,0.0,0.0,0.0,0.0,0.0,0.0,0.0,0.0,0.0,0.0,0.0,0.0,0.0,0.0,0.0,0.0,0.0,0.0,0.0,0.0,0.0,0.0,0.0,0.0,0.0,0.0,0.0,0.0,0.0,0.0,0.0,0.0,0.0,0.0,0.0,0.0,0.0,0.0,0.0,0.0,0.0,0.0,0.0,0.0,0.0,0.0,0.0,0.0,0.0,0.0,0.0,0.0,0.0,0.0,0.0,0.0,0.0,0.0,0.0,-6.1523,-6.1487,-6.1458,-6.1428,-6.1408,0.0,0.0,0.0,0.0,0.0,0.0,0.0,0.0,0.0,0.0,0.0,0.0,0.0,0.0,0.0,0.0,0.0,0.0,0.0,0.0,0.0,0.0,0.0,0.0,0.0,0.0,0.0,0.0,0.0,0.0,0.0,0.0,0.0,0.0,0.0,0.0,0.0,0.0,0.0,0.0,0.0,0.0,0.0,0.0,0.0,0.0,0.0,0.0,0.0,0.0,0.0,0.0,0.0,0.0,0.0,0.0,0.0,0.0,0.0,0.0,0.0,0.0,0.0,0.0,0.0,0.0,0.0,0.0,0.0,0.0,0.0,0.0,0.0,0.0,0.0,0.0,0.0,0.0,0.0,0.0,0.0,0.0,0.0,0.0,0.0,0.0,0.0,0.0,0.0,0.0,0.0,0.0,0.0,0.0,0.0,0.0,0.0,0.0,0.0,0.0,0.0,0.0,0.0,0.0,0.0,0.0,0.0,0.0,0.0,0.0,0.0,0.0,-6.1512,-6.1458,-6.1396,0.0,0.0,0.0,0.0,0.0,0.0,0.0,0.0,0.0,0.0,0.0,0.0,0.0,0.0,0.0,0.0,0.0,0.0,0.0,0.0,0.0,0.0,0.0,0.0,0.0,0.0,0.0,0.0,0.0,0.0,0.0,0.0,0.0,0.0,0.0,0.0,0.0,0.0,0.0,0.0,0.0,0.0,0.0,0.0,0.0,0.0,0.0,0.0,0.0,0.0,0.0,0.0,0.0,0.0,0.0,0.0,0.0,0.0,0.0,0.0,0.0,0.0,0.0,0.0,0.0,0.0,0.0,0.0,0.0,0.0,0.0,0.0,0.0,0.0,0.0,0.0,0.0,0.0,0.0,0.0,0.0,0.0,0.0,0.0,0.0,0.0,0.0,0.0,0.0,0.0,0.0,0.0,0.0,0.0,0.0,0.0,0.0,0.0,0.0,0.0,0.0,0.0,0.0,0.0,0.0,0.0,0.0,0.0,0.0,0.0,-6.158,-6.1595,-6.1534,0.0,-6.1402,0.0,0.0,0.0,0.0,0.0,0.0,0.0,0.0,0.0,0.0,0.0,0.0,0.0,0.0,0.0,0.0,0.0,0.0,0.0,0.0,0.0,0.0,0.0,0.0,0.0,0.0,0.0,0.0,0.0,0.0,0.0,0.0,0.0,0.0,0.0,0.0,0.0,0.0,0.0,0.0,0.0,0.0,0.0,0.0,0.0,0.0,0.0,0.0,0.0,0.0,0.0,0.0,0.0,0.0,0.0,0.0,0.0,0.0,0.0,0.0,0.0,0.0,0.0,0.0,0.0,0.0,0.0,0.0,0.0,0.0,0.0,0.0,0.0,0.0,0.0,0.0,0.0,0.0,0.0,0.0,0.0,0.0,0.0,0.0,0.0,0.0,0.0,0.0,0.0,0.0,0.0,0.0,0.0,0.0,0.0,0.0,0.0,0.0,0.0,0.0,0.0,0.0,0.0,0.0,0.0,0.0,0.0,0.0,0.0,0.0,-6.1646,-6.1584,-6.1539,-6.1493,0.0,0.0,0.0,0.0,0.0,0.0,0.0,0.0,0.0,0.0,0.0,0.0,0.0,0.0,0.0,0.0,0.0,0.0,0.0,0.0,0.0,0.0,0.0,0.0,0.0,0.0,0.0,0.0,0.0,0.0,0.0,0.0,0.0,0.0,0.0,0.0,0.0,0.0,0.0,0.0,0.0,0.0,0.0,0.0,0.0,0.0,0.0,0.0,0.0,0.0,0.0,0.0,0.0,0.0,0.0,0.0,0.0,0.0,0.0,0.0,0.0,0.0,0.0,0.0,0.0,0.0,0.0,0.0,0.0,0.0,0.0,0.0,0.0,0.0,0.0,0.0,0.0,0.0,0.0,0.0,0.0,0.0,0.0,0.0,0.0,0.0,0.0,0.0,0.0,0.0,0.0,0.0,0.0,0.0,0.0,0.0,0.0,0.0,0.0,0.0,0.0,0.0,0.0,0.0,0.0,0.0,0.0,0.0,0.0,0.0,-6.1705,-6.1683,-6.1603,-6.1549,-6.1514,-6.1495,0.0,0.0,0.0,0.0,0.0,0.0,0.0,0.0,0.0,0.0,0.0,0.0,0.0,0.0,0.0,0.0,0.0,0.0,0.0,0.0,0.0,0.0,0.0,0.0,0.0,0.0,0.0,0.0,0.0,0.0,0.0,0.0,0.0,0.0,0.0,0.0,0.0,0.0,0.0,0.0,0.0,0.0,0.0,0.0,0.0,0.0,0.0,0.0,0.0,0.0,0.0,0.0,0.0,0.0,0.0,0.0,0.0,0.0,0.0,0.0,0.0,0.0,0.0,0.0,0.0,0.0,0.0,0.0,0.0,0.0,0.0,0.0,0.0,0.0,0.0,0.0,0.0,0.0,0.0,0.0,0.0,0.0,0.0,0.0,0.0,0.0,0.0,0.0,0.0,0.0,0.0,0.0,0.0,0.0,0.0,0.0,0.0,0.0,0.0,0.0,0.0,0.0,0.0,0.0,0.0,0.0,0.0,0.0,-6.1715,-6.1713,-6.1683,-6.1603,-6.158,-6.1578,0.0,0.0,0.0,0.0,0.0,0.0,0.0,0.0,0.0,0.0,0.0,0.0,0.0,0.0,0.0,0.0,0.0,0.0,0.0,0.0,0.0,0.0,0.0,0.0,0.0,0.0,0.0,0.0,0.0,0.0,0.0,0.0,0.0,0.0,0.0,0.0,0.0,0.0,0.0,0.0,0.0,0.0,0.0,0.0,0.0,0.0,0.0,0.0,0.0,0.0,0.0,0.0,0.0,0.0,0.0,0.0,0.0,0.0,0.0,0.0,0.0,0.0,0.0,0.0,0.0,0.0,0.0,0.0,0.0,0.0,0.0,0.0,0.0,0.0,0.0,0.0,0.0,0.0,0.0,0.0,0.0,0.0,0.0,0.0,0.0,0.0,0.0,0.0,0.0,0.0,0.0,0.0,0.0,0.0,0.0,0.0,0.0,0.0,0.0,0.0,0.0,0.0,0.0,0.0,0.0,0.0,0.0,0.0,0.0,-6.1704,-6.1705,-6.1682,-6.166,-6.1615,-6.1586,0.0,0.0,0.0,0.0,0.0,0.0,0.0,0.0,0.0,0.0,0.0,0.0,0.0,0.0,0.0,0.0,0.0,0.0,0.0,0.0,0.0,0.0,0.0,0.0,0.0,0.0,0.0,0.0,0.0,0.0,0.0,0.0,0.0,0.0,0.0,0.0,0.0,0.0,0.0,0.0,0.0,0.0,0.0,0.0,0.0,0.0,0.0,0.0,0.0,0.0,0.0,0.0,0.0,0.0,0.0,0.0,0.0,0.0,0.0,0.0,0.0,0.0,0.0,0.0,0.0,0.0,0.0,0.0,0.0,0.0,0.0,0.0,0.0,0.0,0.0,0.0,0.0,0.0,0.0,0.0,0.0,0.0,0.0,0.0,0.0,0.0,0.0,0.0,0.0,0.0,0.0,0.0,0.0,0.0,0.0,0.0,0.0,0.0,0.0,0.0,0.0,0.0,0.0,0.0,0.0,0.0,0.0,0.0,0.0,-6.1708,0.0,-6.1701,-6.1705,-6.1641,-6.1608,0.0,0.0,0.0,0.0,0.0,0.0,0.0,0.0,0.0,0.0,0.0,0.0,0.0,0.0,0.0,0.0,0.0,0.0,0.0,0.0,0.0,0.0,0.0,0.0,0.0,0.0,0.0,0.0,0.0,0.0,0.0,0.0,0.0,0.0,0.0,0.0,0.0,0.0,0.0,0.0,0.0,0.0,0.0,0.0,0.0,0.0,0.0,0.0,0.0,0.0,0.0,0.0,0.0,0.0,0.0,0.0,0.0,0.0,0.0,0.0,0.0,0.0,0.0,0.0,0.0,0.0,0.0,0.0,0.0,0.0,0.0,0.0,0.0,0.0,0.0,0.0,0.0,0.0,0.0,0.0,0.0,0.0,0.0,0.0,0.0,0.0,0.0,0.0,0.0,0.0,0.0,0.0,0.0,0.0,0.0,0.0,0.0,0.0,0.0,0.0,0.0,0.0,0.0,0.0,0.0,0.0,0.0,0.0,-6.1715,-6.1709,-6.1702,-6.1713,-6.1698,-6.1705,-6.1664,0.0,0.0,0.0,0.0,0.0,0.0,0.0,0.0,0.0,0.0,0.0,0.0,0.0,0.0,0.0,0.0,0.0,0.0,0.0,0.0,0.0,0.0,0.0,0.0,0.0,0.0,0.0,0.0,0.0,0.0,0.0,0.0,0.0,0.0,0.0,0.0,0.0,0.0,0.0,0.0,0.0,0.0,0.0,0.0,0.0,0.0,0.0,0.0,0.0,0.0,0.0,0.0,0.0,0.0,0.0,0.0,0.0,0.0,0.0,0.0,0.0,0.0,0.0,0.0,0.0,0.0,0.0,0.0,0.0,0.0,0.0,0.0,0.0,0.0,0.0,0.0,0.0,0.0,0.0,0.0,0.0,0.0,0.0,0.0,0.0,0.0,0.0,0.0,0.0,0.0,0.0,0.0,0.0,0.0,0.0,0.0,0.0,0.0,0.0,0.0,0.0,0.0,0.0,0.0,0.0,0.0,0.0,0.0,0.0,-6.1715,-6.1713,-6.1708,-6.1713,-6.1701,-6.1685,0.0,0.0,0.0,0.0,0.0,0.0,0.0,0.0,0.0,0.0,0.0,0.0,0.0,0.0,0.0,0.0,0.0,0.0,0.0,0.0,0.0,0.0,0.0,0.0,0.0,0.0,0.0,0.0,0.0,0.0,0.0,0.0,0.0,0.0,0.0,0.0,0.0,0.0,0.0,0.0,0.0,0.0,0.0,0.0,0.0,0.0,0.0,0.0,0.0,0.0,0.0,0.0,0.0,0.0,0.0,0.0,0.0,0.0,0.0,0.0,0.0,0.0,0.0,0.0,0.0,0.0,0.0,0.0,0.0,0.0,0.0,0.0,0.0,0.0,0.0,0.0,0.0,0.0,0.0,0.0,0.0,0.0,0.0,0.0,0.0,0.0,0.0,0.0,0.0,0.0,0.0,0.0,0.0,0.0,0.0,0.0,0.0,0.0,0.0,0.0,0.0,0.0,0.0,0.0,0.0,0.0,0.0,0.0,0.0,-6.123,-6.1523,-6.154,-6.1238,-6.1229,-6.1061,-6.0751,0.0,0.0,0.0,0.0,0.0,0.0,0.0,0.0,0.0,0.0,0.0,0.0,0.0,0.0,0.0,0.0,0.0,0.0,0.0,0.0,0.0,0.0,0.0,0.0,0.0,0.0,0.0,0.0,0.0,0.0,0.0,0.0,0.0,0.0,0.0,0.0,0.0,0.0,0.0,0.0,0.0,0.0,0.0,0.0,0.0,0.0,0.0,0.0,0.0,0.0,0.0,0.0,0.0,0.0,0.0,0.0,0.0,0.0,0.0,0.0,0.0,0.0,0.0,0.0,0.0,0.0,0.0,0.0,0.0,0.0,0.0,0.0,0.0,0.0,0.0,0.0,0.0,0.0,0.0,0.0,0.0,0.0,0.0,0.0,0.0,0.0,0.0,0.0,0.0,0.0,0.0,0.0,0.0,0.0,0.0,0.0,0.0,0.0,0.0,0.0,0.0,0.0,0.0,0.0,0.0,0.0,0.0,0.0,-6.0323,-6.1131,-6.1133,-6.0369,-6.0326,-5.9945,0.0,0.0,0.0,0.0,0.0,0.0,0.0,0.0,0.0,0.0,0.0,0.0,0.0,0.0,0.0,0.0,0.0,0.0,0.0,0.0,0.0,0.0,0.0,0.0,0.0,0.0,0.0,0.0,0.0,0.0,0.0,0.0,0.0,0.0,0.0,0.0,0.0,0.0,0.0,0.0,0.0,0.0,0.0,0.0,0.0,0.0,0.0,0.0,0.0,0.0,0.0,0.0,0.0,0.0,0.0,0.0,0.0,0.0,0.0,0.0,0.0,0.0,0.0,0.0,0.0,0.0,0.0,0.0,0.0,0.0,0.0,0.0,0.0,0.0,0.0,0.0,0.0,0.0,0.0,0.0,0.0,0.0,0.0,0.0,0.0,0.0,0.0,0.0,0.0,0.0,0.0,0.0,0.0,0.0,0.0,0.0,0.0,0.0,0.0,0.0,0.0,0.0,0.0,0.0,0.0,0.0,0.0,0.0,0.0,-5.9457,-5.9656,-5.9664,-5.9453,-5.9433,-5.9332,0.0,0.0,0.0,0.0,0.0,0.0,0.0,0.0,0.0,0.0,0.0,0.0,0.0,0.0,0.0,0.0,0.0,0.0,0.0,0.0,0.0,0.0,0.0,0.0,0.0,0.0,0.0,0.0,0.0,0.0,0.0,0.0,0.0,0.0,0.0,0.0,0.0,0.0,0.0,0.0,0.0,0.0,0.0,0.0,0.0,0.0,0.0,0.0,0.0,0.0,0.0,0.0,0.0,0.0,0.0,0.0,0.0,0.0,0.0,0.0,0.0,0.0,0.0,0.0,0.0,0.0,0.0,0.0,0.0,0.0,0.0,0.0,0.0,0.0,0.0,0.0,0.0,0.0,0.0,0.0,0.0,0.0,0.0,0.0,0.0,0.0,0.0,0.0,0.0,0.0,0.0,0.0,0.0,0.0,0.0,0.0,0.0,0.0,0.0,0.0,0.0,0.0,0.0,0.0,0.0,0.0,0.0,0.0,-5.8546,-5.8536,-5.8189,-5.8006,-5.8001,-5.8397,-5.8418,0.0,0.0,0.0,0.0,0.0,0.0,0.0,0.0,0.0,0.0,0.0,0.0,0.0,0.0,0.0,0.0,0.0,0.0,0.0,0.0,0.0,0.0,0.0,0.0,0.0,0.0,0.0,0.0,0.0,0.0,0.0,0.0,0.0,0.0,0.0,0.0,0.0,0.0,0.0,0.0,0.0,0.0,0.0,0.0,0.0,0.0,0.0,0.0,0.0,0.0,0.0,0.0,0.0,0.0,0.0,0.0,0.0,0.0,0.0,0.0,0.0,0.0,0.0,0.0,0.0,0.0,0.0,0.0,0.0,0.0,0.0,0.0,0.0,0.0,0.0,0.0,0.0,0.0,0.0,0.0,0.0,0.0,0.0,0.0,0.0,0.0,0.0,0.0,0.0,0.0,0.0,0.0,0.0,0.0,0.0,0.0,0.0,0.0,0.0,0.0,0.0,0.0,0.0,0.0,0.0,0.0,0.0,0.0,-5.7675,-5.7658,-5.6907,-5.6492,-5.6523,-5.7313,-5.7401,0.0,0.0,0.0,0.0,0.0,0.0,0.0,0.0,0.0,0.0,0.0,0.0,0.0,0.0,0.0,0.0,0.0,0.0,0.0,0.0,0.0,0.0,0.0,0.0,0.0,0.0,0.0,0.0,0.0,0.0,0.0,0.0,0.0,0.0,0.0,0.0,0.0,0.0,0.0,0.0,0.0,0.0,0.0,0.0,0.0,0.0,0.0,0.0,0.0,0.0,0.0,0.0,0.0,0.0,0.0,0.0,0.0,0.0,0.0,0.0,0.0,0.0,0.0,0.0,0.0,0.0,0.0,0.0,0.0,0.0,0.0,0.0,0.0,0.0,0.0,0.0,0.0,0.0,0.0,0.0,0.0,0.0,0.0,0.0,0.0,0.0,0.0,0.0,0.0,0.0,0.0,0.0,0.0,0.0,0.0,0.0,0.0,0.0,0.0,0.0,0.0,0.0,0.0,0.0,0.0,0.0,0.0,0.0,-5.6797,-5.6777,-5.6586,-5.6491,-5.6494,-5.6729,-5.6786,0.0,0.0,0.0,0.0,0.0,0.0,0.0,0.0,0.0,0.0,0.0,0.0,0.0,0.0,0.0,0.0,0.0,0.0,0.0,0.0,0.0,0.0,0.0,0.0,0.0,0.0,0.0,0.0,0.0,0.0,0.0,0.0,0.0,0.0,0.0,0.0,0.0,0.0,0.0,0.0,0.0,0.0,0.0,0.0,0.0,0.0,0.0,0.0,-6.1592,0.0,0.0,0.0,0.0,0.0,0.0,0.0,0.0,0.0,0.0,0.0,0.0,0.0,0.0,0.0,0.0,0.0,0.0,0.0,0.0,0.0,0.0,0.0,0.0,0.0,0.0,0.0,0.0,0.0,0.0,0.0,0.0,0.0,0.0,0.0,0.0,0.0,0.0,0.0,0.0,0.0,0.0,0.0,0.0,0.0,0.0,0.0,0.0,0.0,0.0,0.0,0.0,0.0,0.0,0.0,0.0,0.0,0.0,0.0,-5.6468,-5.6448,-5.6449,-5.6457,-5.6461,-5.6523,-5.6547,0.0,0.0,0.0,0.0,0.0,0.0,0.0,0.0,0.0,0.0,0.0,0.0,0.0,0.0,0.0,0.0,0.0,0.0,0.0,0.0,0.0,0.0,0.0,0.0,0.0,0.0,0.0,0.0,0.0,0.0,0.0,0.0,0.0,0.0,0.0,0.0,0.0,0.0,0.0,0.0,0.0,0.0,0.0,0.0,0.0,0.0,0.0,0.0,0.0,0.0,0.0,0.0,0.0,0.0,0.0,0.0,0.0,0.0,0.0,0.0,0.0,0.0,0.0,0.0,0.0,0.0,0.0,0.0,0.0,0.0,0.0,0.0,0.0,0.0,0.0,0.0,0.0,0.0,0.0,0.0,0.0,0.0,0.0,0.0,0.0,0.0,0.0,0.0,0.0,0.0,0.0,0.0,0.0,0.0,0.0,0.0,0.0,0.0,0.0,0.0,0.0,0.0,0.0,0.0,0.0,0.0,0.0,-5.6406,-5.6406,-5.6391,-5.6398,-5.6396,-5.6396,-5.6457,-5.6488,-5.6497,0.0,0.0,0.0,0.0,0.0,0.0,0.0,0.0,0.0,0.0,0.0,0.0,0.0,0.0,0.0,0.0,0.0,0.0,0.0,0.0,0.0,0.0,0.0,0.0,0.0,0.0,0.0,0.0,0.0,0.0,0.0,0.0,0.0,0.0,0.0,0.0,0.0,0.0,-6.1566,-6.1701,0.0,0.0,0.0,0.0,0.0,0.0,0.0,0.0,-6.1621,0.0,0.0,0.0,0.0,0.0,0.0,0.0,0.0,0.0,0.0,0.0,0.0,0.0,0.0,0.0,0.0,0.0,0.0,0.0,0.0,0.0,0.0,0.0,0.0,0.0,0.0,0.0,0.0,0.0,0.0,0.0,0.0,0.0,0.0,0.0,0.0,0.0,0.0,0.0,0.0,0.0,0.0,0.0,0.0,0.0,0.0,0.0,0.0,0.0,0.0,0.0,0.0,0.0,0.0,0.0,0.0,-5.6406,-5.6406,-5.6406,-5.6391,-5.6397,-5.6402,-5.6402,-5.6411,-5.6422,-5.6434,0.0,0.0,0.0,0.0,0.0,0.0,0.0,0.0,0.0,0.0,0.0,0.0,0.0,0.0,0.0,0.0,0.0,0.0,0.0,0.0,0.0,0.0,0.0,0.0,0.0,0.0,0.0,0.0,0.0,0.0,0.0,0.0,0.0,0.0,0.0,0.0,0.0,0.0,0.0,-6.1708,-6.1709,0.0,0.0,0.0,0.0,0.0,0.0,0.0,0.0,-6.1681,0.0,0.0,0.0,0.0,0.0,0.0,0.0,0.0,0.0,0.0,0.0,0.0,0.0,0.0,0.0,0.0,0.0,0.0,0.0,0.0,0.0,0.0,0.0,0.0,0.0,0.0,0.0,0.0,0.0,0.0,0.0,0.0,0.0,0.0,0.0,0.0,0.0,0.0,0.0,0.0,0.0,0.0,0.0,0.0,0.0,0.0,0.0,0.0,0.0,0.0,0.0,0.0,0.0,0.0,0.0,-5.6291,-5.6311,-5.6311,-5.6291,-5.6304,-5.6303,-5.6341,-5.6347,-5.6373,0.0,0.0,0.0,0.0,0.0,0.0,0.0,0.0,0.0,0.0,0.0,0.0,0.0,0.0,0.0,0.0,0.0,0.0,0.0,0.0,0.0,0.0,0.0,0.0,0.0,0.0,0.0,0.0,0.0,0.0,0.0,0.0,0.0,0.0,0.0,0.0,0.0,0.0,0.0,0.0,-6.1699,-6.1699,-6.1699,0.0,0.0,0.0,0.0,0.0,0.0,-6.1717,-6.1716,0.0,0.0,0.0,0.0,0.0,0.0,0.0,0.0,0.0,0.0,0.0,0.0,0.0,0.0,0.0,0.0,0.0,0.0,0.0,0.0,0.0,0.0,0.0,0.0,0.0,0.0,0.0,0.0,0.0,0.0,0.0,0.0,0.0,0.0,0.0,0.0,0.0,0.0,0.0,0.0,0.0,0.0,0.0,0.0,0.0,0.0,0.0,0.0,0.0,0.0,0.0,0.0,0.0,0.0,0.0,-5.6184,-5.6184,-5.6184,-5.6184,-5.619,-5.6225,-5.6272,-5.6285,-5.6302,0.0,0.0,0.0,0.0,0.0,0.0,0.0,0.0,0.0,0.0,0.0,0.0,0.0,0.0,0.0,0.0,0.0,0.0,0.0,0.0,0.0,0.0,0.0,0.0,0.0,0.0,0.0,0.0,0.0,0.0,0.0,0.0,0.0,0.0,0.0,0.0,0.0,0.0,0.0,0.0,0.0,-6.1709,-6.1709,-6.1709,0.0,0.0,0.0,0.0,-6.1716,-6.1717,0.0,0.0,0.0,0.0,0.0,0.0,0.0,0.0,0.0,0.0,0.0,0.0,0.0,0.0,0.0,0.0,0.0,0.0,0.0,0.0,0.0,0.0,0.0,0.0,0.0,0.0,0.0,0.0,0.0,0.0,0.0,0.0,0.0,0.0,0.0,0.0,0.0,0.0,0.0,0.0,0.0,0.0,0.0,0.0,0.0,0.0,0.0,0.0,0.0,0.0,0.0,0.0,0.0,0.0,0.0,0.0,-5.6106,-5.6125,-5.6125,-5.6125,-5.6184,-5.6206,-5.6214,-5.6211,-5.6246,0.0,0.0,0.0,0.0,0.0,0.0,0.0,0.0,0.0,0.0,0.0,0.0,0.0,0.0,0.0,0.0,0.0,0.0,0.0,0.0,0.0,0.0,0.0,0.0,0.0,0.0,0.0,0.0,0.0,0.0,0.0,0.0,0.0,0.0,0.0,0.0,0.0,0.0,0.0,0.0,0.0,-6.1709,-6.1709,-6.1709,-6.1709,0.0,0.0,-6.171,-6.171,-6.171,0.0,0.0,0.0,0.0,0.0,0.0,0.0,0.0,0.0,0.0,0.0,0.0,0.0,0.0,0.0,0.0,0.0,0.0,0.0,0.0,0.0,0.0,0.0,0.0,0.0,0.0,0.0,0.0,0.0,0.0,0.0,0.0,0.0,0.0,0.0,0.0,0.0,0.0,0.0,0.0,0.0,0.0,0.0,0.0,0.0,0.0,0.0,0.0,0.0,0.0,0.0,0.0,0.0,0.0,0.0,-5.5979,-5.5979,-5.5998,-5.5747,-5.5272,-5.5271,-5.5084,-5.4625,-5.4646,-5.4691,0.0,0.0,0.0,0.0,0.0,0.0,0.0,0.0,0.0,0.0,0.0,0.0,0.0,0.0,0.0,0.0,0.0,0.0,0.0,0.0,0.0,0.0,0.0,0.0,0.0,0.0,0.0,0.0,0.0,0.0,0.0,0.0,0.0,0.0,0.0,0.0,0.0,0.0,0.0,0.0,0.0,0.0,-6.1637,-6.1637,0.0,0.0,0.0,-6.1637,-6.1637,0.0,0.0,0.0,0.0,0.0,0.0,0.0,0.0,0.0,0.0,0.0,0.0,0.0,0.0,0.0,0.0,0.0,0.0,0.0,0.0,0.0,0.0,0.0,0.0,0.0,0.0,0.0,0.0,0.0,0.0,0.0,0.0,0.0,0.0,0.0,0.0,0.0,0.0,0.0,0.0,0.0,0.0,0.0,0.0,0.0,0.0,0.0,0.0,0.0,0.0,0.0,0.0,0.0,0.0,0.0,0.0,0.0,-5.5537,-5.5325,-5.4882,-5.4256,-5.4265,-5.3985,-5.3412,-5.3447,0.0,0.0,0.0,0.0,0.0,0.0,0.0,0.0,0.0,0.0,0.0,0.0,0.0,0.0,0.0,0.0,0.0,0.0,0.0,0.0,0.0,0.0,0.0,0.0,0.0,0.0,0.0,-5.6572,0.0,0.0,0.0,0.0,0.0,0.0,0.0,0.0,0.0,0.0,0.0,0.0,0.0,0.0,-6.1576,-6.1576,-6.1576,-6.1576,0.0,0.0,-6.1576,-6.1576,-6.1576,-6.1582,0.0,0.0,0.0,0.0,0.0,0.0,0.0,0.0,0.0,0.0,0.0,0.0,0.0,0.0,0.0,0.0,0.0,0.0,0.0,0.0,0.0,0.0,0.0,0.0,0.0,0.0,0.0,0.0,0.0,0.0,0.0,0.0,0.0,0.0,0.0,0.0,0.0,0.0,0.0,0.0,0.0,0.0,0.0,0.0,0.0,0.0,0.0,0.0,0.0,0.0,0.0,0.0,0.0,0.0,-5.4496,-5.4477,-5.3697,-5.3275,-5.3208,-5.3311,-5.3369,-5.3311,-5.3368,-5.3375,0.0,0.0,0.0,0.0,0.0,0.0,0.0,0.0,0.0,0.0,0.0,0.0,0.0,0.0,0.0,0.0,0.0,0.0,0.0,0.0,0.0,0.0,0.0,0.0,0.0,0.0,0.0,0.0,0.0,0.0,0.0,0.0,0.0,0.0,0.0,0.0,0.0,0.0,0.0,0.0,0.0,-6.1576,-6.1576,-6.1576,-6.1576,0.0,-6.1576,-6.1576,-6.1576,-6.1576,-6.1576,-6.1579,0.0,0.0,0.0,0.0,0.0,0.0,0.0,0.0,0.0,0.0,0.0,0.0,0.0,0.0,0.0,0.0,0.0,0.0,0.0,0.0,0.0,0.0,0.0,0.0,0.0,0.0,0.0,0.0,0.0,0.0,0.0,0.0,0.0,0.0,0.0,0.0,0.0,0.0,0.0,0.0,0.0,0.0,0.0,0.0,0.0,0.0,0.0,0.0,0.0,0.0,0.0,0.0,0.0,-5.3555,-5.3536,-5.3229,-5.2807,-5.2327,-5.2361,-5.2132,-5.1594,-5.1635,-5.1674,0.0,0.0,0.0,0.0,0.0,0.0,0.0,0.0,0.0,0.0,0.0,0.0,0.0,0.0,0.0,0.0,0.0,0.0,0.0,0.0,0.0,0.0,0.0,0.0,0.0,0.0,0.0,0.0,-5.6486,-5.65,-5.6494,0.0,0.0,0.0,0.0,0.0,0.0,0.0,0.0,0.0,0.0,-6.1529,-6.1529,-6.1529,0.0,0.0,-6.1529,-6.1549,-6.1529,-6.1549,-6.1529,-6.1529,-6.1529,0.0,0.0,0.0,0.0,0.0,0.0,0.0,0.0,0.0,0.0,0.0,0.0,0.0,0.0,0.0,0.0,0.0,0.0,0.0,0.0,0.0,0.0,0.0,0.0,0.0,0.0,0.0,0.0,0.0,0.0,0.0,0.0,0.0,0.0,0.0,0.0,0.0,0.0,0.0,0.0,0.0,0.0,0.0,0.0,0.0,0.0,0.0,0.0,0.0,0.0,0.0,0.0,-5.2525,-5.2525,-5.2257,-5.1855,-5.1281,-5.1304,-5.1039,-5.0465,-5.0519,-5.0553,0.0,0.0,0.0,0.0,0.0,0.0,0.0,0.0,0.0,0.0,0.0,0.0,0.0,0.0,0.0,0.0,0.0,0.0,0.0,0.0,0.0,0.0,0.0,0.0,0.0,0.0,0.0,0.0,-5.6453,-5.6469,-5.6469,0.0,0.0,0.0,0.0,0.0,0.0,0.0,0.0,0.0,0.0,-6.1503,-6.1503,-6.1503,-6.1503,-6.1503,-6.1491,-6.1472,-6.1466,-6.146,-6.1453,-6.1453,0.0,0.0,0.0,0.0,0.0,0.0,0.0,0.0,0.0,0.0,0.0,0.0,0.0,0.0,0.0,0.0,0.0,0.0,0.0,0.0,0.0,0.0,0.0,0.0,0.0,0.0,0.0,-5.5504,0.0,0.0,-5.5504,0.0,0.0,0.0,0.0,0.0,0.0,0.0,0.0,0.0,0.0,0.0,0.0,0.0,0.0,0.0,0.0,0.0,0.0,0.0,0.0,0.0,0.0,-5.1427,-5.1408,-5.0647,-5.0196,-5.0177,-5.0201,-5.0293,-5.0302,-5.0359,-5.0435,-5.05,0.0,0.0,0.0,0.0,0.0,0.0,0.0,0.0,0.0,0.0,0.0,0.0,0.0,0.0,0.0,0.0,0.0,0.0,0.0,0.0,0.0,0.0,0.0,0.0,0.0,0.0,-5.6398,-5.6388,-5.6397,0.0,0.0,0.0,0.0,0.0,0.0,0.0,0.0,0.0,-6.1289,-6.1503,-6.1503,-6.1497,-6.1497,-6.1497,-6.1497,-6.1434,-6.1396,-6.1396,-6.1408,-6.1407,0.0,0.0,0.0,0.0,0.0,0.0,0.0,0.0,0.0,0.0,0.0,0.0,0.0,0.0,0.0,0.0,0.0,0.0,0.0,0.0,0.0,0.0,0.0,0.0,0.0,0.0,0.0,-5.5223,-5.5242,0.0,0.0,0.0,0.0,0.0,0.0,0.0,0.0,0.0,0.0,0.0,-5.4375,-5.4349,0.0,0.0,0.0,0.0,0.0,0.0,0.0,0.0,0.0,0.0,0.0,0.0,-5.0526,-5.0526,-5.026,-5.0108,-5.0108,-5.012,-5.0145,-5.017,-5.0194,-5.0255,-5.0359,0.0,0.0,0.0,0.0,0.0,0.0,0.0,0.0,0.0,0.0,0.0,0.0,0.0,0.0,0.0,0.0,0.0,0.0,0.0,0.0,0.0,0.0,0.0,0.0,0.0,-5.6393,0.0,0.0,0.0,0.0,0.0,0.0,0.0,0.0,0.0,0.0,-5.938,-6.0125,-6.1279,-6.1393,-6.1383,-6.1364,-6.1364,-6.1364,0.0,0.0,0.0,0.0,0.0,0.0,0.0,0.0,0.0,0.0,0.0,0.0,0.0,0.0,-6.1398,-6.1434,-6.1441,-6.1434,-6.1368,0.0,0.0,0.0,0.0,0.0,0.0,0.0,0.0,0.0,0.0,0.0,0.0,0.0,0.0,-5.5042,-5.5042,-5.5042,0.0,0.0,0.0,0.0,0.0,0.0,0.0,0.0,-5.4245,-5.3813,-5.3319,-5.3319,-5.2817,-5.1959,-5.194,-5.1816,0.0,0.0,0.0,0.0,0.0,0.0,0.0,0.0,-4.9965,-4.9965,-4.9965,-4.9952,-4.9965,-4.9952,-4.9965,-5.0011,-5.0044,-5.012,-5.0231,-5.029,-5.0371,0.0,0.0,0.0,0.0,0.0,0.0,0.0,0.0,0.0,0.0,0.0,0.0,0.0,0.0,0.0,0.0,0.0,0.0,0.0,0.0,0.0,0.0,0.0,-5.6342,0.0,0.0,0.0,0.0,0.0,0.0,0.0,0.0,0.0,-5.8739,-5.9541,-6.0386,-6.1259,-6.1337,-6.1317,-6.1317,0.0,0.0,0.0,0.0,0.0,0.0,0.0,-6.1182,-6.1203,-6.1203,-6.1183,-6.1203,-6.1203,-6.1203,-6.1183,0.0,0.0,-6.1341,-6.1364,-6.1349,-6.1283,-6.1255,-6.1247,-6.1245,-6.1199,-6.1191,0.0,0.0,0.0,0.0,-5.4689,0.0,0.0,0.0,-5.4856,-5.4886,0.0,-5.4886,0.0,0.0,0.0,0.0,-5.4791,-5.3898,0.0,0.0,-5.264,-5.2194,-5.2175,-5.2156,-5.1707,-5.0881,-5.0843,-5.0466,-4.9805,-5.0539,-5.0931,0.0,0.0,0.0,0.0,0.0,-4.9711,-4.9726,-4.9707,-4.9726,-4.9726,-4.9726,-4.9736,-4.9807,-4.9925,-5.0018,-5.0095,-5.0158,-5.0231,-5.029,-5.0348,0.0,0.0,0.0,0.0,0.0,0.0,0.0,0.0,0.0,0.0,0.0,0.0,0.0,0.0,0.0,0.0,0.0,0.0,0.0,0.0,-5.5695,0.0,0.0,0.0,0.0,0.0,0.0,0.0,0.0,0.0,-5.8692,-5.8769,-5.9525,-6.0339,-6.1181,0.0,0.0,0.0,0.0,-6.1289,-6.1289,-6.1247,-6.1164,-6.1099,-6.1032,-6.1001,-6.1046,0.0,0.0,-6.1113,-6.1113,-6.1132,-6.1094,-6.1171,-6.1136,-6.1391,-6.1358,-6.1292,-6.1268,-6.127,-6.1222,-6.1195,-6.1302,-6.1215,-5.4017,0.0,0.0,0.0,0.0,-5.451,-5.4541,-5.4587,-5.4603,-5.4651,-5.4752,-5.4752,0.0,0.0,0.0,0.0,0.0,0.0,-5.2568,-5.2549,-5.2307,-5.1877,-5.1292,-5.1273,-5.0745,-4.9849,-4.983,-4.9656,-4.9358,-4.9596,-4.9818,-5.0032,0.0,0.0,0.0,0.0,-4.9711,-4.9711,-4.9711,-4.9711,-4.9711,-4.9711,-4.9726,-4.974,-4.9764,-4.9802,-4.989,-4.9933,-5.0031,-5.0095,-5.0158,0.0,0.0,0.0,0.0,0.0,0.0,0.0,0.0,0.0,0.0,0.0,0.0,0.0,0.0,0.0,0.0,0.0,0.0,0.0,-5.5543,-5.591,-5.6065,0.0,0.0,0.0,0.0,0.0,0.0,0.0,0.0,0.0,-5.9331,-6.0256,-6.0919,0.0,0.0,-6.108,-6.1089,-6.1089,-6.1089,-6.1089,-6.1069,0.0,-6.1039,-6.1009,-6.1181,-6.1769,-6.2356,-6.278,-6.278,-6.2811,-6.278,-6.278,-6.2747,-6.2736,-6.2725,-6.1851,-6.135,-6.1754,-6.1909,-6.2141,-6.266,-6.2772,-6.2709,-5.3622,-5.3851,-5.4036,-5.4126,-5.4197,-5.4251,-5.4303,-5.4335,-5.4335,-5.4388,-5.4458,-5.4458,-5.427,-5.395,-5.3647,0.0,0.0,0.0,-5.1503,-5.1503,-5.1165,-5.0732,-5.0228,-5.0228,-4.9903,-4.934,-4.9305,-4.9276,-4.9197,-4.9197,-4.9292,-4.948,0.0,-4.9495,-4.9495,-4.9495,-4.9514,-4.9514,-4.9514,-4.9514,-4.9514,-4.9525,-4.9555,-4.9585,-4.9634,-4.9692,-4.975,-4.9807,-4.9843,-4.9912,-4.9952,-5.0031,0.0,0.0,0.0,0.0,0.0,0.0,0.0,0.0,0.0,0.0,0.0,-5.0801,-5.0805,0.0,0.0,0.0,-5.2423,-5.3969,-5.5322,-5.5757,0.0,0.0,0.0,0.0,0.0,0.0,0.0,-5.7082,-5.7901,-5.873,-5.9579,-6.0519,-6.1109,-6.106,-6.1031,-6.1009,-6.0997,0.0,-6.1006,-6.1006,-6.1257,-6.145,-6.1447,-6.1726,-6.21,-6.2537,-6.2983,-6.3337,-6.3337,-6.3356,-6.3337,-6.3344,-6.332,-6.3276,-6.3264,-6.2454,-6.197,-6.2494,-6.2591,-6.2783,-6.326,-6.3301,-6.3283,-5.3277,-5.33,-5.368,-5.3833,-5.387,-5.4,-5.4055,-5.4073,-5.4073,-5.4017,-5.3997,-5.3997,-5.3549,-5.2745,-5.1942,0.0,-5.1566,-5.0692,-5.0316,-5.0262,-4.955,-4.9197,-4.9197,-4.9214,-4.9197,-4.9197,-4.9197,-4.9197,-4.9162,-4.9162,-4.9162,-4.9162,-4.9181,-4.9197,-4.9197,-4.9195,-4.9197,-4.9214,-4.9214,-4.9214,-4.9195,-4.926,-4.9321,-4.9384,-4.9495,-4.9589,-4.9648,-4.9663,-4.9707,-4.9745,-4.9778,-4.9843,-4.9965,0.0,0.0,0.0,0.0,0.0,0.0,0.0,0.0,0.0,0.0,0.0,0.0,0.0,0.0,0.0,-5.2298,0.0,-5.4497,-5.5355,0.0,0.0,0.0,-5.5875,-5.5875,-5.5875,-5.6222,-5.7167,0.0,0.0,-5.9674,-6.0464,-6.0985,-6.0965,-6.0976,-6.0987,-6.0995,-6.0985,-6.0995,-6.11,-6.1698,-6.2158,-6.2167,-6.286,-6.3363,-6.3322,-6.329,-6.3416,-6.3416,-6.3397,-6.3345,-6.3403,-6.3294,-6.3338,-6.3299,-6.3305,-6.328,-6.3372,-6.3316,-6.3283,-6.3397,-6.3428,-6.3453,-5.2915,-5.2937,-5.3133,-5.338,-5.36,-5.362,-5.3678,-5.37,-5.37,-5.346,-5.3031,-5.3031,-5.2656,-5.194,-5.1101,-5.0692,-5.0671,-4.9851,-4.9494,-4.9475,-4.9288,-4.9197,-4.9197,-4.9197,-4.9164,-4.9135,-4.9116,-4.9083,-4.8978,-4.8978,-4.8978,-4.8978,-4.8978,-4.9046,-4.9179,-4.9197,-4.9197,-4.9197,-4.9197,-4.9197,-4.9195,-4.923,-4.9228,-4.9262,-4.9276,-4.9311,-4.9308,-4.9418,-4.9476,-4.951,-4.963,-4.9736,-4.9778,-4.9821,0.0,0.0,0.0,0.0,0.0,0.0,0.0,0.0,0.0,-5.0534,-5.0544,0.0,-5.0544,0.0,-5.2101,-5.3426,-5.429,-5.5097,0.0,0.0,-5.5604,-5.5585,-5.5585,-5.5585,-5.618,-5.7716,-5.8062,-5.8734,-6.0212,-6.0558,-6.0692,-6.0692,-6.0823,-6.0911,-6.0839,-6.0793,-6.1007,-6.1611,-6.1855,-6.2113,-6.281,-6.3597,-6.416,-6.4114,-6.4592,-6.5,-6.5,-6.5,-6.4986,-6.4944,-6.4872,-6.4832,-6.4753,-6.473,-6.4676,-6.4672,-6.4331,-6.4178,-6.4776,-6.4828,-6.4757,-5.2622,-5.2686,-5.2783,-5.2959,-5.3193,-5.3357,-5.3422,-5.3445,-5.3154,-5.2824,-5.2456,-5.177,-5.1249,-5.0839,-5.0002,-4.9647,-4.9663,-4.9216,-4.9029,-4.9062,-4.9044,-4.9062,-4.9062,-4.9062,-4.9047,-4.8996,-4.9015,-4.898,-4.8856,-4.8875,-4.8821,-4.8767,-4.8767,-4.882,-4.8925,-4.9029,-4.9062,-4.9062,-4.9062,-4.9062,-4.9062,-4.9131,-4.9166,-4.9166,-4.9181,-4.9197,-4.9195,-4.9276,-4.9324,-4.9324,-4.9418,-4.9495,-4.9555,-4.96,-4.9678,0.0,0.0,0.0,0.0,0.0,0.0,0.0,0.0,0.0,0.0,0.0,-5.0382,-5.0404,-5.1936,-5.3104,-5.3594,-5.4717,-5.5456,-5.5456,-5.5492,-5.5523,-5.5523,-5.5523,-5.6175,-5.7881,-5.8111,-5.8744,-6.0374,-6.0623,-6.0623,-6.0623,-6.0673,-6.0734,-6.0717,-6.066,-6.0955,-6.1768,-6.2183,-6.2828,-6.4003,-6.4583,-6.49,-6.4877,-6.5192,-6.5454,-6.5425,-6.5425,-6.5409,-6.5383,-6.5337,-6.529,-6.5261,-6.5229,-6.518,-6.5071,-6.4797,-6.4759,-6.5253,-6.5305,-6.5245,-5.234,-5.2457,-5.2513,-5.2608,-5.2739,-5.2938,-5.307,-5.3035,-5.2456,-5.2111,-5.1853,-5.0378,-4.9732,-4.9677,-4.8938,-4.8641,-4.8769,-4.8769,-4.8822,-4.8874,-4.8855,-4.8874,-4.8874,-4.8874,-4.8855,-4.8874,-4.8855,-4.8839,-4.8769,-4.8769,-4.8715,-4.8605,-4.8587,-4.8587,-4.8587,-4.8785,-4.8855,-4.8874,-4.8855,-4.8874,-4.8891,-4.8998,-4.9049,-4.9084,-4.9131,-4.9181,-4.9146,-4.9181,-4.9181,-4.9197,-4.9197,-4.9244,-4.9368,-4.9384,-4.9446,0.0,-4.9663,0.0,0.0,0.0,0.0,0.0,0.0,0.0,0.0,-5.0194,-5.02,-5.0248,-5.1787,-5.2773,-5.2773,-5.4339,-5.5371,-5.5371,-5.542,-5.5437,-5.5456,-5.5456,-5.6127,-5.7832,-5.8023,-5.8675,-6.0271,-6.0533,-6.052,-6.0525,-6.0506,-6.052,-6.0552,-6.068,-6.1089,-6.1837,-6.2768,-6.3915,-6.5063,-6.5437,-6.5401,-6.536,-6.5318,-6.5261,-6.5248,-6.5196,-6.5196,-6.5163,-6.5163,-6.5147,-6.513,-6.5114,-6.508,-6.4957,-6.4867,-6.4867,-6.5059,-6.5095,-6.5078,-5.2054,-5.2174,-5.218,-5.2204,-5.2197,-5.1842,-5.1774,-5.191,-5.1785,-5.1085,-4.9981,-4.9196,-4.8864,-4.8827,-4.8679,-4.8605,-4.8623,-4.8642,-4.866,-4.8641,-4.866,-4.8641,-4.8641,-4.866,-4.866,-4.8641,-4.8641,-4.866,-4.8642,-4.8642,-4.8642,-4.8605,-4.8587,-4.8587,-4.8605,0.0,0.0,0.0,-4.8641,-4.8714,-4.8822,-4.884,-4.8875,-4.8926,-4.8943,0.0,-4.896,-4.9047,-4.9118,-4.9135,-4.9164,0.0,0.0,0.0,0.0,0.0,0.0,0.0,0.0,0.0,0.0,0.0,-4.975,-4.9843,-5.0031,-5.0095,-5.012,-5.0171,-5.165,-5.2621,-5.2653,-5.4158,-5.5162,-5.5162,-5.5176,-5.5176,-5.5176,-5.5189,-5.5824,-5.7463,-5.7692,-5.834,-5.9898,-6.0207,-6.0207,-6.0203,-6.0207,-6.0188,-6.0188,-6.0919,-6.1795,-6.2675,-6.3895,-6.4909,-6.5295,-6.5305,-6.5258,-6.5245,-6.5229,-6.5232,-6.5199,-6.518,-6.5114,-6.4995,-6.4941,-6.4888,-6.4782,-6.4708,-6.4726,-6.469,-6.4671,-6.469,-6.4798,-6.4744,-6.4708,-5.1715,-5.1889,-5.1889,-5.1747,0.0,-5.1218,-5.0701,-5.0093,-5.0314,-4.9804,-4.8756,-4.8509,-4.842,-4.8401,-4.8439,-4.8495,-4.855,-4.855,-4.8569,-4.8587,-4.8587,-4.8587,-4.8587,-4.8587,-4.8587,-4.8587,-4.8587,-4.8587,-4.855,-4.855,-4.8532,-4.8458,-4.8439,-4.8439,-4.8439,-4.8458,-4.8513,-4.8587,-4.8587,-4.8642,-4.8697,-4.8715,-4.8714,-4.875,-4.875,0.0,0.0,0.0,0.0,0.0,0.0,0.0,0.0,-4.9166,0.0,-4.9214,-4.926,-4.9308,-4.9289,-4.9402,-4.9449,-4.9468,-4.9529,-4.9644,-4.983,-4.9885,-4.9898,-4.9936,-5.1414,-5.24,-5.2471,-5.394,-5.496,-5.496,-5.4995,-5.5038,-5.5071,-5.508,-5.5779,-5.7244,-5.7587,-5.8234,-5.987,-6.0099,-6.0099,-6.0099,-6.0099,-6.0099,-6.0175,-6.0912,-6.1955,-6.3234,-6.4432,-6.5226,-6.5245,-6.5232,-6.5163,-6.5111,-6.5061,-6.5029,-6.4976,-6.4905,-6.4871,-6.4782,-6.4764,-6.4708,-6.4653,-6.4615,-6.4577,-6.4501,-6.4481,-6.4443,-6.4424,-6.4501,-6.4558,-5.1428,-5.1597,-5.1497,-5.1193,-5.0785,-5.0539,-4.9611,-4.8313,-4.8765,0.0,0.0,-4.811,-4.8187,-4.8225,-4.8248,-4.8343,-4.8457,-4.8457,-4.8513,-4.855,-4.855,-4.855,-4.855,-4.8532,-4.8569,-4.855,-4.855,-4.8513,-4.8475,-4.8475,-4.8419,-4.8306,-4.8324,-4.8324,-4.8324,-4.8324,-4.8382,-4.8532,-4.855,-4.855,-4.8587,-4.8587,-4.8569,-4.8569,-4.8587,-4.866,-4.875,-4.875,-4.8786,-4.8856,-4.8855,-4.8927,-4.905,-4.9068,-4.91,-4.9129,-4.9181,-4.9181,-4.9181,-4.9197,-4.9197,-4.9197,-4.9308,-4.9449,-4.9615,-4.9678,-4.9711,-4.9711,-5.122,-5.2201,-5.222,-5.3754,-5.4767,-5.4786,-5.4886,-5.496,-5.4941,-5.5,-5.5655,-5.7137,-5.7483,-5.816,-5.9775,-6.0041,-6.0038,-6.0072,-6.0057,-6.0148,-6.0357,-6.1111,-6.2208,-6.3597,-6.459,-6.5163,-6.5147,-6.5114,-6.5061,-6.4939,-6.4888,-6.4817,-6.4707,-6.4634,-6.4596,-6.4577,-6.4558,-6.4539,-6.452,-6.4481,-6.4443,-6.4326,-6.4265,-6.4184,-6.4123,-6.4286,-6.4424,-5.122,-5.1305,-5.0632,-5.036,-5.0289,-4.9091,-4.8163,-4.7481,-4.7799,-4.7892,-4.7922,-4.799,-4.809,-4.8187,-4.8207,-4.8247,-4.8325,-4.8325,-4.8325,-4.8326,-4.8344,-4.8344,-4.8344,-4.8344,-4.8363,-4.8344,-4.8344,-4.8344,-4.8325,-4.8325,-4.8306,-4.8306,-4.8324,-4.8324,-4.8324,-4.8324,-4.8306,-4.8326,-4.8344,-4.8401,-4.8513,-4.8513,-4.855,-4.8587,-4.8569,-4.8624,-4.8623,-4.8623,-4.8623,-4.8641,-4.875,-4.8822,-4.884,-4.891,-4.8926,-4.8925,-4.9049,-4.9118,-4.91,-4.9164,-4.9197,-4.9195,-4.9211,-4.9273,-4.943,-4.9619,-4.9711,-4.9768,-5.1186,-5.2201,-5.2296,-5.3692,-5.4689,-5.4708,-5.4739,-5.4736,-5.4752,-5.4767,-5.5407,-5.6979,-5.717,-5.7864,-5.9481,-5.9857,-5.9872,-5.9921,-5.9918,-6.0126,-6.0804,-6.1812,-6.2766,-6.3734,-6.4543,-6.4951,-6.4941,-6.4834,-6.478,-6.4671,-6.4652,-6.4615,-6.4596,-6.4558,-6.452,-6.4443,-6.4384,-6.4304,-6.4205,-6.4063,-6.4042,-6.4019,-6.3998,-6.3977,-6.3934,-6.3998,-6.4,-5.0673,-5.0418,-5.0125,-4.9591,-4.8866,-4.7874,-4.7365,-4.7267,-4.7377,-4.7547,-4.7678,-4.7866,-4.7986,-4.8026,-4.8148,-4.8207,-4.8247,-4.8267,-4.8324,-4.8324,-4.8324,-4.8324,-4.8324,-4.8324,-4.8324,-4.8324,-4.8324,-4.8324,-4.8324,-4.8324,-4.8324,-4.8324,-4.8324,-4.8324,-4.8324,-4.8324,-4.8324,-4.8324,-4.8324,-4.8325,-4.84,-4.8382,-4.842,-4.842,-4.8439,-4.8476,-4.8532,-4.855,-4.855,-4.8587,-4.8641,-4.8678,-4.8697,-4.8714,-4.8767,-4.8839,-4.8892,-4.8963,-4.8979,-4.9012,-4.9046,-4.9064,-4.9116,-4.9183,-4.923,-4.9358,-4.9437,-4.9493,-5.092,-5.186,-5.1917,-5.3378,-5.4407,-5.4478,-5.451,-5.4541,-5.459,-5.4657,-5.5349,-5.6767,-5.7106,-5.7784,-5.9479,-5.9686,-5.9704,-5.9736,-5.9736,-5.9904,-6.0301,-6.1485,-6.2652,-6.3537,-6.4337,-6.4758,-6.4745,-6.4671,-6.4634,-6.4596,-6.4539,-6.4482,-6.4424,-6.4385,-6.4267,-6.4166,-6.4102,-6.4061,-6.3998,-6.3955,-6.3915,-6.3913,-6.3888,-6.3867,-6.3826,-6.3802,-6.3761,-5.0202,-4.967,-4.9565,-4.8743,-4.7486,-4.7015,-4.6929,-4.7111,-4.7156,-4.729,-4.7468,-4.7699,-4.784,-4.7902,-4.8067,-4.8166,-4.8207,-4.8247,-4.8287,-4.8324,-4.8324,-4.8324,-4.8324,-4.8324,-4.8324,-4.8324,-4.8324,-4.8324,-4.8324,-4.8324,-4.8324,-4.8324,-4.8324,-4.8324,-4.8324,-4.8324,-4.8324,-4.8324,-4.8324,-4.8324,-4.8324,-4.8324,-4.8324,-4.8324,-4.8324,-4.8344,-4.8457,-4.8457,-4.8494,-4.8532,-4.8569,-4.8587,-4.8587,-4.8587,-4.8642,-4.8732,-4.8769,-4.8768,-4.882,-4.882,-4.8838,-4.8874,-4.898,-4.905,-4.9049,-4.9098,-4.9164,-4.9347,-5.0671,-5.1607,-5.1829,-5.3119,-5.4127,-5.4254,-5.4306,-5.4337,-5.4386,-5.4508,-5.5103,-5.6459,-5.6909,-5.7606,-5.8866,-5.9467,-5.9598,-5.9616,-5.9616,-5.9616,-5.9767,-6.0917,-6.2123,-6.3066,-6.4028,-6.4595,-6.4577,-6.4558,-6.4539,-6.452,-6.4404,-6.4306,-6.4225,-6.4102,-6.4021,-6.3937,-6.3913,-6.3873,-6.3873,-6.3848,-6.3826,-6.3805,-6.378,-6.3736,-6.3691,-6.3602,-6.3579,-5.0056,-4.9431,-4.8741,-4.7688,-4.6623,-4.672,-4.6819,-4.6888,-4.7088,-4.7227,-4.7341,-4.7472,-4.7657,-4.7899,-4.7941,-4.8045,-4.8168,-4.8207,-4.8228,-4.8287,-4.8324,-4.8324,-4.8324,-4.8324,-4.8324,-4.8324,-4.8324,-4.8324,-4.8324,-4.8324,-4.8324,-4.8324,-4.8324,-4.8324,-4.8324,-4.8324,-4.8324,-4.8324,-4.8324,-4.8324,-4.8324,-4.8324,-4.8324,-4.8324,-4.8324,-4.8306,-4.8343,-4.8306,-4.8343,-4.8363,-4.8457,-4.8494,-4.8513,-4.855,-4.8605,-4.8605,-4.8605,-4.8642,-4.8623,-4.8623,-4.8678,-4.8804,-4.8841,-4.8857,-4.8909,-4.8926,-4.8993,-4.939,-5.0637,-5.1552,-5.1702,-5.3101,-5.4072,-5.4128,-5.4127,-5.4127,-5.4163,-5.4145,-5.4536,-5.5505,-5.6347,-5.7152,-5.8215,-5.9022,-5.951,-5.9544,-5.9544,-5.9562,-5.9637,-6.041,-6.1279,-6.2184,-6.3484,-6.4388,-6.4424,-6.4405,-6.4345,-6.4205,-6.4143,-6.4063,-6.3998,-6.3955,-6.3894,-6.387,-6.3826,-6.3802,-6.3758,-6.3732,-6.3647,-6.3647,-6.3624,-6.3579,-6.347,-6.3354,-6.3354,-4.9246,-4.8633,-4.7954,-4.7171,-4.6475,-4.6613,-4.6731,-4.6819,-4.6998,-4.7156,-4.7227,-4.732,-4.7533,-4.778,-4.7861,-4.7943,-4.8026,-4.8146,-4.8207,-4.8247,-4.8286,-4.8324,-4.8324,-4.8324,-4.8324,-4.8324,-4.8324,-4.8324,-4.8324,-4.8324,-4.8324,-4.8324,-4.8324,-4.8324,-4.8324,-4.8324,-4.8324,-4.8324,-4.8324,-4.8324,-4.8324,-4.8324,-4.8324,-4.8324,-4.8324,-4.8324,-4.8324,-4.8324,-4.8324,-4.8306,-4.8363,-4.8382,-4.8382,-4.8401,-4.8458,-4.8532,-4.8587,-4.8587,-4.8587,-4.8587,-4.8605,-4.8678,-4.8697,-4.8696,-4.8714,-4.8713,-4.8767,-4.9042,-5.0467,-5.1487,-5.1598,-5.2958,-5.3944,-5.4019,-5.4055,-5.4055,-5.4091,-5.4091,-5.4445,-5.5285,-5.6127,-5.6987,-5.7866,-5.8765,-5.929,-5.9346,-5.9383,-5.9419,-5.9457,-6.0097,-6.0661,-6.1167,-6.2443,-6.3606,-6.4056,-6.4225,-6.4145,-6.404,-6.3998,-6.3937,-6.387,-6.3845,-6.3823,-6.3758,-6.3714,-6.3669,-6.3688,-6.3579,-6.3488,-6.347,-6.3419,-6.3331,-6.3284,-6.3237,-6.3112,-4.8546,-4.776,-4.7168,-4.6723,-4.6368,-4.6518,-4.6661,-4.6754,-4.6911,-4.7066,-4.7219,-4.7254,-4.7446,-4.7636,-4.778,-4.7861,-4.7902,-4.8068,-4.8168,-4.8207,-4.8248,-4.8324,-4.8324,-4.8324,-4.8324,-4.8324,-4.8324,-4.8324,-4.8324,-4.8324,-4.8324,-4.8324,-4.8324,-4.8324,-4.8324,-4.8324,-4.8324,-4.8324,-4.8324,-4.8324,-4.8324,-4.8324,-4.8324,-4.8324,-4.8324,-4.8324,-4.8324,-4.8324,-4.8324,-4.8324,-4.8324,-4.8324,-4.8324,-4.8324,-4.8343,-4.8438,-4.8495,-4.8514,-4.8514,-4.8514,-4.8532,-4.8587,-4.8569,-4.8587,-4.8587,-4.8587,-4.8587,-4.8716,-5.0065,-5.1009,-5.1454,-5.2809,-5.3756,-5.3907,-5.3944,-5.3963,-5.4,-5.4018,-5.4242,-5.4932,-5.5865,-5.6986,-5.7939,-5.8726,-5.9158,-5.9158,-5.9178,-5.9215,-5.9272,-5.9683,-6.0074,-6.0355,-6.1399,-6.2388,-6.3478,-6.3948,-6.3942,-6.3913,-6.387,-6.3848,-6.3758,-6.3754,-6.371,-6.3583,-6.3579,-6.3511,-6.3465,-6.3377,-6.328,-6.3257,-6.3075,-6.2815,-6.2722,-6.2643,-6.219,-4.8142,-4.7039,-4.6475,-4.6267,-4.6221,-4.6495,-4.6613,-4.6637,-4.6888,-4.7066,-4.7201,-4.7272,-4.7385,-4.7533,-4.7657,-4.7759,-4.7902,-4.797,-4.809,-4.8187,-4.8267,-4.8324,-4.8324,-4.8324,-4.8324,-4.8324,-4.8324,-4.8324,-4.8324,-4.8324,-4.8324,-4.8324,-4.8324,-4.8324,-4.8324,-4.8324,-4.8324,-4.8324,-4.8324,-4.8324,-4.8324,-4.8324,-4.8324,-4.8324,-4.8324,-4.8324,-4.8324,-4.8324,-4.8324,-4.8324,-4.8324,-4.8324,-4.8324,-4.8324,-4.8306,-4.8324,-4.8325,-4.8325,-4.8325,-4.8325,-4.8382,-4.8476,-4.8494,-4.8513,-4.855,-4.855,-4.8569,-4.8587,-4.9492,-5.0324,-5.1118,-5.2563,-5.3602,-5.3715,-5.3774,-5.3813,-5.3832,-5.3832,-5.3888,-5.4298,-5.5472,-5.6945,-5.8591,-5.8966,-5.9023,-5.9023,-5.9004,-5.9024,-5.9062,-5.9098,-5.9452,-6.0013,-6.0479,-6.0946,-6.2421,-6.3299,-6.3705,-6.3693,-6.3593,-6.3758,-6.3669,-6.3579,-6.3515,-6.3447,-6.3424,-6.3354,-6.326,-6.3139,-6.3028,-6.2778,-6.219,-6.1958,-6.1861,-6.1084,-6.0711,-4.737,-4.6256,-4.6213,-4.6214,-4.6239,-4.6495,-4.6613,-4.6637,-4.6888,-4.7066,-4.7201,-4.7254,-4.7385,-4.7511,-4.7636,-4.7717,-4.778,-4.7929,-4.803,-4.809,-4.8229,-4.8324,-4.8324,-4.8324,-4.8324,-4.8324,-4.8324,-4.8324,-4.8324,-4.8324,-4.8324,-4.8324,-4.8324,-4.8324,-4.8324,-4.8324,-4.8324,-4.8324,-4.8324,-4.8324,-4.8324,-4.8324,-4.8324,-4.8324,-4.8324,-4.8324,-4.8324,-4.8324,-4.8324,-4.8324,-4.8324,-4.8324,-4.8324,-4.8324,-4.8324,-4.8324,-4.8324,-4.8324,-4.8324,-4.8324,-4.8324,-4.8363,-4.8363,-4.8363,-4.8401,-4.842,-4.8402,-4.8567,-4.9212,-5.0039,-5.0905,-5.2055,-5.3023,-5.3467,-5.3599,-5.3638,-5.3716,-5.3734,-5.3792,-5.4092,-5.532,-5.679,-5.7816,-5.8566,-5.8922,-5.8941,-5.8964,-5.8984,-5.8984,-5.8964,-5.909,-5.9368,-5.9775,-6.0236,-6.0702,-6.2199,-6.3038,-6.3118,-6.3145,-6.3397,-6.3441,-6.3284,-6.3183,-6.2956,-6.3025,-6.2965,-6.2759,-6.2374,-6.2338,-6.1653,-6.1121,-6.1011,-6.0913,-6.0315,-5.9979,-4.6664,-4.5959,-4.6115,-4.6214,-4.6221,-4.6471,-4.6613,-4.6637,-4.6888,-4.7088,-4.7178,-4.7254,-4.7363,-4.7511,-4.7636,-4.7699,-4.772,-4.7909,-4.7992,-4.8012,-4.8209,-4.8324,-4.8324,-4.8324,-4.8324,-4.8324,-4.8324,-4.8324,-4.8324,-4.8324,-4.8324,-4.8324,-4.8324,-4.8324,-4.8324,-4.8324,-4.8324,-4.8324,-4.8324,-4.8324,-4.8324,-4.8324,-4.8324,-4.8324,-4.8324,-4.8324,-4.8324,-4.8324,-4.8324,-4.8324,-4.8324,-4.8324,-4.8324,-4.8324,-4.8324,-4.8324,-4.8324,-4.8324,-4.8324,-4.8324,-4.8324,-4.8324,-4.8324,-4.8324,-4.8324,-4.8324,-4.8324,-4.8453,-4.8783,-4.9572,-5.062,-5.142,-5.2257,-5.318,-5.3479,-5.3501,-5.3617,-5.3617,-5.3825,-5.4292,-5.5389,-5.6521,-5.7398,-5.8277,-5.8745,-5.8838,-5.8882,-5.8904,-5.8884,-5.8862,-5.8838,-5.8875,-5.9204,-5.9404,-5.9754,-6.0744,-6.1769,-6.1942,-6.2216,-6.2635,-6.2808,-6.2706,-6.2642,-6.2469,-6.2385,-6.2343,-6.2135,-6.1713,-6.114,-6.048,-6.0181,-6.0076,-5.9905,-5.9722,-5.9355,-4.6032,-4.5998,-4.6165,-4.6196,-4.6246,-4.6495,-4.6613,-4.6661,-4.6906,-4.7088,-4.7223,-4.7294,-4.7385,-4.7511,-4.7636,-4.7699,-4.7759,-4.7911,-4.7992,-4.8012,-4.8191,-4.8324,-4.8324,-4.8324,-4.8324,-4.8324,-4.8324,-4.8324,-4.8324,-4.8324,-4.8324,-4.8324,-4.8324,-4.8324,-4.8324,-4.8324,-4.8324,-4.8324,-4.8324,-4.8324,-4.8324,-4.8324,-4.8324,-4.8324,-4.8324,-4.8324,-4.8324,-4.8324,-4.8324,-4.8324,-4.8324,-4.8324,-4.8324,-4.8324,-4.8324,-4.8324,-4.8324,-4.8324,-4.8324,-4.8324,-4.8324,-4.8324,-4.8324,-4.8324,-4.8324,-4.8324,-4.8324,-4.8343,-4.8434,-4.9022,-5.0453,-5.0914,-5.1579,-5.2985,-5.338,-5.344,-5.3481,-5.3481,-5.3817,-5.4638,-5.5455,-5.6424,-5.732,-5.8025,-5.8489,-5.8658,-5.8698,-5.8698,-5.8698,-5.8677,-5.8716,-5.8696,-5.8784,-5.889,-5.9014,-5.9252,-6.0048,-6.0733,-6.1085,-6.1452,-6.1509,-6.1459,-6.1468,-6.1356,-6.1345,-6.1285,-6.093,-6.0546,-6.0357,-5.985,-5.9533,-5.9203,-5.9098,-5.8914,-5.8547,-4.5998,-4.5998,-4.6122,-4.627,-4.635,-4.6518,-4.6637,-4.6749,-4.6934,-4.7111,-4.7254,-4.7298,-4.741,-4.7615,-4.7678,-4.7759,-4.784,-4.7949,-4.7992,-4.8032,-4.8209,-4.8324,-4.8324,-4.8324,-4.8324,-4.8324,-4.8324,-4.8324,-4.8324,-4.8324,-4.8324,-4.8324,-4.8324,-4.8324,-4.8324,-4.8324,-4.8324,-4.8324,-4.8324,-4.8324,-4.8324,-4.8324,-4.8324,-4.8324,-4.8324,-4.8324,-4.8324,-4.8324,-4.8324,-4.8324,-4.8324,-4.8324,-4.8324,-4.8324,-4.8324,-4.8324,-4.8324,-4.8324,-4.8324,-4.8324,-4.8324,-4.8324,-4.8324,-4.8324,-4.8324,-4.8324,-4.8324,-4.8324,-4.8343,-4.8985,-5.038,-5.082,-5.1538,-5.3046,-5.3269,-5.3316,-5.3359,-5.344,-5.363,-5.3927,-5.4632,-5.5466,-5.6298,-5.7151,-5.795,-5.8449,-5.8529,-5.8532,-5.8526,-5.8551,-5.8529,-5.8505,-5.8483,-5.8505,-5.8647,-5.8732,-5.9098,-5.9708,-6.0059,-6.0299,-6.0301,-6.031,-6.0296,-6.0286,-6.0276,-6.0123,-5.9722,-5.9538,-5.941,-5.9079,-5.8639,-5.8455,-5.8382,-5.8235,-5.8052,-4.6097,-4.6154,-4.6228,-4.635,-4.6495,-4.6613,-4.6708,-4.6801,-4.698,-4.716,-4.7298,-4.7363,-4.749,-4.7657,-4.7699,-4.778,-4.7902,-4.797,-4.8012,-4.809,-4.8209,-4.8306,-4.8324,-4.8324,-4.8324,-4.8324,-4.8324,-4.8324,-4.8324,-4.8324,-4.8324,-4.8324,-4.8324,-4.8324,-4.8324,-4.8324,-4.8324,-4.8324,-4.8324,-4.8324,-4.8324,-4.8324,-4.8324,-4.8324,-4.8324,-4.8324,-4.8324,-4.8324,-4.8324,-4.8324,-4.8324,-4.8324,-4.8324,-4.8324,-4.8324,-4.8324,-4.8324,-4.8324,-4.8324,-4.8324,-4.8324,-4.8324,-4.8324,-4.8324,-4.8324,-4.8324,-4.8324,-4.8324,-4.8324,-4.9003,-5.0417,-5.082,-5.1555,-5.302,-5.3206,-5.3209,-5.3274,-5.3336,-5.3398,-5.3621,-5.4195,-5.4972,-5.5805,-5.6657,-5.7488,-5.8212,-5.844,-5.8443,-5.8415,-5.844,-5.8418,-5.8415,-5.8437,-5.8415,-5.8349,-5.8323,-5.8301,-5.8688,-5.9094,-5.9214,-5.9297,-5.9274,-5.9246,-5.9186,-5.9163,-5.9108,-5.8786,-5.8767,-5.8657,-5.818,-5.7978,-5.8052,-5.8162,-5.8107,-5.7978,-4.6319,-4.6423,-4.6423,-4.6495,-4.6613,-4.6749,-4.6819,-4.6865,-4.7088,-4.7227,-4.7341,-4.7428,-4.7572,-4.7678,-4.7717,-4.7801,-4.7904,-4.799,-4.809,-4.8207,-4.8267,-4.8324,-4.8324,-4.8324,-4.8324,-4.8324,-4.8324,-4.8324,-4.8324,-4.8324,-4.8324,-4.8324,-4.8324,-4.8324,-4.8324,-4.8324,-4.8324,-4.8324,-4.8324,-4.8324,-4.8324,-4.8324,-4.8324,-4.8324,-4.8324,-4.8324,-4.8324,-4.8324,-4.8324,-4.8324,-4.8324,-4.8324,-4.8324,-4.8324,-4.8324,-4.8324,-4.8324,-4.8324,-4.8324,-4.8324,-4.8324,-4.8324,-4.8324,-4.8324,-4.8324,-4.8324,-4.8324,-4.8324,-4.8324,-4.8985,-5.0362,-5.082,-5.1573,-5.2837,-5.3185,-5.3206,-5.3185,-5.3206,-5.3251,-5.3405,-5.4036,-5.4812,-5.5578,-5.6427,-5.726,-5.7962,-5.826,-5.8371,-5.8349,-5.8349,-5.8371,-5.8349,-5.8305,-5.8282,-5.8197,-5.8197,-5.8152,-5.8262,-5.8538,-5.8571,-5.858,-5.8538,-5.8483,-5.8387,-5.8327,-5.818,-5.8125,-5.8217,-5.8235,-5.807,-5.7978,-5.7978,-5.7978,-5.7978,-5.7978,-4.6518,-4.6525,-4.6542,-4.6613,-4.6731,-4.6778,-4.6929,-4.7088,-4.7156,-4.7312,-4.7425,-4.7472,-4.7593,-4.7717,-4.7801,-4.7904,-4.7988,-4.807,-4.8189,-4.8267,-4.8305,-4.8324,-4.8324,-4.8324,-4.8324,-4.8324,-4.8324,-4.8324,-4.8324,-4.8324,-4.8324,-4.8324,-4.8324,-4.8324,-4.8324,-4.8324,-4.8324,-4.8324,-4.8324,-4.8324,-4.8324,-4.8324,-4.8324,-4.8324,-4.8324,-4.8324,-4.8324,-4.8324,-4.8324,-4.8324,-4.8324,-4.8324,-4.8324,-4.8324,-4.8324,-4.8324,-4.8324,-4.8324,-4.8324,-4.8324,-4.8324,-4.8324,-4.8324,-4.8324,-4.8324,-4.8324,-4.8324,-4.8324,-4.8343,-4.9003,-5.0398,-5.0875,-5.1646,-5.2837,-5.3185,-5.3185,-5.3185,-5.3185,-5.3206,-5.3285,-5.3487,-5.4004,-5.4801,-5.5591,-5.6423,-5.7177,-5.7806,-5.8219,-5.8197,-5.8238,-5.826,-5.8133,-5.8088,-5.8065,-5.8065,-5.8065,-5.8061,-5.8061,-5.8153,-5.8171,-5.8185,-5.8185,-5.813,-5.8052,-5.8143,-5.8052,-5.8015,-5.807,-5.7997,-5.7978,-5.7978,-5.7978,-5.7978,-5.7978,-5.7978,-4.6637,-4.6684,-4.6684,-4.6795,-4.6957,-4.6975,-4.707,-4.7227,-4.7312,-4.7399,-4.749,-4.7572,-4.7657,-4.7798,-4.7861,-4.7966,-4.809,-4.8168,-4.8246,-4.8305,-4.8324,-4.8324,-4.8324,-4.8324,-4.8324,-4.8324,-4.8324,-4.8324,-4.8324,-4.8324,-4.8324,-4.8324,-4.8324,-4.8324,-4.8324,-4.8324,-4.8324,-4.8324,-4.8324,-4.8324,-4.8324,-4.8324,-4.8324,-4.8324,-4.8324,-4.8324,-4.8324,-4.8324,-4.8324,-4.8324,-4.8324,-4.8324,-4.8324,-4.8324,-4.8324,-4.8324,-4.8324,-4.8324,-4.8324,-4.8324,-4.8324,-4.8324,-4.8324,-4.8324,-4.8324,-4.8324,-4.8324,-4.8324,-4.8618,-4.9481,-5.0582,-5.1371,-5.2197,-5.3002,-5.3185,-5.3185,-5.3185,-5.3185,-5.3185,-5.3185,-5.324,-5.3518,-5.4289,-5.5078,-5.5886,-5.6753,-5.7624,-5.79,-5.8042,-5.8084,-5.8106,-5.8042,-5.7978,-5.8001,-5.802,-5.802,-5.802,-5.7997,-5.7997,-5.7978,-5.7978,-5.7978,-5.7978,-5.7978,-5.7978,-5.7978,-5.7978,-5.7978,-5.7978,-5.7978,-5.7978,-5.7978,-5.7978,-5.7978,-5.7978,-4.6749,-4.6842,-4.6847,-4.698,-4.7178,-4.7201,-4.7249,-4.7341,-4.7446,-4.7508,-4.7554,-4.7675,-4.778,-4.792,-4.7943,-4.8045,-4.8187,-4.8207,-4.8265,-4.8305,-4.8324,-4.8324,-4.8324,-4.8324,-4.8324,-4.8324,-4.8324,-4.8324,-4.8324,-4.8324,-4.8324,-4.8324,-4.8324,-4.8324,-4.8324,-4.8324,-4.8324,-4.8324,-4.8324,-4.8324,-4.8324,-4.8324,-4.8324,-4.8324,-4.8324,-4.8324,-4.8324,-4.8324,-4.8324,-4.8324,-4.8324,-4.8324,-4.8324,-4.8324,-4.8324,-4.8324,-4.8324,-4.8324,-4.8324,-4.8324,-4.8324,-4.8324,-4.8324,-4.8324,-4.8324,-4.8324,-4.8324,-4.8324,-4.9095,-4.9921,-5.0986,-5.227,-5.2928,-5.3185,-5.3185,-5.3185,-5.3185,-5.3185,-5.3185,-5.3185,-5.3185,-5.3573,-5.4197,-5.5042,-5.5849,-5.6308,-5.7212,-5.7891,-5.802,-5.8042,-5.8042,-5.8001,-5.7978,-5.7978,-5.7978,-5.7978,-5.7978,-5.7978,-5.7978,-5.7978,-5.7978,-5.7978,-5.7978,-5.7978,-5.7978,-5.7978,-5.7978,-5.7978,-5.7978,-5.7978,-5.7978,-5.7978,-5.7978,-5.7978,-5.7978,-4.7088,-4.7111,-4.7183,-4.7214,-4.7276,-4.7276,-4.7359,-4.7468,-4.749,-4.7572,-4.7657,-4.7798,-4.7861,-4.7922,-4.8046,-4.8148,-4.8207,-4.8247,-4.8305,-4.8305,-4.8324,-4.8324,-4.8324,-4.8324,-4.8324,-4.8324,-4.8324,-4.8324,-4.8324,-4.8324,-4.8324,-4.8324,-4.8324,-4.8324,-4.8324,-4.8324,-4.8324,-4.8324,-4.8324,-4.8324,-4.8324,-4.8324,-4.8324,-4.8324,-4.8324,-4.8324,-4.8324,-4.8324,-4.8324,-4.8324,-4.8324,-4.8324,-4.8324,-4.8324,-4.8324,-4.8324,-4.8324,-4.8324,-4.8324,-4.8324,-4.8324,-4.8324,-4.8324,-4.8324,-4.8324,-4.8324,-4.8324,-4.8453,-4.9114,-5.0233,-5.1591,-5.2601,-5.3075,-5.3185,-5.3185,-5.3185,-5.3185,-5.3185,-5.3185,-5.3185,-5.3203,-5.3277,-5.3515,-5.4858,-5.5574,-5.5996,-5.684,-5.7795,-5.7978,-5.7978,-5.7978,-5.7978,-5.7978,-5.7978,-5.7978,-5.7978,-5.7978,-5.7978,-5.7978,-5.7978,-5.7978,-5.7978,-5.7978,-5.7978,-5.7978,-5.7978,-5.7978,-5.7978,-5.7978,-5.7978,-5.7978,-5.7978,-5.7978,-5.7978,-5.7978,-4.7249,-4.7249,-4.728,-4.7341,-4.7385,-4.7407,-4.7468,-4.7575,-4.7575,-4.7657,-4.778,-4.7881,-4.7943,-4.8045,-4.8166,-4.8207,-4.8247,-4.8267,-4.8324,-4.8324,-4.8324,-4.8324,-4.8324,-4.8324,-4.8324,-4.8324,-4.8324,-4.8324,-4.8324,-4.8324,-4.8324,-4.8324,-4.8324,-4.8324,-4.8324,-4.8324,-4.8324,-4.8324,-4.8324,-4.8324,-4.8324,-4.8324,-4.8324,-4.8324,-4.8324,-4.8324,-4.8324,-4.8324,-4.8324,-4.8324,-4.8324,-4.8324,-4.8324,-4.8324,-4.8324,-4.8324,-4.8324,-4.8324,-4.8324,-4.8324,-4.8324,-4.8324,-4.8324,-4.8324,-4.8324,-4.8324,-4.8563,-4.8967,-4.9738,-5.0802,-5.2344,-5.2858,-5.3167,-5.3185,-5.3185,-5.3185,-5.3185,-5.3185,-5.3185,-5.3185,-5.3185,-5.3185,-5.3683,-5.4711,-5.5372,-5.5831,-5.7079,-5.7978,-5.7978,-5.7978,-5.7978,-5.7978,-5.7978,-5.7978,-5.7978,-5.7978,-5.7978,-5.7978,-5.7978,-5.7978,-5.7978,-5.7978,-5.7978,-5.7978,-5.7978,-5.7978,-5.7978,-5.7978,-5.7978,-5.7978,-5.7978,-5.7978,-5.7978,-5.7978,-5.7978,-4.7341,-4.7341,-4.7345,-4.7446,-4.7533,-4.7533,-4.7615,-4.7738,-4.7738,-4.7819,-4.7902,-4.7943,-4.8046,-4.8186,-4.8207,-4.8247,-4.8287,-4.8287,-4.8324,-4.8324,-4.8324,-4.8324,-4.8324,-4.8324,-4.8324,-4.8324,-4.8324,-4.8324,-4.8324,-4.8324,-4.8324,-4.8324,-4.8324,-4.8324,-4.8324,-4.8324,-4.8324,-4.8324,-4.8324,-4.8324,-4.8324,-4.8324,-4.8324,-4.8324,-4.8324,-4.8324,-4.8324,-4.8324,-4.8324,-4.8324,-4.8324,-4.8324,-4.8324,-4.8324,-4.8324,-4.8324,-4.8324,-4.8324,-4.8324,-4.8324,-4.8324,-4.8324,-4.8324,-4.8324,-4.8324,-4.8379,-4.871,-4.9517,-5.038,-5.1555,-5.2986,-5.3167,-5.3185,-5.3185,-5.3185,-5.3185,-5.3185,-5.3185,-5.3185,-5.3185,-5.3185,-5.3185,-5.372,-5.4546,-5.5115,-5.5849,-5.7116,-5.7978,-5.7978,-5.7978,-5.7978,-5.7978,-5.7978,-5.7978,-5.7978,-5.7978,-5.7978,-5.7978,-5.7978,-5.7978,-5.7978,-5.7978,-5.7978,-5.7978,-5.7978,-5.7978,-5.7978,-5.7978,-5.7978,-5.7978,-5.7978,-5.7978,-5.7978,-5.7978,-5.7978,-4.745,-4.749,-4.7593,-4.7675,-4.7657,-4.7657,-4.7738,-4.7861,-4.7861,-4.7904,-4.8008,-4.8088,-4.8166,-4.8207,-4.8248,-4.8287,-4.8305,-4.8324,-4.8324,-4.8324,-4.8324,-4.8324,-4.8324,-4.8324,-4.8324,-4.8324,-4.8324,-4.8324,-4.8324,-4.8324,-4.8324,-4.8324,-4.8324,-4.8324,-4.8324,-4.8324,-4.8324,-4.8324,-4.8324,-4.8324,-4.8324,-4.8324,-4.8324,-4.8324,-4.8324,-4.8324,-4.8324,-4.8324,-4.8324,-4.8324,-4.8324,-4.8324,-4.8324,-4.8324,-4.8324,-4.8324,-4.8324,-4.8324,-4.8324,-4.8324,-4.8324,-4.8324,-4.8324,-4.8324,-4.8324,-4.8434,-4.8948,-4.9866,-5.1042,-5.2215,-5.3057,-5.3185,-5.3185,-5.3185,-5.3185,-5.3185,-5.3185,-5.3185,-5.3185,-5.3185,-5.3185,-5.324,-5.3757,-5.4418,-5.5207,-5.5996,-5.7079,-5.7813,-5.7978,-5.7978,-5.7978,-5.7978,-5.7978,-5.7978,-5.7978,-5.7978,-5.7978,-5.7978,-5.7978,-5.7978,-5.7978,-5.7978,-5.7978,-5.7978,-5.7978,-5.7978,-5.7978,-5.7978,-5.7978,-5.7978,-5.7978,-5.7978,-5.7978,-5.7978,-5.7978,-4.7615,-4.7615,-4.7678,-4.7738,-4.778,-4.7819,-4.7863,-4.7947,-4.7947,-4.8008,-4.8108,-4.8168,-4.8226,-4.8247,-4.8286,-4.8324,-4.8324,-4.8324,-4.8324,-4.8324,-4.8324,-4.8324,-4.8324,-4.8324,-4.8324,-4.8324,-4.8324,-4.8324,-4.8324,-4.8324,-4.8324,-4.8324,-4.8324,-4.8324,-4.8324,-4.8324,-4.8324,-4.8324,-4.8324,-4.8324,-4.8324,-4.8324,-4.8324,-4.8324,-4.8324,-4.8324,-4.8324,-4.8324,-4.8324,-4.8324,-4.8324,-4.8324,-4.8324,-4.8324,-4.8324,-4.8324,-4.8324,-4.8324,-4.8324,-4.8324,-4.8324,-4.8324,-4.8324,-4.8324,-4.8453,-4.8765,-4.9517,-5.071,-5.1738,-5.2766,-5.3167,-5.3185,-5.3185,-5.3185,-5.3185,-5.3185,-5.3185,-5.3185,-5.3185,-5.3185,-5.3185,-5.3277,-5.3479,-5.4271,-5.5262,-5.6216,-5.7134,-5.7611,-5.796,-5.7978,-5.7978,-5.7978,-5.7978,-5.7978,-5.7978,-5.7978,-5.7978,-5.7978,-5.7978,-5.7978,-5.7978,-5.7978,-5.7978,-5.7978,-5.7978,-5.7978,-5.7978,-5.7978,-5.7978,-5.7978,-5.7978,-5.7978,-5.7978,-5.7978,-5.7978,-4.7762,-4.7762,-4.7762,-4.7822,-4.7922,-4.7922,-4.7986,-4.803,-4.805,-4.811,-4.8207,-4.8226,-4.8247,-4.8287,-4.8324,-4.8324,-4.8324,-4.8324,-4.8324,-4.8324,-4.8324,-4.8324,-4.8324,-4.8324,-4.8324,-4.8324,-4.8324,-4.8324,-4.8324,-4.8324,-4.8324,-4.8324,-4.8324,-4.8324,-4.8324,-4.8324,-4.8324,-4.8324,-4.8324,-4.8324,-4.8324,-4.8324,-4.8324,-4.8324,-4.8324,-4.8324,-4.8324,-4.8324,-4.8324,-4.8324,-4.8324,-4.8324,-4.8324,-4.8324,-4.8324,-4.8324,-4.8324,-4.8324,-4.8324,-4.8324,-4.8324,-4.8324,-4.8324,-4.8398,-4.8912,-4.9627,-5.0639,-5.183,-5.2674,-5.3112,-5.3185,-5.3185,-5.3185,-5.3185,-5.3185,-5.3185,-5.3185,-5.3185,-5.3185,-5.3185,-5.3185,-5.3295,-5.3482,-5.4418,-5.5464,-5.6092,-5.6969,-5.7685,-5.7978,-5.7978,-5.7978,-5.7978,-5.7978,-5.7978,-5.7978,-5.7978,-5.7978,-5.7978,-5.7978,-5.7978,-5.7978,-5.7978,-5.7978,-5.7978,-5.7978,-5.7978,-5.7978,-5.7978,-5.7978,-5.7978,-5.7978,-5.7978,-5.7978,-5.7978,-5.7978,-4.7951,-4.7951,-4.7951,-4.799,-4.799,-4.799,-4.805,-4.8168,-4.8168,-4.8208,-4.8286,-4.8287,-4.8305,-4.8324,-4.8324,-4.8324,-4.8324,-4.8324,-4.8324,-4.8324,-4.8324,-4.8324,-4.8324,-4.8324,-4.8324,-4.8324,-4.8324,-4.8324,-4.8324,-4.8324,-4.8324,-4.8324,-4.8324,-4.8324,-4.8324,-4.8324,-4.8324,-4.8324,-4.8324,-4.8324,-4.8324,-4.8324,-4.8324,-4.8324,-4.8324,-4.8324,-4.8324,-4.8324,-4.8324,-4.8324,-4.8324,-4.8324,-4.8324,-4.8324,-4.8324,-4.8324,-4.8324,-4.8324,-4.8324,-4.8324,-4.8324,-4.8343,-4.8379,-4.8728,-4.9609,-5.0674,-5.1591,-5.1885,-5.2747,-5.3148,-5.3185,-5.3185,-5.3185,-5.3185,-5.3185,-5.3185,-5.3185,-5.3185,-5.3185,-5.3185,-5.3185,-5.3298,-5.3427,-5.4583,-5.5669,-5.622,-5.6785,-5.7519,-5.7978,-5.7978,-5.7978,-5.7978,-5.7978,-5.7978,-5.7978,-5.7978,-5.7978,-5.7978,-5.7978,-5.7978,-5.7978,-5.7978,-5.7978,-5.7978,-5.7978,-5.7978,-5.7978,-5.7978,-5.7978,-5.7978,-5.7978,-5.7978,-5.7978,-5.7978,-5.7978,-4.8111,-4.7992,-4.7992,-4.805,-4.811,-4.811,-4.8169,-4.8247,-4.8247,-4.8286,-4.8305,-4.8324,-4.8324,-4.8324,-4.8324,-4.8324,-4.8324,-4.8324,-4.8324,-4.8324,-4.8324,-4.8324,-4.8324,-4.8324,-4.8324,-4.8324,-4.8324,-4.8324,-4.8324,-4.8324,-4.8324,-4.8324,-4.8324,-4.8324,-4.8324,-4.8324,-4.8324,-4.8324,-4.8324,-4.8324,-4.8324,-4.8324,-4.8324,-4.8324,-4.8324,-4.8324,-4.8324,-4.8324,-4.8324,-4.8324,-4.8324,-4.8324,-4.8324,-4.8324,-4.8324,-4.8324,-4.8324,-4.8324,-4.8324,-4.8324,-4.8343,-4.8508,-4.8802,-4.9591,-5.0692,-5.1518,-5.227,-5.2674,-5.2986,-5.3167,-5.3185,-5.3185,-5.3185,-5.3185,-5.3185,-5.3185,-5.3185,-5.3185,-5.3185,-5.3185,-5.3222,-5.3408,-5.372,-5.4748,-5.5647,-5.6106,-5.6822,-5.7666,-5.7978,-5.7978,-5.7978,-5.7978,-5.7978,-5.7978,-5.7978,-5.7978,-5.7978,-5.7978,-5.7978,-5.7978,-5.7978,-5.7978,-5.7978,-5.7978,-5.7978,-5.7978,-5.7978,-5.7978,-5.7978,-5.7978,-5.7978,-5.7978,-5.7978,-5.7978,-5.7978,-4.8209,-4.8053,-4.8072,-4.8149,-4.8226,-4.8226,-4.8247,-4.8287,-4.8305,-4.8324,-4.8324,-4.8324,-4.8324,-4.8324,-4.8324,-4.8324,-4.8324,-4.8324,-4.8324,-4.8324,-4.8324,-4.8324,-4.8324,-4.8324,-4.8324,-4.8324,-4.8324,-4.8324,-4.8324,-4.8324,-4.8324,-4.8324,-4.8324,-4.8324,-4.8324,-4.8324,-4.8324,-4.8324,-4.8324,-4.8324,-4.8324,-4.8324,-4.8324,-4.8324,-4.8324,-4.8324,-4.8324,-4.8324,-4.8324,-4.8324,-4.8324,-4.8324,-4.8324,-4.8324,-4.8324,-4.8324,-4.8324,-4.8324,-4.8324,-4.8343,-4.8416,-4.8857,-4.9609,-5.0692,-5.1573,-5.2105,-5.2435,-5.3078,-5.313,-5.3185,-5.3185,-5.3185,-5.3185,-5.3185,-5.3185,-5.3185,-5.3185,-5.3185,-5.3185,-5.3185,-5.3314,-5.3683,-5.4161,-5.5005,-5.5666,-5.6051,-5.6822,-5.7795,-5.7978,-5.7978,-5.7978,-5.7978,-5.7978,-5.7978,-5.7978,-5.7978,-5.7978,-5.7978,-5.7978,-5.7978,-5.7978,-5.7978,-5.7978,-5.7978,-5.7978,-5.7978,-5.7978,-5.7978,-5.7978,-5.7978,-5.7978,-5.7978,-5.7978,-5.7978,-5.7978,-4.8287,-4.8287,-4.8267,-4.8286,-4.8287,-4.8305,-4.8305,-4.8324,-4.8324,-4.8324,-4.8324,-4.8324,-4.8324,-4.8324,-4.8324,-4.8324,-4.8324,-4.8324,-4.8324,-4.8324,-4.8324,-4.8324,-4.8324,-4.8324,-4.8324,-4.8324,-4.8324,-4.8324,-4.8324,-4.8324,-4.8324,-4.8324,-4.8324,-4.8324,-4.8324,-4.8324,-4.8324,-4.8324,-4.8324,-4.8324,-4.8324,-4.8324,-4.8324,-4.8324,-4.8324,-4.8324,-4.8324,-4.8324,-4.8324,-4.8324,-4.8324,-4.8324,-4.8324,-4.8324,-4.8324,-4.8324,-4.8324,-4.8379,-4.8471,-4.8581,-4.8838,-4.9664,-5.0712,-5.1628,-5.216,-5.2784,-5.3133,-5.3167,-5.3185,-5.3185,-5.3185,-5.3185,-5.3185,-5.3185,-5.3185,-5.3185,-5.3185,-5.3185,-5.3185,-5.3185,-5.346,-5.394,-5.4583,-5.5445,-5.5978,-5.6381,-5.7042,-5.7978,-5.7978,-5.7978,-5.7978,-5.7978,-5.7978,-5.7978,-5.7978,-5.7978,-5.7978,-5.7978,-5.7978,-5.7978,-5.7978,-5.7978,-5.7978,-5.7978,-5.7978,-5.7978,-5.7978,-5.7978,-5.7978,-5.7978,-5.7978,-5.7978,-5.7978,-5.7978,-5.7978,-4.8324,-4.8324,-4.8324,-4.8324,-4.8324,-4.8324,-4.8324,-4.8324,-4.8324,-4.8324,-4.8324,-4.8324,-4.8324,-4.8324,-4.8324,-4.8324,-4.8324,-4.8324,-4.8324,-4.8324,-4.8324,-4.8324,-4.8324,-4.8324,-4.8324,-4.8324,-4.8324,-4.8324,-4.8324,-4.8324,-4.8324,-4.8324,-4.8324,-4.8324,-4.8324,-4.8324,-4.8324,-4.8324,-4.8324,-4.8324,-4.8324,-4.8324,-4.8324,-4.8324,-4.8324,-4.8324,-4.8324,-4.8324,-4.8324,-4.8324,-4.8324,-4.8324,-4.8324,-4.8324,-4.8343,-4.8379,-4.8398,-4.8636,-4.9058,-4.9187,-4.9664,-5.0877,-5.1685,-5.2197,-5.2582,-5.3059,-5.3167,-5.3185,-5.3185,-5.3185,-5.3185,-5.3185,-5.3185,-5.3185,-5.3185,-5.3185,-5.3185,-5.3185,-5.3332,-5.3405,-5.3885,-5.4399,-5.5115,-5.5868,-5.6326,-5.6744,-5.7446,-5.7978,-5.7978,-5.7978,-5.7978,-5.7978,-5.7978,-5.7978,-5.7978,-5.7978,-5.7978,-5.7978,-5.7978,-5.7978,-5.7978,-5.7978,-5.7978,-5.7978,-5.7978,-5.7978,-5.7978,-5.7978,-5.7978,-5.7978,-5.7978,-5.7978,-5.7978,-5.7978,-5.7978,-4.8324,-4.8324,-4.8324,-4.8324,-4.8324,-4.8324,-4.8324,-4.8324,-4.8324,-4.8324,-4.8324,-4.8324,-4.8324,-4.8324,-4.8324,-4.8324,-4.8324,-4.8324,-4.8324,-4.8324,-4.8324,-4.8324,-4.8324,-4.8324,-4.8324,-4.8324,-4.8324,-4.8324,-4.8324,-4.8324,-4.8324,-4.8324,-4.8324,-4.8324,-4.8324,-4.8324,-4.8324,-4.8324,-4.8324,-4.8324,-4.8324,-4.8324,-4.8324,-4.8324,-4.8324,-4.8324,-4.8324,-4.8324,-4.8324,-4.8324,-4.8324,-4.8324,-4.8324,-4.8343,-4.8453,-4.8581,-4.8765,-4.9095,-4.9719,-5.0345,-5.0784,-5.1667,-5.2234,-5.2674,-5.3041,-5.3185,-5.3185,-5.3185,-5.3185,-5.3185,-5.3185,-5.3185,-5.3185,-5.3185,-5.3185,-5.3185,-5.3185,-5.3203,-5.3463,-5.3665,-5.4197,-5.4711,-5.5849,-5.6583,-5.695,-5.7281,-5.7593,-5.7978,-5.7978,-5.7978,-5.7978,-5.7978,-5.7978,-5.7978,-5.7978,-5.7978,-5.7978,-5.7978,-5.7978,-5.7978,-5.7978,-5.7978,-5.7978,-5.7978,-5.7978,-5.7978,-5.7978,-5.7978,-5.7978,-5.7978,-5.7978,-5.7978,-5.7978,-5.7978,-5.7978,-4.8324,-4.8324,-4.8324,-4.8324,-4.8324,-4.8324,-4.8324,-4.8324,-4.8324,-4.8324,-4.8324,-4.8324,-4.8324,-4.8324,-4.8324,-4.8324,-4.8324,-4.8324,-4.8324,-4.8324,-4.8324,-4.8324,-4.8324,-4.8324,-4.8324,-4.8324,-4.8324,-4.8324,-4.8324,-4.8324,-4.8324,-4.8324,-4.8324,-4.8324,-4.8324,-4.8324,-4.8324,-4.8324,-4.8324,-4.8324,-4.8324,-4.8324,-4.8324,-4.8324,-4.8324,-4.8324,-4.8324,-4.8324,-4.8324,-4.8324,-4.8324,-4.8379,-4.8508,-4.8508,-4.882,-4.9481,-4.9536,-4.9958,-5.0692,-5.1463,-5.194,-5.216,-5.2674,-5.3041,-5.3148,-5.3185,-5.3185,-5.3185,-5.3185,-5.3185,-5.3185,-5.3185,-5.3185,-5.3185,-5.3185,-5.3185,-5.3185,-5.3479,-5.3775,-5.4142,-5.4473,-5.5005,-5.6326,-5.7336,-5.7648,-5.7868,-5.7941,-5.7978,-5.7978,-5.7978,-5.7978,-5.7978,-5.7978,-5.7978,-5.7978,-5.7978,-5.7978,-5.7978,-5.7978,-5.7978,-5.7978,-5.7978,-5.7978,-5.7978,-5.7978,-5.7978,-5.7978,-5.7978,-5.7978,-5.7978,-5.7978,-5.7978,-5.7978,-5.7978,-5.7978,-4.8324,-4.8324,-4.8324,-4.8324,-4.8324,-4.8324,-4.8324,-4.8324,-4.8324,-4.8324,-4.8324,-4.8324,-4.8324,-4.8324,-4.8324,-4.8324,-4.8324,-4.8324,-4.8324,-4.8324,-4.8324,-4.8324,-4.8324,-4.8324,-4.8324,-4.8324,-4.8324,-4.8324,-4.8324,-4.8324,-4.8324,-4.8324,-4.8398,-4.8324,-4.8324,-4.8324,-4.8324,-4.8324,-4.8324,-4.8324,-4.8343,-4.8379,-4.8416,-4.8434,-4.8453,-4.8471,-4.8508,-4.8545,-4.8526,-4.8526,-4.8545,-4.871,-4.904,-4.915,-4.9536,-5.0196,-5.0417,-5.0765,-5.1536,-5.227,-5.2766,-5.2894,-5.2947,-5.3185,-5.3185,-5.3185,-5.3185,-5.3185,-5.3185,-5.3185,-5.3185,-5.3185,-5.3185,-5.3185,-5.3185,-5.3185,-5.3295,-5.3812,-5.4234,-5.4675,-5.506,-5.6051,-5.7262,-5.7574,-5.7868,-5.7978,-5.7978,-5.7978,-5.7978,-5.7978,-5.7978,-5.7978,-5.7978,-5.7978,-5.7978,-5.7978,-5.7978,-5.7978,-5.7978,-5.7978,-5.7978,-5.7978,-5.7978,-5.7978,-5.7978,-5.7978,-5.7978,-5.7978,-5.7978,-5.7978,-5.7978,-5.7978,-5.7978,-5.7978,-5.7978,-4.8324,-4.8324,-4.8324,-4.8324,-4.8324,-4.8324,-4.8324,-4.8324,-4.8324,-4.8324,-4.8324,-4.8324,-4.8324,-4.8324,-4.8324,-4.8324,-4.8324,-4.8324,-4.8324,-4.8324,-4.8324,-4.8324,-4.8324,-4.8324,-4.8324,-4.8324,-4.8324,-4.8324,-4.8324,-4.8324,-4.8324,-4.8379,-4.86,-4.882,-4.8746,-4.86,-4.8508,-4.8673,-4.8875,-4.904,-4.9187,-4.9297,-4.926,-4.9279,-4.9259,-4.926,-4.9205,-4.9169,-4.9132,-4.9114,-4.9224,-4.9407,-4.9848,-5.0105,-5.0417,-5.0949,-5.1573,-5.1867,-5.2472,-5.2766,-5.3096,-5.313,-5.3185,-5.3185,-5.3185,-5.3185,-5.3185,-5.3185,-5.3185,-5.3185,-5.3185,-5.3185,-5.3222,-5.3222,-5.3479,-5.3479,-5.383,-5.4363,-5.5023,-5.5445,-5.5886,-5.6987,-5.7795,-5.785,-5.796,-5.7978,-5.7978,-5.7978,-5.7978,-5.7978,-5.7978,-5.7978,-5.7978,-5.7978,-5.7978,-5.7978,-5.7978,-5.7978,-5.7978,-5.7978,-5.7978,-5.7978,-5.7978,-5.7978,-5.7978,-5.7978,-5.7978,-5.7978,-5.7978,-5.7978,-5.7978,-5.7978,-5.7978,-5.7978,-5.7978,-4.8324,-4.8324,-4.8324,-4.8324,-4.8324,-4.8324,-4.8324,-4.8324,-4.8324,-4.8324,-4.8324,-4.8324,-4.8324,-4.8324,-4.8324,-4.8324,-4.8324,-4.8324,-4.8324,-4.8324,-4.8324,-4.8324,-4.8324,-4.8324,-4.8324,-4.8324,-4.8324,-4.8324,-4.8324,-4.8563,-4.8545,-4.8655,-4.9279,-4.9499,-4.9407,-4.9205,-4.915,-4.9462,-4.9627,-4.9884,-5.016,-5.0453,-5.0362,-5.0343,-5.0362,-5.038,-5.038,-5.0417,-5.049,-5.0545,-5.0637,-5.0729,-5.082,-5.0839,-5.1334,-5.1958,-5.2711,-5.2892,-5.302,-5.3148,-5.3167,-5.3185,-5.3185,-5.3185,-5.3185,-5.3185,-5.3185,-5.3185,-5.3185,-5.3185,-5.3185,-5.3222,-5.3259,-5.3552,-5.3977,-5.4216,-5.4528,-5.5115,-5.5849,-5.6326,-5.6657,-5.7336,-5.7813,-5.7978,-5.7978,-5.7978,-5.7978,-5.7978,-5.7978,-5.7978,-5.7978,-5.7978,-5.7978,-5.7978,-5.7978,-5.7978,-5.7978,-5.7978,-5.7978,-5.7978,-5.7978,-5.7978,-5.7978,-5.7978,-5.7978,-5.7978,-5.7978,-5.7978,-5.7978,-5.7978,-5.7978,-5.7978,-5.7978,-5.7978,-5.7978,-4.8324,-4.8324,-4.8324,-4.8324,-4.8324,-4.8324,-4.8324,-4.8324,-4.8324,-4.8324,-4.8324,-4.8324,-4.8324,-4.8324,-4.8324,-4.8324,-4.8324,-4.8324,-4.8324,-4.8324,-4.8324,-4.8324,-4.8324,-4.8324,-4.8324,-4.8324,-4.8324,-4.8324,-4.8471,-4.8765,-4.9169,-4.939,-5.005,-5.0343,-5.0362,-5.0215,-5.0343,-5.0398,-5.0508,-5.071,-5.0875,-5.1022,-5.1004,-5.1022,-5.1041,-5.1041,-5.1041,-5.1004,-5.0986,-5.093,-5.0857,-5.0986,-5.1646,-5.1683,-5.1995,-5.2747,-5.3096,-5.3167,-5.3185,-5.3185,-5.3185,-5.3185,-5.3185,-5.3185,-5.3185,-5.3185,-5.3185,-5.3185,-5.3185,-5.3185,-5.3259,-5.3314,-5.3555,-5.3959,-5.4418,-5.4913,-5.528,-5.5941,-5.6638,-5.6859,-5.7207,-5.7501,-5.7941,-5.7978,-5.7978,-5.7978,-5.7978,-5.7978,-5.7978,-5.7978,-5.7978,-5.7978,-5.7978,-5.7978,-5.7978,-5.7978,-5.7978,-5.7978,-5.7978,-5.7978,-5.7978,-5.7978,-5.7978,-5.7978,-5.7978,-5.7978,-5.7978,-5.7978,-5.7978,-5.7978,-5.7978,-5.7978,-5.7978,-5.7978,-5.7978,-4.8324,-4.8324,-4.8324,-4.8324,-4.8324,-4.8324,-4.8324,-4.8324,-4.8324,-4.8324,-4.8324,-4.8324,-4.8324,-4.8324,-4.8324,-4.8324,-4.8324,-4.8324,-4.8324,-4.8324,-4.8324,-4.8324,-4.8324,-4.8324,-4.8324,-4.8324,-4.8324,-4.8324,-4.86,-4.915,-4.9647,-5.0141,-5.0875,-5.1187,-5.1334,-5.1536,-5.1756,-5.1665,-5.1573,-5.1536,-5.1573,-5.1683,-5.1738,-5.1665,-5.1683,-5.1683,-5.1683,-5.1644,-5.1681,-5.1738,-5.1756,-5.194,-5.2454,-5.2509,-5.2564,-5.3151,-5.3167,-5.3185,-5.3185,-5.3185,-5.3185,-5.3185,-5.3185,-5.3185,-5.3185,-5.3185,-5.3185,-5.3185,-5.3185,-5.3203,-5.3353,-5.35,-5.3922,-5.4344,-5.495,-5.5574,-5.618,-5.6822,-5.7134,-5.7336,-5.7574,-5.7813,-5.7978,-5.7978,-5.7978,-5.7978,-5.7978,-5.7978,-5.7978,-5.7978,-5.7978,-5.7978,-5.7978,-5.7978,-5.7978,-5.7978,-5.7978,-5.7978,-5.7978,-5.7978,-5.7978,-5.7978,-5.7978,-5.7978,-5.7978,-5.7978,-5.7978,-5.7978,-5.7978,-5.7978,-5.7978,-5.7978,-5.7978,-5.7978,-5.7978,-4.8324,-4.8324,-4.8324,-4.8324,-4.8324,-4.8324,-4.8324,-4.8324,-4.8324,-4.8324,-4.8324,-4.8324,-4.8324,-4.8324,-4.8324,-4.8324,-4.8324,-4.8324,-4.8324,-4.8324,-4.8324,-4.8324,-4.8324,-4.8324,-4.8324,-4.8324,-4.8489,-4.8783,-4.8893,-4.9609,-5.0527,-5.093,-5.1683,-5.2087,-5.2179,-5.2564,-5.2729,-5.2656,-5.2417,-5.2307,-5.2782,-5.3075,-5.3185,-5.3057,-5.3038,-5.3038,-5.3057,-5.3112,-5.3185,-5.3167,-5.313,-5.3057,-5.3078,-5.3096,-5.317,-5.3167,-5.3185,-5.3185,-5.3185,-5.3185,-5.3185,-5.3185,-5.3185,-5.3185,-5.3185,-5.3185,-5.3185,-5.3295,-5.3332,-5.3552,-5.372,-5.4234,-5.4711,-5.5188,-5.5776,-5.6345,-5.6914,-5.7373,-5.7574,-5.7703,-5.7758,-5.7978,-5.7978,-5.7978,-5.7978,-5.7978,-5.7978,-5.7978,-5.7978,-5.7978,-5.7978,-5.7978,-5.7978,-5.7978,-5.7978,-5.7978,-5.7978,-5.7978,-5.7978,-5.7978,-5.7978,-5.7978,-5.7978,-5.7978,-5.7978,-5.7978,-5.7978,-5.7978,-5.7978,-5.7978,-5.7978,-5.7978,-5.7978,-5.7978,-5.7978,-4.8324,-4.8324,-4.8324,-4.8324,-4.8324,-4.8324,-4.8324,-4.8324,-4.8324,-4.8324,-4.8324,-4.8324,-4.8324,-4.8324,-4.8324,-4.8324,-4.8324,-4.8324,-4.8324,-4.8324,-4.8324,-4.8324,-4.8324,-4.8324,-4.8343,-4.8545,-4.8893,-4.9572,-5.0123,-5.0857,-5.1426,-5.1756,-5.2435,-5.2784,-5.2803,-5.3167,-5.3167,-5.3167,-5.3041,-5.2858,-5.3112,-5.3185,-5.3185,-5.3185,-5.3185,-5.3185,-5.3185,-5.3185,-5.3185,-5.3185,-5.3185,-5.3167,-5.3185,-5.3185,-5.3185,-5.3185,-5.3185,-5.3185,-5.3185,-5.3185,-5.3185,-5.3185,-5.3185,-5.3185,-5.3185,-5.3185,-5.3277,-5.3442,-5.3647,-5.3885,-5.4308,-5.4913,-5.55,-5.6033,-5.6565,-5.7097,-5.7611,-5.7776,-5.796,-5.7978,-5.7978,-5.7978,-5.7978,-5.7978,-5.7978,-5.7978,-5.7978,-5.7978,-5.7978,-5.7978,-5.7978,-5.7978,-5.7978,-5.7978,-5.7978,-5.7978,-5.7978,-5.7978,-5.7978,-5.7978,-5.7978,-5.7978,-5.7978,-5.7978,-5.7978,-5.7978,-5.7978,-5.7978,-5.7978,-5.7978,-5.7978,-5.7978,-5.7978,-5.7978,-5.7978,-4.8324,-4.8324,-4.8324,-4.8324,-4.8324,-4.8324,-4.8324,-4.8324,-4.8324,-4.8324,-4.8324,-4.8324,-4.8324,-4.8324,-4.8324,-4.8324,-4.8324,-4.8324,-4.8324,-4.8324,-4.8324,-4.8324,-4.8324,-4.8379,-4.871,-4.8948,-4.9738,-5.0508,-5.1316,-5.1646,-5.2013,-5.2472,-5.302,-5.3185,-5.3185,-5.3185,-5.3185,-5.3185,-5.3185,-5.3185,-5.3185,-5.3185,-5.3185,-5.3185,-5.3185,-5.3185,-5.3185,-5.3185,-5.3185,-5.3185,-5.3185,-5.3185,-5.3185,-5.3185,-5.3185,-5.3185,-5.3185,-5.3185,-5.3185,-5.3185,-5.3185,-5.3185,-5.3203,-5.3222,-5.383,-5.3867,-5.3867,-5.3995,-5.4032,-5.4252,-5.5005,-5.5647,-5.6069,-5.6547,-5.7079,-5.7611,-5.7813,-5.7886,-5.7978,-5.7978,-5.7978,-5.7978,-5.7978,-5.7978,-5.7978,-5.7978,-5.7978,-5.7978,-5.7978,-5.7978,-5.7978,-5.7978,-5.7978,-5.7978,-5.7978,-5.7978,-5.7978,-5.7978,-5.7978,-5.7978,-5.7978,-5.7978,-5.7978,-5.7978,-5.7978,-5.7978,-5.7978,-5.7978,-5.7978,-5.7978,-5.7978,-5.7978,-5.7978,-5.7978,-5.7978,-4.8324,-4.8324,-4.8324,-4.8324,-4.8324,-4.8324,-4.8324,-4.8324,-4.8324,-4.8324,-4.8324,-4.8324,-4.8324,-4.8324,-4.8324,-4.8324,-4.8324,-4.8324,-4.8324,-4.8324,-4.8324,-4.8324,-4.8398,-4.8508,-4.9187,-4.9921,-5.0674,-5.1408,-5.2142,-5.2344,-5.2619,-5.3093,-5.3185,-5.3185,-5.3185,-5.3185,-5.3185,-5.3185,-5.3185,-5.3185,-5.3185,-5.3185,-5.3185,-5.3185,-5.3185,-5.3185,-5.3185,-5.3185,-5.3185,-5.3185,-5.3185,-5.3185,-5.3185,-5.3185,-5.3185,-5.3185,-5.3185,-5.3185,-5.3185,-5.3185,-5.3185,-5.3203,-5.3261,-5.3647,-5.4271,-5.4528,-5.4509,-5.473,-5.4766,-5.5023,-5.5776,-5.6363,-5.6748,-5.7042,-5.7556,-5.7941,-5.796,-5.7978,-5.7978,-5.7978,-5.7978,-5.7978,-5.7978,-5.7978,-5.7978,-5.7978,-5.7978,-5.7978,-5.7978,-5.7978,-5.7978,-5.7978,-5.7978,-5.7978,-5.7978,-5.7978,-5.7978,-5.7978,-5.7978,-5.7978,-5.7978,-5.7978,-5.7978,-5.7978,-5.7978,-5.7978,-5.7978,-5.7978,-5.7978,-5.7978,-5.7978,-5.7978,-5.7978,-5.7978,-5.7978,-4.8324,-4.8324,-4.8324,-4.8324,-4.8324,-4.8324,-4.8324,-4.8324,-4.8324,-4.8324,-4.8324,-4.8324,-4.8324,-4.8324,-4.8324,-4.8324,-4.8324,-4.8324,-4.8324,-4.8324,-4.8324,-4.8324,-4.8655,-4.9315,-5.0251,-5.1004,-5.1628,-5.2197,-5.2637,-5.2858,-5.2983,-5.3185,-5.3185,-5.3185,-5.3185,-5.3185,-5.3185,-5.3185,-5.3185,-5.3185,-5.3185,-5.3185,-5.3185,-5.3185,-5.3185,-5.3185,-5.3185,-5.3185,-5.3185,-5.3185,-5.3185,-5.3185,-5.3185,-5.3185,-5.3185,-5.3185,-5.3185,-5.3185,-5.3185,-5.3332,-5.3387,-5.3442,-5.3683,-5.4271,-5.4803,-5.5207,-5.5482,-5.6161,-5.6216,-5.6235,-5.6785,-5.7244,-5.7629,-5.7629,-5.7941,-5.796,-5.7978,-5.7978,-5.7978,-5.7978,-5.7978,-5.7978,-5.7978,-5.7978,-5.7978,-5.7978,-5.7978,-5.7978,-5.7978,-5.7978,-5.7978,-5.7978,-5.7978,-5.7978,-5.7978,-5.7978,-5.7978,-5.7978,-5.7978,-5.7978,-5.7978,-5.7978,-5.7978,-5.7978,-5.7978,-5.7978,-5.7978,-5.7978,-5.7978,-5.7978,-5.7978,-5.7978,-5.7978,-5.7978,-5.7978]},{"header":{"parameterUnit":"m.s-1","parameterCategory":1,"la1":31.0,"la2":29.5877,"lo1":-88.7671,"lo2":-86.6584,"dy":0.0162,"dx":0.0185,"nx":115,"ny":88,"refTime":"2024-03-29T06:00:00:Z","depth":0,"parameterNumber":3,"parameterNumberName":"V-component_of_WINDS"},"data":[0.0,0.0,0.0,0.0,0.0,0.0,0.0,0.0,0.0,0.0,0.0,0.0,0.0,0.0,0.0,0.0,0.0,0.0,0.0,0.0,0.0,0.0,0.0,0.0,0.0,0.0,0.0,0.0,0.0,0.0,0.0,0.0,0.0,0.0,0.0,0.0,0.0,0.0,0.0,0.0,0.0,0.0,0.0,0.0,0.0,0.0,0.0,0.0,0.0,0.0,0.0,0.0,0.0,0.0,0.0,0.0,0.0,0.0,0.0,0.0,0.0,0.0,0.0,0.0,0.0,0.0,0.0,0.0,0.0,0.0,0.0,0.0,0.0,0.0,0.0,0.0,0.0,0.0,0.0,0.0,0.0,0.0,0.0,0.0,0.0,0.0,0.0,0.0,0.0,0.0,0.0,0.0,0.0,0.0,0.0,0.0,0.0,0.0,0.0,0.0,0.0,0.0,0.0,0.0,0.0,0.0,0.0,0.0,0.0,0.0,0.0,0.0,0.0,0.0,0.0,0.0,0.0,0.0,0.0,0.0,0.0,0.0,0.0,0.0,0.0,0.0,0.0,0.0,0.0,0.0,0.0,0.0,0.0,0.0,0.0,0.0,0.0,0.0,0.0,0.0,0.0,0.0,0.0,0.0,0.0,0.0,0.0,0.0,0.0,0.0,0.0,0.0,0.0,0.0,0.0,0.0,0.0,0.0,0.0,0.0,0.0,0.0,0.0,0.0,0.0,0.0,0.0,0.0,0.0,0.0,0.0,0.0,0.0,0.0,0.0,0.0,0.0,0.0,0.0,0.0,0.0,0.0,0.0,0.0,0.0,0.0,0.0,0.0,0.0,0.0,0.0,0.0,0.0,0.0,0.0,0.0,0.0,0.0,0.0,0.0,0.0,0.0,0.0,0.0,0.0,0.0,0.0,0.0,0.0,0.0,0.0,0.0,0.0,0.0,0.0,0.0,0.0,0.0,0.0,0.0,0.0,0.0,0.0,0.0,0.0,0.0,0.0,0.0,0.0,0.0,0.0,0.0,0.0,0.0,0.0,0.0,0.0,0.0,0.0,0.0,0.0,0.0,0.0,0.0,0.0,0.0,0.0,0.0,0.0,0.0,0.0,0.0,0.0,0.0,0.0,0.0,0.0,0.0,0.0,0.0,0.0,0.0,0.0,0.0,0.0,0.0,0.0,0.0,0.0,0.0,0.0,0.0,0.0,0.0,0.0,0.0,0.0,0.0,0.0,0.0,0.0,0.0,0.0,0.0,0.0,0.0,0.0,0.0,0.0,0.0,0.0,0.0,0.0,0.0,0.0,0.0,0.0,0.0,0.0,0.0,0.0,0.0,0.0,0.0,0.0,0.0,0.0,0.0,0.0,0.0,0.0,0.0,0.0,0.0,0.0,0.0,0.0,0.0,0.0,0.0,0.0,0.0,0.0,0.0,0.0,0.0,0.0,0.0,0.0,0.0,0.0,0.0,0.0,0.0,0.0,0.0,0.0,0.0,0.0,0.0,0.0,0.0,0.0,0.0,0.0,0.0,0.0,0.0,0.0,0.0,0.0,0.0,0.0,0.0,0.0,0.0,0.0,0.0,0.0,0.0,0.0,0.0,0.0,0.0,0.0,0.0,0.0,0.0,0.0,0.0,0.0,0.0,0.0,0.0,0.0,0.0,0.0,0.0,0.0,0.0,0.0,0.0,0.0,0.0,0.0,0.0,0.0,0.0,0.0,0.0,0.0,0.0,0.0,0.0,0.0,0.0,0.0,0.0,0.0,0.0,0.0,0.0,0.0,0.0,0.0,0.0,0.0,0.0,0.0,0.0,0.0,0.0,0.0,0.0,0.0,0.0,0.0,0.0,0.0,0.0,0.0,0.0,0.0,0.0,0.0,0.0,0.0,0.0,0.0,0.0,0.0,0.0,0.0,0.0,0.0,0.0,0.0,0.0,0.0,0.0,0.0,0.0,0.0,0.0,0.0,0.0,0.0,0.0,0.0,0.0,0.0,0.0,0.0,0.0,0.0,0.0,0.0,0.0,0.0,0.0,0.0,0.0,0.0,0.0,0.0,0.0,0.0,0.0,0.0,0.0,0.0,0.0,0.0,0.0,0.0,0.0,0.0,0.0,0.0,0.0,0.0,0.0,0.0,0.0,0.0,0.0,0.0,0.0,0.0,0.0,0.0,0.0,0.0,0.0,0.0,0.0,0.0,0.0,0.0,0.0,0.0,0.0,0.0,0.0,0.0,0.0,0.0,0.0,0.0,0.0,0.0,0.0,0.0,0.0,0.0,0.0,0.0,0.0,0.0,0.0,0.0,0.0,0.0,0.0,0.0,0.0,0.0,0.0,0.0,0.0,0.0,0.0,0.0,0.0,0.0,0.0,0.0,0.0,0.0,0.0,0.0,0.0,0.0,0.0,0.0,0.0,0.0,0.0,0.0,0.0,0.0,0.0,0.0,0.0,0.0,0.0,0.0,0.0,0.0,0.0,0.0,0.0,0.0,0.0,0.0,0.0,0.0,0.0,0.0,0.0,0.0,0.0,0.0,0.0,0.0,0.0,0.0,0.0,0.0,0.0,0.0,0.0,0.0,0.0,0.0,0.0,0.0,0.0,0.0,0.0,0.0,0.0,0.0,0.0,0.0,0.0,0.0,0.0,0.0,0.0,0.0,0.0,0.0,0.0,0.0,0.0,0.0,0.0,0.0,0.0,0.0,0.0,0.0,0.0,0.0,0.0,0.0,0.0,0.0,0.0,0.0,0.0,0.0,0.0,0.0,0.0,0.0,0.0,0.0,0.0,0.0,0.0,0.0,0.0,0.0,0.0,0.0,0.0,0.0,0.0,0.0,0.0,0.0,0.0,0.0,0.0,0.0,0.0,0.0,0.0,0.0,0.0,0.0,0.0,0.0,0.0,0.0,0.0,0.0,0.0,0.0,0.0,0.0,0.0,0.0,0.0,0.0,0.0,0.0,0.0,0.0,0.0,0.0,0.0,0.0,0.0,0.0,0.0,0.0,0.0,0.0,0.0,0.0,0.0,0.0,0.0,0.0,0.0,0.0,0.0,0.0,0.0,0.0,0.0,0.0,0.0,0.0,0.0,0.0,0.0,0.0,0.0,0.0,0.0,0.0,0.0,0.0,0.0,0.0,0.0,0.0,0.0,0.0,0.0,0.0,0.0,0.0,0.0,0.0,0.0,0.0,0.0,0.0,0.0,0.0,0.0,0.0,0.0,0.0,0.0,0.0,0.0,0.0,0.0,0.0,0.0,0.0,0.0,0.0,0.0,0.0,0.0,0.0,0.0,0.0,0.0,0.0,0.0,0.0,0.0,0.0,0.0,0.0,0.0,0.0,0.0,0.0,0.0,0.0,0.0,0.0,0.0,0.0,0.0,0.0,0.0,0.0,0.0,0.0,0.0,0.0,0.0,0.0,0.0,0.0,0.0,0.0,0.0,0.0,0.0,0.0,0.0,0.0,0.0,0.0,0.0,0.0,0.0,0.0,0.0,0.0,0.0,0.0,0.0,0.0,0.0,0.0,0.0,0.0,0.0,0.0,0.0,0.0,0.0,0.0,0.0,0.0,0.0,0.0,0.0,0.0,0.0,0.0,0.0,0.0,0.0,0.0,0.0,0.0,0.0,0.0,0.0,0.0,0.0,0.0,0.0,0.0,0.0,0.0,0.0,0.0,0.0,0.0,0.0,0.0,0.0,0.0,0.0,0.0,0.0,0.0,0.0,0.0,0.0,0.0,0.0,0.0,0.0,0.0,0.0,0.0,0.0,0.0,0.0,0.0,0.0,0.0,0.0,0.0,0.0,0.0,0.0,0.0,0.0,0.0,0.0,0.0,0.0,0.0,0.0,0.0,0.0,0.0,0.0,0.0,0.0,0.0,0.0,0.0,0.0,0.0,0.0,0.0,0.0,0.0,0.0,0.0,0.0,0.0,0.0,0.0,0.0,0.0,0.0,0.0,0.0,0.0,0.0,0.0,0.0,0.0,0.0,0.0,0.0,0.0,0.0,0.0,0.0,0.0,0.0,0.0,0.0,0.0,0.0,0.0,0.0,0.0,0.0,0.0,0.0,0.0,0.0,0.0,0.0,0.0,0.0,0.0,0.0,0.0,0.0,0.0,0.0,0.0,0.0,0.0,0.0,0.0,0.0,0.0,0.0,0.0,0.0,0.0,0.0,0.0,0.0,0.0,0.0,0.0,0.0,0.0,0.0,0.0,0.0,0.0,0.0,0.0,0.0,0.0,0.0,0.0,0.0,0.0,0.0,0.0,0.0,-0.6587,0.0,0.0,0.0,0.0,0.0,0.0,0.0,0.0,0.0,0.0,0.0,0.0,0.0,0.0,0.0,0.0,0.0,0.0,0.0,0.0,0.0,0.0,0.0,0.0,0.0,0.0,0.0,0.0,0.0,0.0,0.0,0.0,0.0,0.0,0.0,0.0,0.0,0.0,0.0,0.0,0.0,0.0,0.0,0.0,0.0,0.0,0.0,0.0,0.0,0.0,0.0,0.0,0.0,0.0,0.0,0.0,0.0,0.0,0.0,0.0,0.0,0.0,0.0,0.0,0.0,0.0,0.0,0.0,0.0,0.0,0.0,0.0,0.0,0.0,0.0,0.0,0.0,0.0,0.0,0.0,0.0,0.0,0.0,0.0,0.0,0.0,0.0,0.0,0.0,0.0,0.0,0.0,0.0,0.0,0.0,0.0,0.0,0.0,0.0,0.0,0.0,0.0,0.0,0.0,0.0,0.0,0.0,0.0,0.0,0.0,-0.491,-0.5109,-0.5444,-0.578,-0.6183,0.0,0.0,0.0,0.0,0.0,0.0,0.0,0.0,0.0,0.0,0.0,0.0,0.0,0.0,0.0,0.0,0.0,0.0,0.0,0.0,0.0,0.0,0.0,0.0,0.0,0.0,0.0,0.0,0.0,0.0,0.0,0.0,0.0,0.0,0.0,0.0,0.0,0.0,0.0,0.0,0.0,0.0,0.0,0.0,0.0,0.0,0.0,0.0,0.0,0.0,0.0,0.0,0.0,0.0,0.0,0.0,0.0,0.0,0.0,0.0,0.0,0.0,0.0,0.0,0.0,0.0,0.0,0.0,0.0,0.0,0.0,0.0,0.0,0.0,0.0,0.0,0.0,0.0,0.0,0.0,0.0,0.0,0.0,0.0,0.0,0.0,0.0,0.0,0.0,0.0,0.0,0.0,0.0,0.0,0.0,0.0,0.0,0.0,0.0,0.0,0.0,0.0,0.0,0.0,0.0,0.0,0.0,0.0,0.0,0.0,0.0,0.0,-0.5044,-0.5444,-0.5912,0.0,0.0,0.0,0.0,0.0,0.0,0.0,0.0,0.0,0.0,0.0,0.0,0.0,0.0,0.0,0.0,0.0,0.0,0.0,0.0,0.0,0.0,0.0,0.0,0.0,0.0,0.0,0.0,0.0,0.0,0.0,0.0,0.0,0.0,0.0,0.0,0.0,0.0,0.0,0.0,0.0,0.0,0.0,0.0,0.0,0.0,0.0,0.0,0.0,0.0,0.0,0.0,0.0,0.0,0.0,0.0,0.0,0.0,0.0,0.0,0.0,0.0,0.0,0.0,0.0,0.0,0.0,0.0,0.0,0.0,0.0,0.0,0.0,0.0,0.0,0.0,0.0,0.0,0.0,0.0,0.0,0.0,0.0,0.0,0.0,0.0,0.0,0.0,0.0,0.0,0.0,0.0,0.0,0.0,0.0,0.0,0.0,0.0,0.0,0.0,0.0,0.0,0.0,0.0,0.0,0.0,0.0,0.0,0.0,0.0,-0.3834,-0.3902,-0.4505,0.0,-0.5845,0.0,0.0,0.0,0.0,0.0,0.0,0.0,0.0,0.0,0.0,0.0,0.0,0.0,0.0,0.0,0.0,0.0,0.0,0.0,0.0,0.0,0.0,0.0,0.0,0.0,0.0,0.0,0.0,0.0,0.0,0.0,0.0,0.0,0.0,0.0,0.0,0.0,0.0,0.0,0.0,0.0,0.0,0.0,0.0,0.0,0.0,0.0,0.0,0.0,0.0,0.0,0.0,0.0,0.0,0.0,0.0,0.0,0.0,0.0,0.0,0.0,0.0,0.0,0.0,0.0,0.0,0.0,0.0,0.0,0.0,0.0,0.0,0.0,0.0,0.0,0.0,0.0,0.0,0.0,0.0,0.0,0.0,0.0,0.0,0.0,0.0,0.0,0.0,0.0,0.0,0.0,0.0,0.0,0.0,0.0,0.0,0.0,0.0,0.0,0.0,0.0,0.0,0.0,0.0,0.0,0.0,0.0,0.0,0.0,0.0,-0.3366,-0.3767,-0.4438,-0.5042,0.0,0.0,0.0,0.0,0.0,0.0,0.0,0.0,0.0,0.0,0.0,0.0,0.0,0.0,0.0,0.0,0.0,0.0,0.0,0.0,0.0,0.0,0.0,0.0,0.0,0.0,0.0,0.0,0.0,0.0,0.0,0.0,0.0,0.0,0.0,0.0,0.0,0.0,0.0,0.0,0.0,0.0,0.0,0.0,0.0,0.0,0.0,0.0,0.0,0.0,0.0,0.0,0.0,0.0,0.0,0.0,0.0,0.0,0.0,0.0,0.0,0.0,0.0,0.0,0.0,0.0,0.0,0.0,0.0,0.0,0.0,0.0,0.0,0.0,0.0,0.0,0.0,0.0,0.0,0.0,0.0,0.0,0.0,0.0,0.0,0.0,0.0,0.0,0.0,0.0,0.0,0.0,0.0,0.0,0.0,0.0,0.0,0.0,0.0,0.0,0.0,0.0,0.0,0.0,0.0,0.0,0.0,0.0,0.0,0.0,-0.2559,-0.303,-0.3768,-0.4304,-0.4774,-0.5245,0.0,0.0,0.0,0.0,0.0,0.0,0.0,0.0,0.0,0.0,0.0,0.0,0.0,0.0,0.0,0.0,0.0,0.0,0.0,0.0,0.0,0.0,0.0,0.0,0.0,0.0,0.0,0.0,0.0,0.0,0.0,0.0,0.0,0.0,0.0,0.0,0.0,0.0,0.0,0.0,0.0,0.0,0.0,0.0,0.0,0.0,0.0,0.0,0.0,0.0,0.0,0.0,0.0,0.0,0.0,0.0,0.0,0.0,0.0,0.0,0.0,0.0,0.0,0.0,0.0,0.0,0.0,0.0,0.0,0.0,0.0,0.0,0.0,0.0,0.0,0.0,0.0,0.0,0.0,0.0,0.0,0.0,0.0,0.0,0.0,0.0,0.0,0.0,0.0,0.0,0.0,0.0,0.0,0.0,0.0,0.0,0.0,0.0,0.0,0.0,0.0,0.0,0.0,0.0,0.0,0.0,0.0,0.0,-0.1683,-0.2357,-0.303,-0.3768,-0.3834,-0.4171,0.0,0.0,0.0,0.0,0.0,0.0,0.0,0.0,0.0,0.0,0.0,0.0,0.0,0.0,0.0,0.0,0.0,0.0,0.0,0.0,0.0,0.0,0.0,0.0,0.0,0.0,0.0,0.0,0.0,0.0,0.0,0.0,0.0,0.0,0.0,0.0,0.0,0.0,0.0,0.0,0.0,0.0,0.0,0.0,0.0,0.0,0.0,0.0,0.0,0.0,0.0,0.0,0.0,0.0,0.0,0.0,0.0,0.0,0.0,0.0,0.0,0.0,0.0,0.0,0.0,0.0,0.0,0.0,0.0,0.0,0.0,0.0,0.0,0.0,0.0,0.0,0.0,0.0,0.0,0.0,0.0,0.0,0.0,0.0,0.0,0.0,0.0,0.0,0.0,0.0,0.0,0.0,0.0,0.0,0.0,0.0,0.0,0.0,0.0,0.0,0.0,0.0,0.0,0.0,0.0,0.0,0.0,0.0,0.0,-0.1346,-0.202,-0.2626,-0.3097,-0.3566,-0.4037,0.0,0.0,0.0,0.0,0.0,0.0,0.0,0.0,0.0,0.0,0.0,0.0,0.0,0.0,0.0,0.0,0.0,0.0,0.0,0.0,0.0,0.0,0.0,0.0,0.0,0.0,0.0,0.0,0.0,0.0,0.0,0.0,0.0,0.0,0.0,0.0,0.0,0.0,0.0,0.0,0.0,0.0,0.0,0.0,0.0,0.0,0.0,0.0,0.0,0.0,0.0,0.0,0.0,0.0,0.0,0.0,0.0,0.0,0.0,0.0,0.0,0.0,0.0,0.0,0.0,0.0,0.0,0.0,0.0,0.0,0.0,0.0,0.0,0.0,0.0,0.0,0.0,0.0,0.0,0.0,0.0,0.0,0.0,0.0,0.0,0.0,0.0,0.0,0.0,0.0,0.0,0.0,0.0,0.0,0.0,0.0,0.0,0.0,0.0,0.0,0.0,0.0,0.0,0.0,0.0,0.0,0.0,0.0,0.0,-0.1144,0.0,-0.2155,-0.2559,-0.3096,-0.3701,0.0,0.0,0.0,0.0,0.0,0.0,0.0,0.0,0.0,0.0,0.0,0.0,0.0,0.0,0.0,0.0,0.0,0.0,0.0,0.0,0.0,0.0,0.0,0.0,0.0,0.0,0.0,0.0,0.0,0.0,0.0,0.0,0.0,0.0,0.0,0.0,0.0,0.0,0.0,0.0,0.0,0.0,0.0,0.0,0.0,0.0,0.0,0.0,0.0,0.0,0.0,0.0,0.0,0.0,0.0,0.0,0.0,0.0,0.0,0.0,0.0,0.0,0.0,0.0,0.0,0.0,0.0,0.0,0.0,0.0,0.0,0.0,0.0,0.0,0.0,0.0,0.0,0.0,0.0,0.0,0.0,0.0,0.0,0.0,0.0,0.0,0.0,0.0,0.0,0.0,0.0,0.0,0.0,0.0,0.0,0.0,0.0,0.0,0.0,0.0,0.0,0.0,0.0,0.0,0.0,0.0,0.0,0.0,-0.0673,-0.1077,-0.1414,-0.1751,-0.2222,-0.2559,-0.3029,0.0,0.0,0.0,0.0,0.0,0.0,0.0,0.0,0.0,0.0,0.0,0.0,0.0,0.0,0.0,0.0,0.0,0.0,0.0,0.0,0.0,0.0,0.0,0.0,0.0,0.0,0.0,0.0,0.0,0.0,0.0,0.0,0.0,0.0,0.0,0.0,0.0,0.0,0.0,0.0,0.0,0.0,0.0,0.0,0.0,0.0,0.0,0.0,0.0,0.0,0.0,0.0,0.0,0.0,0.0,0.0,0.0,0.0,0.0,0.0,0.0,0.0,0.0,0.0,0.0,0.0,0.0,0.0,0.0,0.0,0.0,0.0,0.0,0.0,0.0,0.0,0.0,0.0,0.0,0.0,0.0,0.0,0.0,0.0,0.0,0.0,0.0,0.0,0.0,0.0,0.0,0.0,0.0,0.0,0.0,0.0,0.0,0.0,0.0,0.0,0.0,0.0,0.0,0.0,0.0,0.0,0.0,0.0,0.0,-0.0673,-0.0808,-0.1144,-0.1751,-0.2155,-0.2558,0.0,0.0,0.0,0.0,0.0,0.0,0.0,0.0,0.0,0.0,0.0,0.0,0.0,0.0,0.0,0.0,0.0,0.0,0.0,0.0,0.0,0.0,0.0,0.0,0.0,0.0,0.0,0.0,0.0,0.0,0.0,0.0,0.0,0.0,0.0,0.0,0.0,0.0,0.0,0.0,0.0,0.0,0.0,0.0,0.0,0.0,0.0,0.0,0.0,0.0,0.0,0.0,0.0,0.0,0.0,0.0,0.0,0.0,0.0,0.0,0.0,0.0,0.0,0.0,0.0,0.0,0.0,0.0,0.0,0.0,0.0,0.0,0.0,0.0,0.0,0.0,0.0,0.0,0.0,0.0,0.0,0.0,0.0,0.0,0.0,0.0,0.0,0.0,0.0,0.0,0.0,0.0,0.0,0.0,0.0,0.0,0.0,0.0,0.0,0.0,0.0,0.0,0.0,0.0,0.0,0.0,0.0,0.0,0.0,0.0067,-0.0201,-0.0604,-0.1203,-0.1603,-0.1999,-0.2453,0.0,0.0,0.0,0.0,0.0,0.0,0.0,0.0,0.0,0.0,0.0,0.0,0.0,0.0,0.0,0.0,0.0,0.0,0.0,0.0,0.0,0.0,0.0,0.0,0.0,0.0,0.0,0.0,0.0,0.0,0.0,0.0,0.0,0.0,0.0,0.0,0.0,0.0,0.0,0.0,0.0,0.0,0.0,0.0,0.0,0.0,0.0,0.0,0.0,0.0,0.0,0.0,0.0,0.0,0.0,0.0,0.0,0.0,0.0,0.0,0.0,0.0,0.0,0.0,0.0,0.0,0.0,0.0,0.0,0.0,0.0,0.0,0.0,0.0,0.0,0.0,0.0,0.0,0.0,0.0,0.0,0.0,0.0,0.0,0.0,0.0,0.0,0.0,0.0,0.0,0.0,0.0,0.0,0.0,0.0,0.0,0.0,0.0,0.0,0.0,0.0,0.0,0.0,0.0,0.0,0.0,0.0,0.0,0.1053,0.04,-0.0067,-0.0461,-0.0856,-0.1373,0.0,0.0,0.0,0.0,0.0,0.0,0.0,0.0,0.0,0.0,0.0,0.0,0.0,0.0,0.0,0.0,0.0,0.0,0.0,0.0,0.0,0.0,0.0,0.0,0.0,0.0,0.0,0.0,0.0,0.0,0.0,0.0,0.0,0.0,0.0,0.0,0.0,0.0,0.0,0.0,0.0,0.0,0.0,0.0,0.0,0.0,0.0,0.0,0.0,0.0,0.0,0.0,0.0,0.0,0.0,0.0,0.0,0.0,0.0,0.0,0.0,0.0,0.0,0.0,0.0,0.0,0.0,0.0,0.0,0.0,0.0,0.0,0.0,0.0,0.0,0.0,0.0,0.0,0.0,0.0,0.0,0.0,0.0,0.0,0.0,0.0,0.0,0.0,0.0,0.0,0.0,0.0,0.0,0.0,0.0,0.0,0.0,0.0,0.0,0.0,0.0,0.0,0.0,0.0,0.0,0.0,0.0,0.0,0.0,0.1362,0.1171,0.0716,-0.0065,-0.0259,-0.0647,0.0,0.0,0.0,0.0,0.0,0.0,0.0,0.0,0.0,0.0,0.0,0.0,0.0,0.0,0.0,0.0,0.0,0.0,0.0,0.0,0.0,0.0,0.0,0.0,0.0,0.0,0.0,0.0,0.0,0.0,0.0,0.0,0.0,0.0,0.0,0.0,0.0,0.0,0.0,0.0,0.0,0.0,0.0,0.0,0.0,0.0,0.0,0.0,0.0,0.0,0.0,0.0,0.0,0.0,0.0,0.0,0.0,0.0,0.0,0.0,0.0,0.0,0.0,0.0,0.0,0.0,0.0,0.0,0.0,0.0,0.0,0.0,0.0,0.0,0.0,0.0,0.0,0.0,0.0,0.0,0.0,0.0,0.0,0.0,0.0,0.0,0.0,0.0,0.0,0.0,0.0,0.0,0.0,0.0,0.0,0.0,0.0,0.0,0.0,0.0,0.0,0.0,0.0,0.0,0.0,0.0,0.0,0.0,0.2364,0.2108,0.1968,0.1582,0.0886,0.0446,-0.0064,0.0,0.0,0.0,0.0,0.0,0.0,0.0,0.0,0.0,0.0,0.0,0.0,0.0,0.0,0.0,0.0,0.0,0.0,0.0,0.0,0.0,0.0,0.0,0.0,0.0,0.0,0.0,0.0,0.0,0.0,0.0,0.0,0.0,0.0,0.0,0.0,0.0,0.0,0.0,0.0,0.0,0.0,0.0,0.0,0.0,0.0,0.0,0.0,0.0,0.0,0.0,0.0,0.0,0.0,0.0,0.0,0.0,0.0,0.0,0.0,0.0,0.0,0.0,0.0,0.0,0.0,0.0,0.0,0.0,0.0,0.0,0.0,0.0,0.0,0.0,0.0,0.0,0.0,0.0,0.0,0.0,0.0,0.0,0.0,0.0,0.0,0.0,0.0,0.0,0.0,0.0,0.0,0.0,0.0,0.0,0.0,0.0,0.0,0.0,0.0,0.0,0.0,0.0,0.0,0.0,0.0,0.0,0.0,0.3023,0.2959,0.2733,0.2405,0.2097,0.1125,0.0438,0.0,0.0,0.0,0.0,0.0,0.0,0.0,0.0,0.0,0.0,0.0,0.0,0.0,0.0,0.0,0.0,0.0,0.0,0.0,0.0,0.0,0.0,0.0,0.0,0.0,0.0,0.0,0.0,0.0,0.0,0.0,0.0,0.0,0.0,0.0,0.0,0.0,0.0,0.0,0.0,0.0,0.0,0.0,0.0,0.0,0.0,0.0,0.0,0.0,0.0,0.0,0.0,0.0,0.0,0.0,0.0,0.0,0.0,0.0,0.0,0.0,0.0,0.0,0.0,0.0,0.0,0.0,0.0,0.0,0.0,0.0,0.0,0.0,0.0,0.0,0.0,0.0,0.0,0.0,0.0,0.0,0.0,0.0,0.0,0.0,0.0,0.0,0.0,0.0,0.0,0.0,0.0,0.0,0.0,0.0,0.0,0.0,0.0,0.0,0.0,0.0,0.0,0.0,0.0,0.0,0.0,0.0,0.0,0.2977,0.2976,0.2904,0.2837,0.2775,0.1795,0.1115,0.0,0.0,0.0,0.0,0.0,0.0,0.0,0.0,0.0,0.0,0.0,0.0,0.0,0.0,0.0,0.0,0.0,0.0,0.0,0.0,0.0,0.0,0.0,0.0,0.0,0.0,0.0,0.0,0.0,0.0,0.0,0.0,0.0,0.0,0.0,0.0,0.0,0.0,0.0,0.0,0.0,0.0,0.0,0.0,0.0,0.0,0.0,0.0,-0.3632,0.0,0.0,0.0,0.0,0.0,0.0,0.0,0.0,0.0,0.0,0.0,0.0,0.0,0.0,0.0,0.0,0.0,0.0,0.0,0.0,0.0,0.0,0.0,0.0,0.0,0.0,0.0,0.0,0.0,0.0,0.0,0.0,0.0,0.0,0.0,0.0,0.0,0.0,0.0,0.0,0.0,0.0,0.0,0.0,0.0,0.0,0.0,0.0,0.0,0.0,0.0,0.0,0.0,0.0,0.0,0.0,0.0,0.0,0.0,0.3887,0.3885,0.3576,0.3453,0.3391,0.2591,0.1975,0.0,0.0,0.0,0.0,0.0,0.0,0.0,0.0,0.0,0.0,0.0,0.0,0.0,0.0,0.0,0.0,0.0,0.0,0.0,0.0,0.0,0.0,0.0,0.0,0.0,0.0,0.0,0.0,0.0,0.0,0.0,0.0,0.0,0.0,0.0,0.0,0.0,0.0,0.0,0.0,0.0,0.0,0.0,0.0,0.0,0.0,0.0,0.0,0.0,0.0,0.0,0.0,0.0,0.0,0.0,0.0,0.0,0.0,0.0,0.0,0.0,0.0,0.0,0.0,0.0,0.0,0.0,0.0,0.0,0.0,0.0,0.0,0.0,0.0,0.0,0.0,0.0,0.0,0.0,0.0,0.0,0.0,0.0,0.0,0.0,0.0,0.0,0.0,0.0,0.0,0.0,0.0,0.0,0.0,0.0,0.0,0.0,0.0,0.0,0.0,0.0,0.0,0.0,0.0,0.0,0.0,0.0,0.4935,0.4935,0.4872,0.4315,0.4067,0.4067,0.3453,0.2899,0.2281,0.0,0.0,0.0,0.0,0.0,0.0,0.0,0.0,0.0,0.0,0.0,0.0,0.0,0.0,0.0,0.0,0.0,0.0,0.0,0.0,0.0,0.0,0.0,0.0,0.0,0.0,0.0,0.0,0.0,0.0,0.0,0.0,0.0,0.0,0.0,0.0,0.0,0.0,-0.2083,-0.1481,0.0,0.0,0.0,0.0,0.0,0.0,0.0,0.0,-0.269,0.0,0.0,0.0,0.0,0.0,0.0,0.0,0.0,0.0,0.0,0.0,0.0,0.0,0.0,0.0,0.0,0.0,0.0,0.0,0.0,0.0,0.0,0.0,0.0,0.0,0.0,0.0,0.0,0.0,0.0,0.0,0.0,0.0,0.0,0.0,0.0,0.0,0.0,0.0,0.0,0.0,0.0,0.0,0.0,0.0,0.0,0.0,0.0,0.0,0.0,0.0,0.0,0.0,0.0,0.0,0.0,0.4935,0.4935,0.4935,0.4872,0.481,0.4749,0.4749,0.413,0.3698,0.3513,0.0,0.0,0.0,0.0,0.0,0.0,0.0,0.0,0.0,0.0,0.0,0.0,0.0,0.0,0.0,0.0,0.0,0.0,0.0,0.0,0.0,0.0,0.0,0.0,0.0,0.0,0.0,0.0,0.0,0.0,0.0,0.0,0.0,0.0,0.0,0.0,0.0,0.0,0.0,-0.1144,-0.1077,0.0,0.0,0.0,0.0,0.0,0.0,0.0,0.0,-0.1481,0.0,0.0,0.0,0.0,0.0,0.0,0.0,0.0,0.0,0.0,0.0,0.0,0.0,0.0,0.0,0.0,0.0,0.0,0.0,0.0,0.0,0.0,0.0,0.0,0.0,0.0,0.0,0.0,0.0,0.0,0.0,0.0,0.0,0.0,0.0,0.0,0.0,0.0,0.0,0.0,0.0,0.0,0.0,0.0,0.0,0.0,0.0,0.0,0.0,0.0,0.0,0.0,0.0,0.0,0.0,0.5916,0.5919,0.5919,0.5916,0.5794,0.5607,0.5425,0.493,0.4622,0.0,0.0,0.0,0.0,0.0,0.0,0.0,0.0,0.0,0.0,0.0,0.0,0.0,0.0,0.0,0.0,0.0,0.0,0.0,0.0,0.0,0.0,0.0,0.0,0.0,0.0,0.0,0.0,0.0,0.0,0.0,0.0,0.0,0.0,0.0,0.0,0.0,0.0,0.0,0.0,-0.0202,0.0067,0.0067,0.0,0.0,0.0,0.0,0.0,0.0,-0.0404,-0.0606,0.0,0.0,0.0,0.0,0.0,0.0,0.0,0.0,0.0,0.0,0.0,0.0,0.0,0.0,0.0,0.0,0.0,0.0,0.0,0.0,0.0,0.0,0.0,0.0,0.0,0.0,0.0,0.0,0.0,0.0,0.0,0.0,0.0,0.0,0.0,0.0,0.0,0.0,0.0,0.0,0.0,0.0,0.0,0.0,0.0,0.0,0.0,0.0,0.0,0.0,0.0,0.0,0.0,0.0,0.0,0.7023,0.7023,0.7023,0.7023,0.665,0.6344,0.6101,0.5792,0.5421,0.0,0.0,0.0,0.0,0.0,0.0,0.0,0.0,0.0,0.0,0.0,0.0,0.0,0.0,0.0,0.0,0.0,0.0,0.0,0.0,0.0,0.0,0.0,0.0,0.0,0.0,0.0,0.0,0.0,0.0,0.0,0.0,0.0,0.0,0.0,0.0,0.0,0.0,0.0,0.0,0.0,0.1077,0.1077,0.1077,0.0,0.0,0.0,0.0,0.0606,0.0404,0.0,0.0,0.0,0.0,0.0,0.0,0.0,0.0,0.0,0.0,0.0,0.0,0.0,0.0,0.0,0.0,0.0,0.0,0.0,0.0,0.0,0.0,0.0,0.0,0.0,0.0,0.0,0.0,0.0,0.0,0.0,0.0,0.0,0.0,0.0,0.0,0.0,0.0,0.0,0.0,0.0,0.0,0.0,0.0,0.0,0.0,0.0,0.0,0.0,0.0,0.0,0.0,0.0,0.0,0.0,0.0,0.7324,0.7327,0.7327,0.7327,0.7023,0.6839,0.6778,0.6467,0.616,0.0,0.0,0.0,0.0,0.0,0.0,0.0,0.0,0.0,0.0,0.0,0.0,0.0,0.0,0.0,0.0,0.0,0.0,0.0,0.0,0.0,0.0,0.0,0.0,0.0,0.0,0.0,0.0,0.0,0.0,0.0,0.0,0.0,0.0,0.0,0.0,0.0,0.0,0.0,0.0,0.0,0.1077,0.1077,0.1077,0.1077,0.0,0.0,0.101,0.101,0.101,0.0,0.0,0.0,0.0,0.0,0.0,0.0,0.0,0.0,0.0,0.0,0.0,0.0,0.0,0.0,0.0,0.0,0.0,0.0,0.0,0.0,0.0,0.0,0.0,0.0,0.0,0.0,0.0,0.0,0.0,0.0,0.0,0.0,0.0,0.0,0.0,0.0,0.0,0.0,0.0,0.0,0.0,0.0,0.0,0.0,0.0,0.0,0.0,0.0,0.0,0.0,0.0,0.0,0.0,0.0,0.8241,0.8241,0.8244,0.8207,0.8076,0.7952,0.7741,0.7495,0.7194,0.6836,0.0,0.0,0.0,0.0,0.0,0.0,0.0,0.0,0.0,0.0,0.0,0.0,0.0,0.0,0.0,0.0,0.0,0.0,0.0,0.0,0.0,0.0,0.0,0.0,0.0,0.0,0.0,0.0,0.0,0.0,0.0,0.0,0.0,0.0,0.0,0.0,0.0,0.0,0.0,0.0,0.0,0.0,0.2287,0.2287,0.0,0.0,0.0,0.2287,0.2287,0.0,0.0,0.0,0.0,0.0,0.0,0.0,0.0,0.0,0.0,0.0,0.0,0.0,0.0,0.0,0.0,0.0,0.0,0.0,0.0,0.0,0.0,0.0,0.0,0.0,0.0,0.0,0.0,0.0,0.0,0.0,0.0,0.0,0.0,0.0,0.0,0.0,0.0,0.0,0.0,0.0,0.0,0.0,0.0,0.0,0.0,0.0,0.0,0.0,0.0,0.0,0.0,0.0,0.0,0.0,0.0,0.0,0.9169,0.9134,0.9061,0.8897,0.8716,0.849,0.8102,0.7869,0.0,0.0,0.0,0.0,0.0,0.0,0.0,0.0,0.0,0.0,0.0,0.0,0.0,0.0,0.0,0.0,0.0,0.0,0.0,0.0,0.0,0.0,0.0,0.0,0.0,0.0,0.0,0.1049,0.0,0.0,0.0,0.0,0.0,0.0,0.0,0.0,0.0,0.0,0.0,0.0,0.0,0.0,0.3227,0.3227,0.3227,0.3227,0.0,0.0,0.3227,0.3227,0.3227,0.3093,0.0,0.0,0.0,0.0,0.0,0.0,0.0,0.0,0.0,0.0,0.0,0.0,0.0,0.0,0.0,0.0,0.0,0.0,0.0,0.0,0.0,0.0,0.0,0.0,0.0,0.0,0.0,0.0,0.0,0.0,0.0,0.0,0.0,0.0,0.0,0.0,0.0,0.0,0.0,0.0,0.0,0.0,0.0,0.0,0.0,0.0,0.0,0.0,0.0,0.0,0.0,0.0,0.0,0.0,0.9916,0.9912,0.9831,0.9754,0.9682,0.9101,0.8751,0.8742,0.8512,0.8215,0.0,0.0,0.0,0.0,0.0,0.0,0.0,0.0,0.0,0.0,0.0,0.0,0.0,0.0,0.0,0.0,0.0,0.0,0.0,0.0,0.0,0.0,0.0,0.0,0.0,0.0,0.0,0.0,0.0,0.0,0.0,0.0,0.0,0.0,0.0,0.0,0.0,0.0,0.0,0.0,0.0,0.3227,0.3227,0.3227,0.3227,0.0,0.3227,0.3227,0.3227,0.3227,0.3227,0.316,0.0,0.0,0.0,0.0,0.0,0.0,0.0,0.0,0.0,0.0,0.0,0.0,0.0,0.0,0.0,0.0,0.0,0.0,0.0,0.0,0.0,0.0,0.0,0.0,0.0,0.0,0.0,0.0,0.0,0.0,0.0,0.0,0.0,0.0,0.0,0.0,0.0,0.0,0.0,0.0,0.0,0.0,0.0,0.0,0.0,0.0,0.0,0.0,0.0,0.0,0.0,0.0,0.0,1.0168,1.0164,1.0106,1.0026,0.9935,0.9645,0.9486,0.9388,0.9163,0.8821,0.0,0.0,0.0,0.0,0.0,0.0,0.0,0.0,0.0,0.0,0.0,0.0,0.0,0.0,0.0,0.0,0.0,0.0,0.0,0.0,0.0,0.0,0.0,0.0,0.0,0.0,0.0,0.0,0.2528,0.2652,0.2775,0.0,0.0,0.0,0.0,0.0,0.0,0.0,0.0,0.0,0.0,0.4572,0.4572,0.4572,0.0,0.0,0.4572,0.4574,0.4572,0.4574,0.4572,0.4572,0.4572,0.0,0.0,0.0,0.0,0.0,0.0,0.0,0.0,0.0,0.0,0.0,0.0,0.0,0.0,0.0,0.0,0.0,0.0,0.0,0.0,0.0,0.0,0.0,0.0,0.0,0.0,0.0,0.0,0.0,0.0,0.0,0.0,0.0,0.0,0.0,0.0,0.0,0.0,0.0,0.0,0.0,0.0,0.0,0.0,0.0,0.0,0.0,0.0,0.0,0.0,0.0,0.0,1.0746,1.0746,1.0691,1.0609,1.0492,1.038,1.021,1.0095,0.982,0.9541,0.0,0.0,0.0,0.0,0.0,0.0,0.0,0.0,0.0,0.0,0.0,0.0,0.0,0.0,0.0,0.0,0.0,0.0,0.0,0.0,0.0,0.0,0.0,0.0,0.0,0.0,0.0,0.0,0.3515,0.3577,0.3577,0.0,0.0,0.0,0.0,0.0,0.0,0.0,0.0,0.0,0.0,0.5381,0.5381,0.5381,0.5381,0.5381,0.5515,0.5513,0.558,0.5647,0.5714,0.5714,0.0,0.0,0.0,0.0,0.0,0.0,0.0,0.0,0.0,0.0,0.0,0.0,0.0,0.0,0.0,0.0,0.0,0.0,0.0,0.0,0.0,0.0,0.0,0.0,0.0,0.0,0.0,1.0789,0.0,0.0,1.0789,0.0,0.0,0.0,0.0,0.0,0.0,0.0,0.0,0.0,0.0,0.0,0.0,0.0,0.0,0.0,0.0,0.0,0.0,0.0,0.0,0.0,0.0,1.1755,1.175,1.1576,1.1531,1.1527,1.1244,1.092,1.0692,1.0417,1.0147,0.9816,0.0,0.0,0.0,0.0,0.0,0.0,0.0,0.0,0.0,0.0,0.0,0.0,0.0,0.0,0.0,0.0,0.0,0.0,0.0,0.0,0.0,0.0,0.0,0.0,0.0,0.0,0.4315,0.4685,0.481,0.0,0.0,0.0,0.0,0.0,0.0,0.0,0.0,0.0,0.5362,0.5381,0.5381,0.5448,0.5448,0.5448,0.5448,0.5713,0.5912,0.5912,0.6183,0.6386,0.0,0.0,0.0,0.0,0.0,0.0,0.0,0.0,0.0,0.0,0.0,0.0,0.0,0.0,0.0,0.0,0.0,0.0,0.0,0.0,0.0,0.0,0.0,0.0,0.0,0.0,0.0,1.2053,1.2057,0.0,0.0,0.0,0.0,0.0,0.0,0.0,0.0,0.0,0.0,0.0,1.2179,1.2298,0.0,0.0,0.0,0.0,0.0,0.0,0.0,0.0,0.0,0.0,0.0,0.0,1.1665,1.1665,1.1603,1.1568,1.1568,1.1514,1.1404,1.1295,1.1185,1.0911,1.0417,0.0,0.0,0.0,0.0,0.0,0.0,0.0,0.0,0.0,0.0,0.0,0.0,0.0,0.0,0.0,0.0,0.0,0.0,0.0,0.0,0.0,0.0,0.0,0.0,0.0,0.4624,0.0,0.0,0.0,0.0,0.0,0.0,0.0,0.0,0.0,0.0,0.5652,0.6054,0.6103,0.652,0.679,0.6788,0.6788,0.6788,0.0,0.0,0.0,0.0,0.0,0.0,0.0,0.0,0.0,0.0,0.0,0.0,0.0,0.0,0.6656,0.6118,0.6051,0.6118,0.6382,0.0,0.0,0.0,0.0,0.0,0.0,0.0,0.0,0.0,0.0,0.0,0.0,0.0,0.0,1.3024,1.3024,1.3024,0.0,0.0,0.0,0.0,0.0,0.0,0.0,0.0,1.3086,1.3044,1.2924,1.2924,1.2924,1.2895,1.289,1.2739,0.0,0.0,0.0,0.0,0.0,0.0,0.0,0.0,1.2169,1.2169,1.2169,1.2223,1.2169,1.2223,1.2169,1.2064,1.1841,1.1514,1.1021,1.0747,1.0363,0.0,0.0,0.0,0.0,0.0,0.0,0.0,0.0,0.0,0.0,0.0,0.0,0.0,0.0,0.0,0.0,0.0,0.0,0.0,0.0,0.0,0.0,0.0,0.5611,0.0,0.0,0.0,0.0,0.0,0.0,0.0,0.0,0.0,0.5979,0.6389,0.6747,0.6844,0.7192,0.7529,0.7529,0.0,0.0,0.0,0.0,0.0,0.0,0.0,0.8123,0.8261,0.8261,0.8259,0.8261,0.8261,0.8261,0.8259,0.0,0.0,0.6989,0.6788,0.6922,0.7321,0.7386,0.7452,0.7791,0.7989,0.8056,0.0,0.0,0.0,0.0,1.459,0.0,0.0,0.0,1.3868,1.3748,0.0,1.3748,0.0,0.0,0.0,0.0,1.3725,1.3751,0.0,0.0,1.3859,1.3863,1.3858,1.3853,1.3794,1.3633,1.3623,1.3522,1.3345,1.3247,1.329,0.0,0.0,0.0,0.0,0.0,1.332,1.3266,1.3261,1.3266,1.3266,1.3266,1.3152,1.2881,1.2332,1.1951,1.1623,1.135,1.1021,1.0747,1.0472,0.0,0.0,0.0,0.0,0.0,0.0,0.0,0.0,0.0,0.0,0.0,0.0,0.0,0.0,0.0,0.0,0.0,0.0,0.0,0.0,0.6838,0.0,0.0,0.0,0.0,0.0,0.0,0.0,0.0,0.0,0.7271,0.7281,0.7375,0.7476,0.7512,0.0,0.0,0.0,0.0,0.7593,0.7593,0.7927,0.8256,0.8587,0.8917,0.9253,0.9601,0.0,0.0,0.9679,0.9679,0.9682,0.9676,0.9689,0.9273,0.7878,0.767,0.7729,0.8066,0.8202,0.8264,0.86,0.8957,0.9149,1.6579,0.0,0.0,0.0,0.0,1.5245,1.5061,1.4818,1.4759,1.458,1.4351,1.4351,0.0,0.0,0.0,0.0,0.0,0.0,1.3901,1.3896,1.3893,1.384,1.3684,1.3679,1.3835,1.4,1.3995,1.418,1.4504,1.4456,1.4109,1.3406,0.0,0.0,0.0,0.0,1.332,1.332,1.332,1.332,1.332,1.332,1.3266,1.3212,1.3044,1.2822,1.2555,1.2219,1.1896,1.1623,1.135,0.0,0.0,0.0,0.0,0.0,0.0,0.0,0.0,0.0,0.0,0.0,0.0,0.0,0.0,0.0,0.0,0.0,0.0,0.0,0.7559,0.7609,0.763,0.0,0.0,0.0,0.0,0.0,0.0,0.0,0.0,0.0,0.8801,0.8267,0.802,0.0,0.0,0.872,0.9062,0.9062,0.9062,0.9062,0.9195,0.0,0.9395,0.9458,0.9622,0.9783,0.9946,1.0014,1.0014,0.9948,1.0014,1.0014,1.0219,1.0287,0.9865,0.9382,0.9169,0.9367,0.939,0.9426,0.9644,0.9942,1.0213,1.7877,1.7173,1.6649,1.6354,1.6118,1.6005,1.5828,1.5645,1.5645,1.5531,1.5359,1.5359,1.5306,1.5215,1.5067,0.0,0.0,0.0,1.4465,1.4465,1.437,1.4248,1.4166,1.4166,1.4309,1.4498,1.4546,1.4713,1.5041,1.5041,1.4659,1.4013,0.0,1.3959,1.3959,1.3959,1.3964,1.3964,1.3964,1.3964,1.3964,1.3851,1.3743,1.3635,1.3532,1.3315,1.3098,1.2881,1.2659,1.2387,1.2223,1.1896,0.0,0.0,0.0,0.0,0.0,0.0,0.0,0.0,0.0,0.0,0.0,0.7989,0.7706,0.0,0.0,0.0,0.7718,0.7945,0.8145,0.8271,0.0,0.0,0.0,0.0,0.0,0.0,0.0,0.8786,0.9106,0.9368,0.9503,0.9045,0.8792,0.8989,0.9189,0.9458,0.9661,0.0,0.9731,0.9731,0.9771,0.9801,0.9939,1.0053,1.0183,1.0535,1.0822,1.0954,1.0954,1.0958,1.0954,1.1027,1.1165,1.13,1.1369,1.1012,1.0718,1.0668,1.0685,1.0718,1.0941,1.1162,1.1372,1.8997,1.8874,1.7701,1.7167,1.7114,1.6767,1.6655,1.6596,1.6596,1.6579,1.6509,1.6509,1.6372,1.6063,1.5818,0.0,1.5642,1.5498,1.5323,1.5367,1.509,1.5041,1.5041,1.4987,1.5041,1.5041,1.5041,1.5041,1.5089,1.5089,1.5089,1.5089,1.5095,1.5041,1.5041,1.4982,1.5041,1.4987,1.4987,1.4987,1.4982,1.4767,1.4493,1.4277,1.3959,1.3694,1.3478,1.3423,1.3261,1.3039,1.2989,1.2659,1.2169,0.0,0.0,0.0,0.0,0.0,0.0,0.0,0.0,0.0,0.0,0.0,0.0,0.0,0.0,0.0,0.84,0.0,0.8753,0.8953,0.0,0.0,0.0,0.9037,0.9037,0.9037,0.9093,0.9246,0.0,0.0,0.9652,0.978,0.9864,0.9861,0.9794,0.9728,0.9797,0.9864,0.9797,0.9882,0.9979,1.0193,1.0612,1.0731,1.103,1.1593,1.2087,1.2255,1.2255,1.2251,1.2313,1.2324,1.2375,1.2455,1.2448,1.252,1.2444,1.2175,1.1949,1.2015,1.2251,1.2401,1.2478,1.9982,1.9924,1.9339,1.8706,1.8064,1.8006,1.783,1.7578,1.7578,1.7177,1.6593,1.6593,1.6287,1.5756,1.5562,1.5498,1.5431,1.5241,1.5073,1.5067,1.501,1.5041,1.5041,1.5041,1.5148,1.5374,1.5369,1.5476,1.5678,1.5678,1.5678,1.5678,1.5678,1.5464,1.5035,1.5041,1.5041,1.5041,1.5041,1.5041,1.4982,1.4934,1.4874,1.4826,1.4713,1.4665,1.4606,1.4229,1.3954,1.3905,1.3472,1.3152,1.2989,1.2827,0.0,0.0,0.0,0.0,0.0,0.0,0.0,0.0,0.0,0.9537,0.9482,0.0,0.9482,0.0,0.9656,0.9902,1.0062,1.0212,0.0,0.0,1.0368,1.0365,1.0365,1.0365,1.0476,1.0762,1.0827,1.0952,1.1228,1.1292,1.1317,1.1317,1.0588,1.0193,1.0386,1.0651,1.0895,1.1072,1.1255,1.1582,1.1783,1.1931,1.2109,1.2245,1.2555,1.2708,1.2708,1.2708,1.2779,1.2992,1.3346,1.3633,1.3911,1.4202,1.4264,1.419,1.3454,1.2838,1.3032,1.3558,1.3986,2.0795,2.0687,2.0328,1.9866,1.9229,1.8829,1.8525,1.8338,1.8043,1.7675,1.7234,1.6946,1.6652,1.6335,1.6066,1.5892,1.5778,1.5636,1.5517,1.541,1.5405,1.541,1.541,1.541,1.5523,1.5684,1.569,1.5797,1.6051,1.6057,1.6158,1.6258,1.6258,1.6099,1.5779,1.5517,1.541,1.541,1.541,1.541,1.541,1.5256,1.5208,1.5208,1.5095,1.5041,1.4982,1.4713,1.4552,1.4552,1.4229,1.3959,1.3743,1.3581,1.3369,0.0,0.0,0.0,0.0,0.0,0.0,0.0,0.0,0.0,0.0,0.0,1.0308,1.0198,1.0507,1.0744,1.0782,1.0946,1.1031,1.1031,1.0849,1.0793,1.0793,1.0793,1.0919,1.1251,1.1296,1.1419,1.1735,1.1784,1.1784,1.1784,1.1314,1.0982,1.1185,1.138,1.1504,1.1727,1.1946,1.2212,1.2513,1.27,1.2909,1.3126,1.3338,1.3615,1.3757,1.3757,1.3829,1.4047,1.4261,1.4474,1.4692,1.4835,1.5048,1.5172,1.4885,1.4431,1.4093,1.4403,1.4763,2.1546,2.1261,2.1017,2.0723,2.0443,1.953,1.9054,1.8976,1.8447,1.8134,1.7981,1.7347,1.7063,1.7044,1.6791,1.6571,1.6377,1.6377,1.6217,1.5998,1.5992,1.5998,1.5998,1.5998,1.5992,1.5998,1.5992,1.6105,1.6377,1.6377,1.6477,1.6677,1.667,1.667,1.667,1.6205,1.5992,1.5998,1.5992,1.5998,1.5945,1.5743,1.5583,1.5535,1.5256,1.5095,1.5143,1.5095,1.5095,1.5041,1.5041,1.4821,1.4331,1.4277,1.4062,0.0,1.3423,0.0,0.0,0.0,0.0,0.0,0.0,0.0,0.0,1.1185,1.1072,1.0852,1.1126,1.1277,1.1277,1.1426,1.1454,1.1454,1.1212,1.1027,1.1031,1.1031,1.1164,1.1503,1.1542,1.1671,1.2057,1.2041,1.2107,1.2177,1.2173,1.2107,1.2045,1.2001,1.1944,1.209,1.2414,1.2858,1.309,1.3313,1.3678,1.3967,1.4256,1.4692,1.4839,1.4977,1.4977,1.5119,1.5119,1.519,1.5261,1.5332,1.5474,1.582,1.6023,1.6023,1.5394,1.5328,1.5399,2.223,2.1945,2.1881,2.1824,2.1687,2.0748,2.0069,1.9602,1.9491,1.891,1.7945,1.712,1.6766,1.6753,1.6702,1.6677,1.6624,1.663,1.6577,1.6571,1.6577,1.6571,1.6571,1.6577,1.6577,1.6571,1.6571,1.6577,1.663,1.663,1.663,1.6677,1.667,1.667,1.6677,0.0,0.0,0.0,1.6571,1.6418,1.6217,1.6164,1.6057,1.5838,1.5785,0.0,1.5731,1.5523,1.5428,1.5374,1.5148,0.0,0.0,0.0,0.0,0.0,0.0,0.0,0.0,0.0,0.0,0.0,1.3098,1.2659,1.1896,1.1623,1.1514,1.1468,1.1746,1.1967,1.1914,1.2255,1.2419,1.2419,1.2359,1.2359,1.2359,1.2298,1.2504,1.2871,1.2922,1.3067,1.3348,1.3486,1.3486,1.3416,1.3486,1.3481,1.3481,1.2879,1.2502,1.268,1.3436,1.4019,1.4177,1.4403,1.4617,1.4763,1.4835,1.491,1.5052,1.5048,1.5332,1.5829,1.5966,1.6178,1.6678,1.6885,1.6815,1.6956,1.7026,1.6956,1.6457,1.6669,1.6885,2.2958,2.2562,2.2562,2.2299,0.0,2.1346,2.0807,2.0176,1.9566,1.8931,1.8169,1.7596,1.7325,1.7318,1.7213,1.7054,1.6955,1.6955,1.6842,1.667,1.667,1.667,1.667,1.667,1.667,1.667,1.667,1.6789,1.6955,1.6955,1.7008,1.716,1.7153,1.7153,1.7153,1.716,1.7001,1.667,1.667,1.663,1.653,1.6477,1.6418,1.6311,1.6311,0.0,0.0,0.0,0.0,0.0,0.0,0.0,0.0,1.5208,0.0,1.4987,1.4767,1.4606,1.46,1.4283,1.4121,1.4126,1.391,1.3418,1.2713,1.2495,1.2441,1.245,1.2819,1.3065,1.3022,1.3262,1.3449,1.3449,1.314,1.296,1.2904,1.2779,1.2878,1.3216,1.3295,1.3444,1.3822,1.3875,1.3875,1.3875,1.3875,1.3875,1.3892,1.3643,1.3452,1.3729,1.4284,1.4759,1.4763,1.491,1.5119,1.5257,1.547,1.5687,1.5824,1.6032,1.6249,1.6678,1.6749,1.6885,1.7173,1.7314,1.7379,1.7585,1.7731,1.7872,1.7791,1.7585,1.7374,2.3641,2.3175,2.3063,2.2592,2.1819,2.1648,2.1186,2.0445,1.9394,0.0,0.0,1.8167,1.8016,1.7971,1.774,1.7536,1.7279,1.7279,1.712,1.6836,1.6836,1.6836,1.6836,1.6889,1.6842,1.6836,1.6836,1.7001,1.7285,1.7285,1.7384,1.7582,1.7589,1.7589,1.7589,1.7589,1.7371,1.6889,1.6836,1.6836,1.6789,1.6789,1.6783,1.6723,1.667,1.6577,1.6371,1.6371,1.6264,1.6051,1.5992,1.5897,1.5642,1.5589,1.5422,1.5196,1.5095,1.5095,1.5095,1.5041,1.5041,1.5041,1.4606,1.4121,1.3527,1.3369,1.332,1.332,1.3724,1.3987,1.3992,1.4152,1.4291,1.4296,1.3748,1.3449,1.3444,1.3204,1.3233,1.3586,1.3734,1.3762,1.4144,1.4207,1.4137,1.4076,1.4141,1.4094,1.4143,1.4179,1.429,1.461,1.4912,1.5119,1.519,1.5332,1.547,1.5891,1.6178,1.6461,1.6734,1.7092,1.7308,1.7379,1.7449,1.752,1.759,1.7731,1.7796,1.8142,1.8428,1.8708,1.8918,1.8358,1.7866,2.4089,2.372,2.3409,2.3017,2.2654,2.1793,2.0942,2.0155,1.9494,1.9107,1.8817,1.8482,1.822,1.8016,1.7964,1.7799,1.7529,1.7529,1.7529,1.747,1.7477,1.7477,1.7477,1.7477,1.7483,1.7477,1.7477,1.7477,1.7529,1.7529,1.7582,1.7582,1.7589,1.7589,1.7589,1.7589,1.7582,1.747,1.7477,1.7378,1.712,1.712,1.7014,1.673,1.6723,1.6683,1.6624,1.6624,1.6624,1.6571,1.6371,1.6217,1.6164,1.5951,1.5838,1.5779,1.5583,1.5428,1.5422,1.5148,1.5041,1.4982,1.4928,1.4654,1.4116,1.3586,1.332,1.3335,1.3775,1.3987,1.4013,1.4387,1.459,1.4595,1.4476,1.4411,1.4351,1.4291,1.4394,1.4868,1.4985,1.5032,1.5175,1.5202,1.5066,1.487,1.48,1.4852,1.4879,1.4697,1.4563,1.4714,1.5198,1.5593,1.5966,1.6315,1.6527,1.7026,1.7097,1.7163,1.7233,1.7374,1.759,1.7796,1.8082,1.8363,1.8638,1.9052,1.9122,1.9267,1.9337,1.9407,1.9547,1.9337,1.9262,2.451,2.4048,2.3708,2.3191,2.2527,2.1691,2.0964,2.0308,2.005,1.9695,1.9324,1.8855,1.86,1.8496,1.8122,1.7964,1.7799,1.7687,1.7589,1.7589,1.7589,1.7589,1.7589,1.7589,1.7589,1.7589,1.7589,1.7589,1.7589,1.7589,1.7589,1.7589,1.7589,1.7589,1.7589,1.7589,1.7589,1.7589,1.7589,1.7529,1.7437,1.743,1.7325,1.7206,1.7153,1.7107,1.7008,1.6955,1.6895,1.667,1.6571,1.6524,1.653,1.6418,1.6258,1.6105,1.6004,1.585,1.5737,1.5571,1.5464,1.547,1.5369,1.5154,1.4934,1.4504,1.4234,1.425,1.4661,1.4993,1.501,1.5369,1.5537,1.5429,1.5245,1.5061,1.4883,1.4709,1.4766,1.5211,1.5302,1.5416,1.5729,1.5784,1.5719,1.5518,1.5518,1.5492,1.5595,1.5615,1.5621,1.5621,1.5967,1.6296,1.6744,1.6951,1.7092,1.7308,1.752,1.7655,1.7866,1.8007,1.8352,1.8703,1.8988,1.9128,1.9337,1.9477,1.9541,1.9616,1.9761,1.9831,1.9895,2.004,2.0104,2.4893,2.4293,2.3974,2.3249,2.2206,2.155,2.1078,2.0668,2.0565,2.0256,1.9783,1.9272,1.9026,1.8869,1.8391,1.8128,1.7964,1.7799,1.7635,1.7589,1.7589,1.7589,1.7589,1.7589,1.7589,1.7589,1.7589,1.7589,1.7589,1.7589,1.7589,1.7589,1.7589,1.7589,1.7589,1.7589,1.7589,1.7589,1.7589,1.7589,1.7589,1.7589,1.7589,1.7589,1.7589,1.7477,1.7279,1.7279,1.7173,1.6948,1.6842,1.6789,1.6789,1.673,1.663,1.6424,1.6377,1.6318,1.6099,1.6099,1.6045,1.5998,1.5797,1.5642,1.5583,1.5363,1.5148,1.5087,1.5431,1.5778,1.5784,1.6177,1.6419,1.62,1.5957,1.5709,1.5467,1.518,1.5152,1.5525,1.5582,1.5773,1.598,1.6073,1.6039,1.5974,1.5974,1.5974,1.6014,1.6323,1.6501,1.6604,1.6708,1.7007,1.7379,1.7449,1.752,1.759,1.7937,1.8288,1.8568,1.8988,1.9192,1.9471,1.9616,1.968,1.968,1.9825,1.9895,1.9965,2.011,2.0249,2.0388,2.0665,2.0735,2.523,2.4645,2.4235,2.3323,2.2113,2.1538,2.1275,2.1121,2.0719,2.0351,2.0034,1.9724,1.9376,1.8928,1.8824,1.8503,1.8069,1.7964,1.7852,1.7635,1.7589,1.7589,1.7589,1.7589,1.7589,1.7589,1.7589,1.7589,1.7589,1.7589,1.7589,1.7589,1.7589,1.7589,1.7589,1.7589,1.7589,1.7589,1.7589,1.7589,1.7589,1.7589,1.7589,1.7589,1.7589,1.7582,1.7536,1.7582,1.7536,1.7483,1.7279,1.7173,1.712,1.6895,1.6677,1.6677,1.6677,1.663,1.6624,1.6624,1.6524,1.6271,1.6223,1.6111,1.5891,1.5838,1.5565,1.5277,1.5542,1.5823,1.5868,1.6235,1.6532,1.6484,1.6419,1.6419,1.6301,1.636,1.6349,1.631,1.6424,1.6523,1.6281,1.6368,1.6364,1.6164,1.6164,1.6099,1.6119,1.6328,1.6707,1.7026,1.7233,1.7479,1.7791,1.7861,1.8147,1.8638,1.8848,1.9052,1.9337,1.9477,1.9611,1.9756,1.9895,2.004,2.0179,2.0324,2.0527,2.0527,2.0596,2.0735,2.1006,2.1352,2.1352,2.5228,2.458,2.3974,2.3135,2.2105,2.1674,2.142,2.1275,2.0925,2.0565,2.0351,2.0086,1.9628,1.9123,1.8974,1.8764,1.8496,1.8181,1.7964,1.7799,1.7694,1.7589,1.7589,1.7589,1.7589,1.7589,1.7589,1.7589,1.7589,1.7589,1.7589,1.7589,1.7589,1.7589,1.7589,1.7589,1.7589,1.7589,1.7589,1.7589,1.7589,1.7589,1.7589,1.7589,1.7589,1.7589,1.7589,1.7589,1.7589,1.7582,1.7483,1.743,1.743,1.7318,1.716,1.7008,1.6789,1.667,1.667,1.667,1.6677,1.6524,1.653,1.6471,1.6418,1.6358,1.6258,1.6112,1.6215,1.6295,1.6331,1.6825,1.7009,1.6838,1.6785,1.672,1.6537,1.6537,1.6516,1.6705,1.6959,1.7083,1.7003,1.7059,1.7001,1.6877,1.6748,1.6618,1.6629,1.6949,1.7323,1.7612,1.8053,1.8389,1.8519,1.8568,1.8773,1.9198,1.9337,1.9471,1.9756,1.9901,1.997,2.0179,2.0318,2.0457,2.0463,2.0735,2.1012,2.1006,2.122,2.1421,2.1559,2.1697,2.1577,2.5137,2.4401,2.3581,2.2851,2.2241,2.1878,2.1573,2.1369,2.107,2.0771,2.047,2.0241,1.9835,1.9428,1.9123,1.8974,1.8869,1.8331,1.8069,1.7964,1.774,1.7589,1.7589,1.7589,1.7589,1.7589,1.7589,1.7589,1.7589,1.7589,1.7589,1.7589,1.7589,1.7589,1.7589,1.7589,1.7589,1.7589,1.7589,1.7589,1.7589,1.7589,1.7589,1.7589,1.7589,1.7589,1.7589,1.7589,1.7589,1.7589,1.7589,1.7589,1.7589,1.7589,1.7536,1.7331,1.7054,1.6942,1.6942,1.6942,1.6948,1.6849,1.6842,1.6789,1.673,1.667,1.667,1.6655,1.6751,1.682,1.6967,1.735,1.7531,1.7321,1.7203,1.7015,1.6832,1.6773,1.6843,1.6926,1.7213,1.749,1.7645,1.7674,1.7594,1.7594,1.7389,1.726,1.7276,1.7608,1.7937,1.8021,1.8552,1.8925,1.9029,1.9094,1.932,1.9616,1.9756,1.9825,2.0179,2.0255,2.0394,2.0659,2.0735,2.0943,2.1081,2.1283,2.1327,2.1396,2.1565,2.1782,2.175,2.1799,2.1794,2.5195,2.3967,2.3045,2.2628,2.2544,2.1928,2.1674,2.1623,2.1121,2.0771,2.0462,2.0248,1.9931,1.9628,1.9376,1.9175,1.8869,1.8534,1.822,1.8016,1.7747,1.7589,1.7589,1.7589,1.7589,1.7589,1.7589,1.7589,1.7589,1.7589,1.7589,1.7589,1.7589,1.7589,1.7589,1.7589,1.7589,1.7589,1.7589,1.7589,1.7589,1.7589,1.7589,1.7589,1.7589,1.7589,1.7589,1.7589,1.7589,1.7589,1.7589,1.7589,1.7589,1.7589,1.7582,1.7589,1.7529,1.7529,1.7529,1.7529,1.743,1.7226,1.7173,1.706,1.6836,1.6776,1.6783,1.673,1.6981,1.7205,1.7539,1.7779,1.7935,1.7908,1.7667,1.7485,1.7426,1.7426,1.7315,1.7185,1.749,1.7818,1.7983,1.8028,1.7975,1.7975,1.7969,1.7905,1.7846,1.7927,1.8106,1.8276,1.849,1.8633,1.9084,1.9352,1.9629,1.993,2.0051,2.0179,2.0457,2.0735,2.0867,2.1075,2.1144,2.1352,2.1628,2.1741,2.1702,2.1769,2.1794,2.1865,2.1906,2.1932,2.1872,2.4857,2.3568,2.2915,2.2603,2.2552,2.1928,2.1674,2.1623,2.1121,2.0771,2.0462,2.0241,1.9931,1.968,1.9428,1.9279,1.9123,1.8639,1.8377,1.822,1.7793,1.7589,1.7589,1.7589,1.7589,1.7589,1.7589,1.7589,1.7589,1.7589,1.7589,1.7589,1.7589,1.7589,1.7589,1.7589,1.7589,1.7589,1.7589,1.7589,1.7589,1.7589,1.7589,1.7589,1.7589,1.7589,1.7589,1.7589,1.7589,1.7589,1.7589,1.7589,1.7589,1.7589,1.7589,1.7589,1.7589,1.7589,1.7589,1.7589,1.7589,1.7483,1.7483,1.7424,1.7318,1.7265,1.7259,1.7318,1.7487,1.7843,1.8089,1.8115,1.8063,1.8215,1.8129,1.8012,1.7843,1.7849,1.7673,1.751,1.7775,1.8179,1.8368,1.8395,1.8366,1.8372,1.8168,1.8033,1.8033,1.8168,1.8419,1.8576,1.8847,1.9137,1.9285,1.9537,1.98,2.0128,2.0365,2.0599,2.0843,2.0945,2.1064,2.1371,2.1471,2.1527,2.1763,2.1858,2.1846,2.1908,2.1945,2.1905,2.1945,2.1878,2.183,2.4098,2.3291,2.2804,2.2603,2.2544,2.1979,2.1674,2.1623,2.1121,2.0719,2.0514,2.0241,1.9983,1.968,1.9428,1.9272,1.922,1.8691,1.8422,1.837,1.7845,1.7589,1.7589,1.7589,1.7589,1.7589,1.7589,1.7589,1.7589,1.7589,1.7589,1.7589,1.7589,1.7589,1.7589,1.7589,1.7589,1.7589,1.7589,1.7589,1.7589,1.7589,1.7589,1.7589,1.7589,1.7589,1.7589,1.7589,1.7589,1.7589,1.7589,1.7589,1.7589,1.7589,1.7589,1.7589,1.7589,1.7589,1.7589,1.7589,1.7589,1.7589,1.7589,1.7589,1.7589,1.7589,1.7589,1.7635,1.7756,1.8043,1.8362,1.8272,1.8249,1.8506,1.848,1.8357,1.8135,1.8135,1.8009,1.7903,1.8131,1.8501,1.865,1.8725,1.8734,1.8764,1.8495,1.8361,1.8425,1.8559,1.8764,1.8775,1.9094,1.9301,1.9487,1.9664,1.9921,2.0276,2.0441,2.073,2.1015,2.1133,2.1264,2.1586,2.171,2.1771,2.1775,2.1854,2.1951,2.1938,2.1904,2.1792,2.1804,2.1737,2.1603,2.3014,2.2996,2.2703,2.2594,2.2493,2.1928,2.1674,2.1573,2.113,2.0719,2.0411,2.0197,1.9931,1.968,1.9428,1.9272,1.9175,1.8632,1.8422,1.837,1.7838,1.7589,1.7589,1.7589,1.7589,1.7589,1.7589,1.7589,1.7589,1.7589,1.7589,1.7589,1.7589,1.7589,1.7589,1.7589,1.7589,1.7589,1.7589,1.7589,1.7589,1.7589,1.7589,1.7589,1.7589,1.7589,1.7589,1.7589,1.7589,1.7589,1.7589,1.7589,1.7589,1.7589,1.7589,1.7589,1.7589,1.7589,1.7589,1.7589,1.7589,1.7589,1.7589,1.7589,1.7589,1.7589,1.7589,1.7595,1.7629,1.7842,1.8364,1.8468,1.8582,1.8828,1.8706,1.8532,1.8415,1.8415,1.8399,1.8348,1.8555,1.8674,1.8763,1.8994,1.9145,1.913,1.9072,1.9072,1.9072,1.9136,1.9078,1.9142,1.9313,1.949,1.9674,1.9825,2.0092,2.0321,2.0439,2.0636,2.0954,2.1162,2.1315,2.1577,2.1723,2.1777,2.1726,2.1813,2.1819,2.1784,2.1742,2.1621,2.151,2.1443,2.1309,2.2996,2.2996,2.2745,2.2443,2.2232,2.1878,2.1623,2.1428,2.1019,2.0668,2.0241,2.0138,1.982,1.948,1.9324,1.9175,1.9026,1.8586,1.8422,1.8318,1.7845,1.7589,1.7589,1.7589,1.7589,1.7589,1.7589,1.7589,1.7589,1.7589,1.7589,1.7589,1.7589,1.7589,1.7589,1.7589,1.7589,1.7589,1.7589,1.7589,1.7589,1.7589,1.7589,1.7589,1.7589,1.7589,1.7589,1.7589,1.7589,1.7589,1.7589,1.7589,1.7589,1.7589,1.7589,1.7589,1.7589,1.7589,1.7589,1.7589,1.7589,1.7589,1.7589,1.7589,1.7589,1.7589,1.7589,1.7589,1.7595,1.7829,1.8337,1.8497,1.8695,1.9176,1.9191,1.8946,1.8765,1.8532,1.8401,1.8437,1.8611,1.8828,1.9111,1.9331,1.953,1.9699,1.9584,1.9514,1.9654,1.952,1.9584,1.9717,1.9781,1.9717,1.9908,2.008,2.0277,2.0486,2.0607,2.0689,2.0984,2.1135,2.1352,2.1496,2.1641,2.1661,2.1737,2.167,2.1623,2.1503,2.1343,2.1276,2.1249,2.1196,2.1129,2.2795,2.2636,2.2485,2.2232,2.1928,2.1674,2.1471,2.1267,2.0917,2.0506,2.0138,1.9983,1.9732,1.9376,1.9272,1.9123,1.8869,1.8534,1.837,1.822,1.7845,1.7582,1.7589,1.7589,1.7589,1.7589,1.7589,1.7589,1.7589,1.7589,1.7589,1.7589,1.7589,1.7589,1.7589,1.7589,1.7589,1.7589,1.7589,1.7589,1.7589,1.7589,1.7589,1.7589,1.7589,1.7589,1.7589,1.7589,1.7589,1.7589,1.7589,1.7589,1.7589,1.7589,1.7589,1.7589,1.7589,1.7589,1.7589,1.7589,1.7589,1.7589,1.7589,1.7589,1.7589,1.7589,1.7589,1.7589,1.7589,1.7836,1.835,1.8497,1.8764,1.9363,1.9366,1.9301,1.9062,1.8887,1.8713,1.8725,1.8859,1.9063,1.9283,1.9509,1.9795,1.9973,1.9909,1.9839,2.0043,1.9909,1.9973,2.0043,1.9979,2.0043,2.0234,2.0367,2.0431,2.0567,2.0709,2.0896,2.1071,2.1136,2.1272,2.1323,2.1387,2.1368,2.1396,2.139,2.1349,2.1176,2.1102,2.1129,2.1169,2.1149,2.1102,2.2342,2.208,2.208,2.1928,2.1674,2.1428,2.1275,2.1173,2.0719,2.0351,2.0034,1.9828,1.9583,1.9324,1.9279,1.9071,1.881,1.8482,1.822,1.7964,1.7747,1.7589,1.7589,1.7589,1.7589,1.7589,1.7589,1.7589,1.7589,1.7589,1.7589,1.7589,1.7589,1.7589,1.7589,1.7589,1.7589,1.7589,1.7589,1.7589,1.7589,1.7589,1.7589,1.7589,1.7589,1.7589,1.7589,1.7589,1.7589,1.7589,1.7589,1.7589,1.7589,1.7589,1.7589,1.7589,1.7589,1.7589,1.7589,1.7589,1.7589,1.7589,1.7589,1.7589,1.7589,1.7589,1.7589,1.7589,1.7589,1.7829,1.833,1.8497,1.8771,1.9296,1.9424,1.9366,1.9424,1.9366,1.9185,1.9043,1.9135,1.9343,1.9341,1.9636,1.9856,2.0099,2.0132,2.017,2.0234,2.0234,2.017,2.0234,2.0361,2.0425,2.0609,2.0609,2.0736,2.0775,2.0873,2.0957,2.1104,2.1162,2.1142,2.1179,2.1229,2.1176,2.1156,2.1189,2.1196,2.1136,2.1102,2.1102,2.1102,2.1102,2.1102,2.1878,2.1818,2.1827,2.1674,2.142,2.1318,2.1078,2.0719,2.0565,2.0205,1.9887,1.9724,1.9532,1.9279,1.9071,1.881,1.8541,1.8272,1.7957,1.7747,1.7641,1.7589,1.7589,1.7589,1.7589,1.7589,1.7589,1.7589,1.7589,1.7589,1.7589,1.7589,1.7589,1.7589,1.7589,1.7589,1.7589,1.7589,1.7589,1.7589,1.7589,1.7589,1.7589,1.7589,1.7589,1.7589,1.7589,1.7589,1.7589,1.7589,1.7589,1.7589,1.7589,1.7589,1.7589,1.7589,1.7589,1.7589,1.7589,1.7589,1.7589,1.7589,1.7589,1.7589,1.7589,1.7589,1.7589,1.7589,1.7595,1.7836,1.8343,1.8517,1.8798,1.9296,1.9424,1.9424,1.9424,1.9424,1.9366,1.9263,1.9336,1.9456,1.9608,1.9891,2.0119,2.0388,2.0541,2.0545,2.0609,2.0552,2.0488,2.0729,2.0856,2.0919,2.0919,2.0919,2.0989,2.0989,2.1022,2.1029,2.1106,2.1106,2.1086,2.1129,2.1162,2.1129,2.1116,2.1136,2.1109,2.1102,2.1102,2.1102,2.1102,2.1102,2.1102,2.1623,2.1522,2.1522,2.1326,2.0968,2.0976,2.0712,2.0351,2.0205,1.9998,1.9732,1.9583,1.9376,1.913,1.8974,1.8653,1.822,1.8069,1.7859,1.7641,1.7589,1.7589,1.7589,1.7589,1.7589,1.7589,1.7589,1.7589,1.7589,1.7589,1.7589,1.7589,1.7589,1.7589,1.7589,1.7589,1.7589,1.7589,1.7589,1.7589,1.7589,1.7589,1.7589,1.7589,1.7589,1.7589,1.7589,1.7589,1.7589,1.7589,1.7589,1.7589,1.7589,1.7589,1.7589,1.7589,1.7589,1.7589,1.7589,1.7589,1.7589,1.7589,1.7589,1.7589,1.7589,1.7589,1.7589,1.7589,1.7695,1.8009,1.841,1.8698,1.8998,1.9357,1.9424,1.9424,1.9424,1.9424,1.9424,1.9424,1.9444,1.9479,1.976,2.0047,2.0341,2.0586,2.076,2.086,2.0982,2.0926,2.0862,2.0982,2.1102,2.1039,2.1046,2.1046,2.1046,2.1109,2.1109,2.1102,2.1102,2.1102,2.1102,2.1102,2.1102,2.1102,2.1102,2.1102,2.1102,2.1102,2.1102,2.1102,2.1102,2.1102,2.1102,2.1428,2.1224,2.1165,2.0917,2.0514,2.0462,2.03,2.0034,1.9835,1.9739,1.9576,1.9383,1.9123,1.8876,1.8764,1.8503,1.8016,1.7964,1.7806,1.7641,1.7589,1.7589,1.7589,1.7589,1.7589,1.7589,1.7589,1.7589,1.7589,1.7589,1.7589,1.7589,1.7589,1.7589,1.7589,1.7589,1.7589,1.7589,1.7589,1.7589,1.7589,1.7589,1.7589,1.7589,1.7589,1.7589,1.7589,1.7589,1.7589,1.7589,1.7589,1.7589,1.7589,1.7589,1.7589,1.7589,1.7589,1.7589,1.7589,1.7589,1.7589,1.7589,1.7589,1.7589,1.7589,1.7589,1.7589,1.7589,1.7869,1.817,1.8557,1.9025,1.933,1.9424,1.9424,1.9424,1.9424,1.9424,1.9424,1.9424,1.9424,1.9499,1.9726,2.0034,2.0327,2.0494,2.0753,2.0999,2.1046,2.0982,2.0982,2.1039,2.1102,2.1102,2.1102,2.1102,2.1102,2.1102,2.1102,2.1102,2.1102,2.1102,2.1102,2.1102,2.1102,2.1102,2.1102,2.1102,2.1102,2.1102,2.1102,2.1102,2.1102,2.1102,2.1102,2.0719,2.0668,2.0454,2.0285,2.0189,2.0189,2.0042,1.9783,1.9732,1.9583,1.9376,1.913,1.8974,1.8817,1.8443,1.8122,1.7964,1.7799,1.7641,1.7641,1.7589,1.7589,1.7589,1.7589,1.7589,1.7589,1.7589,1.7589,1.7589,1.7589,1.7589,1.7589,1.7589,1.7589,1.7589,1.7589,1.7589,1.7589,1.7589,1.7589,1.7589,1.7589,1.7589,1.7589,1.7589,1.7589,1.7589,1.7589,1.7589,1.7589,1.7589,1.7589,1.7589,1.7589,1.7589,1.7589,1.7589,1.7589,1.7589,1.7589,1.7589,1.7589,1.7589,1.7589,1.7589,1.7589,1.7589,1.7635,1.7876,1.8283,1.8778,1.9145,1.9383,1.9424,1.9424,1.9424,1.9424,1.9424,1.9424,1.9424,1.943,1.9457,1.9544,1.9967,2.0227,2.0381,2.0688,2.1036,2.1102,2.1102,2.1102,2.1102,2.1102,2.1102,2.1102,2.1102,2.1102,2.1102,2.1102,2.1102,2.1102,2.1102,2.1102,2.1102,2.1102,2.1102,2.1102,2.1102,2.1102,2.1102,2.1102,2.1102,2.1102,2.1102,2.1102,2.03,2.03,2.013,2.0034,1.9931,1.9879,1.9783,1.9524,1.9524,1.9376,1.9123,1.8921,1.8764,1.8503,1.8128,1.7964,1.7799,1.7687,1.7589,1.7589,1.7589,1.7589,1.7589,1.7589,1.7589,1.7589,1.7589,1.7589,1.7589,1.7589,1.7589,1.7589,1.7589,1.7589,1.7589,1.7589,1.7589,1.7589,1.7589,1.7589,1.7589,1.7589,1.7589,1.7589,1.7589,1.7589,1.7589,1.7589,1.7589,1.7589,1.7589,1.7589,1.7589,1.7589,1.7589,1.7589,1.7589,1.7589,1.7589,1.7589,1.7589,1.7589,1.7589,1.7589,1.7589,1.7589,1.7675,1.7822,1.8103,1.849,1.9052,1.9239,1.9417,1.9424,1.9424,1.9424,1.9424,1.9424,1.9424,1.9424,1.9424,1.9424,1.9539,1.9913,2.0154,2.0321,2.0775,2.1102,2.1102,2.1102,2.1102,2.1102,2.1102,2.1102,2.1102,2.1102,2.1102,2.1102,2.1102,2.1102,2.1102,2.1102,2.1102,2.1102,2.1102,2.1102,2.1102,2.1102,2.1102,2.1102,2.1102,2.1102,2.1102,2.1102,2.1102,2.0034,2.0034,1.9975,1.9835,1.9628,1.9628,1.948,1.9227,1.9227,1.9078,1.8869,1.8764,1.8443,1.8076,1.7964,1.7799,1.7635,1.7635,1.7589,1.7589,1.7589,1.7589,1.7589,1.7589,1.7589,1.7589,1.7589,1.7589,1.7589,1.7589,1.7589,1.7589,1.7589,1.7589,1.7589,1.7589,1.7589,1.7589,1.7589,1.7589,1.7589,1.7589,1.7589,1.7589,1.7589,1.7589,1.7589,1.7589,1.7589,1.7589,1.7589,1.7589,1.7589,1.7589,1.7589,1.7589,1.7589,1.7589,1.7589,1.7589,1.7589,1.7589,1.7589,1.7589,1.7589,1.7609,1.7729,1.8023,1.8337,1.8764,1.9285,1.9417,1.9424,1.9424,1.9424,1.9424,1.9424,1.9424,1.9424,1.9424,1.9424,1.9424,1.9553,1.9853,2.006,2.0327,2.0788,2.1102,2.1102,2.1102,2.1102,2.1102,2.1102,2.1102,2.1102,2.1102,2.1102,2.1102,2.1102,2.1102,2.1102,2.1102,2.1102,2.1102,2.1102,2.1102,2.1102,2.1102,2.1102,2.1102,2.1102,2.1102,2.1102,2.1102,2.1102,1.9776,1.9732,1.9532,1.9383,1.9376,1.9376,1.9227,1.8974,1.8974,1.881,1.8489,1.8279,1.8128,1.7964,1.774,1.7635,1.7641,1.7589,1.7589,1.7589,1.7589,1.7589,1.7589,1.7589,1.7589,1.7589,1.7589,1.7589,1.7589,1.7589,1.7589,1.7589,1.7589,1.7589,1.7589,1.7589,1.7589,1.7589,1.7589,1.7589,1.7589,1.7589,1.7589,1.7589,1.7589,1.7589,1.7589,1.7589,1.7589,1.7589,1.7589,1.7589,1.7589,1.7589,1.7589,1.7589,1.7589,1.7589,1.7589,1.7589,1.7589,1.7589,1.7589,1.7589,1.7589,1.7629,1.7816,1.815,1.8515,1.9005,1.9377,1.9424,1.9424,1.9424,1.9424,1.9424,1.9424,1.9424,1.9424,1.9424,1.9424,1.9444,1.9566,1.9806,2.0094,2.0381,2.0775,2.1042,2.1102,2.1102,2.1102,2.1102,2.1102,2.1102,2.1102,2.1102,2.1102,2.1102,2.1102,2.1102,2.1102,2.1102,2.1102,2.1102,2.1102,2.1102,2.1102,2.1102,2.1102,2.1102,2.1102,2.1102,2.1102,2.1102,2.1102,1.948,1.948,1.9324,1.9227,1.9123,1.9078,1.8914,1.8646,1.8646,1.8489,1.8227,1.8069,1.7911,1.7799,1.7694,1.7589,1.7589,1.7589,1.7589,1.7589,1.7589,1.7589,1.7589,1.7589,1.7589,1.7589,1.7589,1.7589,1.7589,1.7589,1.7589,1.7589,1.7589,1.7589,1.7589,1.7589,1.7589,1.7589,1.7589,1.7589,1.7589,1.7589,1.7589,1.7589,1.7589,1.7589,1.7589,1.7589,1.7589,1.7589,1.7589,1.7589,1.7589,1.7589,1.7589,1.7589,1.7589,1.7589,1.7589,1.7589,1.7589,1.7589,1.7589,1.7589,1.7635,1.7749,1.8023,1.8457,1.8831,1.9205,1.9417,1.9424,1.9424,1.9424,1.9424,1.9424,1.9424,1.9424,1.9424,1.9424,1.9424,1.9457,1.9531,1.9753,2.0114,2.0461,2.0795,2.0969,2.1096,2.1102,2.1102,2.1102,2.1102,2.1102,2.1102,2.1102,2.1102,2.1102,2.1102,2.1102,2.1102,2.1102,2.1102,2.1102,2.1102,2.1102,2.1102,2.1102,2.1102,2.1102,2.1102,2.1102,2.1102,2.1102,2.1102,1.9116,1.9116,1.9116,1.9018,1.8817,1.8817,1.86,1.8377,1.8325,1.8167,1.7964,1.7911,1.7799,1.7635,1.7589,1.7589,1.7589,1.7589,1.7589,1.7589,1.7589,1.7589,1.7589,1.7589,1.7589,1.7589,1.7589,1.7589,1.7589,1.7589,1.7589,1.7589,1.7589,1.7589,1.7589,1.7589,1.7589,1.7589,1.7589,1.7589,1.7589,1.7589,1.7589,1.7589,1.7589,1.7589,1.7589,1.7589,1.7589,1.7589,1.7589,1.7589,1.7589,1.7589,1.7589,1.7589,1.7589,1.7589,1.7589,1.7589,1.7589,1.7589,1.7589,1.7615,1.7802,1.8063,1.8368,1.8865,1.9172,1.9397,1.9424,1.9424,1.9424,1.9424,1.9424,1.9424,1.9424,1.9424,1.9424,1.9424,1.9424,1.9464,1.9466,1.9806,2.0187,2.0346,2.0735,2.0995,2.1102,2.1102,2.1102,2.1102,2.1102,2.1102,2.1102,2.1102,2.1102,2.1102,2.1102,2.1102,2.1102,2.1102,2.1102,2.1102,2.1102,2.1102,2.1102,2.1102,2.1102,2.1102,2.1102,2.1102,2.1102,2.1102,2.1102,1.8527,1.8527,1.8527,1.8482,1.8482,1.8482,1.8325,1.8069,1.8069,1.7905,1.7694,1.7635,1.7641,1.7589,1.7589,1.7589,1.7589,1.7589,1.7589,1.7589,1.7589,1.7589,1.7589,1.7589,1.7589,1.7589,1.7589,1.7589,1.7589,1.7589,1.7589,1.7589,1.7589,1.7589,1.7589,1.7589,1.7589,1.7589,1.7589,1.7589,1.7589,1.7589,1.7589,1.7589,1.7589,1.7589,1.7589,1.7589,1.7589,1.7589,1.7589,1.7589,1.7589,1.7589,1.7589,1.7589,1.7589,1.7589,1.7589,1.7589,1.7589,1.7595,1.7609,1.7736,1.8056,1.8444,1.8778,1.8885,1.9199,1.941,1.9424,1.9424,1.9424,1.9424,1.9424,1.9424,1.9424,1.9424,1.9424,1.9424,1.9424,1.9399,1.9446,1.9867,2.0193,2.0393,2.0668,2.0935,2.1102,2.1102,2.1102,2.1102,2.1102,2.1102,2.1102,2.1102,2.1102,2.1102,2.1102,2.1102,2.1102,2.1102,2.1102,2.1102,2.1102,2.1102,2.1102,2.1102,2.1102,2.1102,2.1102,2.1102,2.1102,2.1102,2.1102,1.8108,1.8422,1.8422,1.8325,1.8167,1.8167,1.801,1.7799,1.7799,1.7694,1.7641,1.7589,1.7589,1.7589,1.7589,1.7589,1.7589,1.7589,1.7589,1.7589,1.7589,1.7589,1.7589,1.7589,1.7589,1.7589,1.7589,1.7589,1.7589,1.7589,1.7589,1.7589,1.7589,1.7589,1.7589,1.7589,1.7589,1.7589,1.7589,1.7589,1.7589,1.7589,1.7589,1.7589,1.7589,1.7589,1.7589,1.7589,1.7589,1.7589,1.7589,1.7589,1.7589,1.7589,1.7589,1.7589,1.7589,1.7589,1.7589,1.7589,1.7595,1.7655,1.7762,1.805,1.845,1.8751,1.9025,1.9172,1.9285,1.9417,1.9424,1.9424,1.9424,1.9424,1.9424,1.9424,1.9424,1.9424,1.9424,1.9424,1.9437,1.9439,1.9553,1.9927,2.0254,2.0421,2.0681,2.0989,2.1102,2.1102,2.1102,2.1102,2.1102,2.1102,2.1102,2.1102,2.1102,2.1102,2.1102,2.1102,2.1102,2.1102,2.1102,2.1102,2.1102,2.1102,2.1102,2.1102,2.1102,2.1102,2.1102,2.1102,2.1102,2.1102,2.1102,1.7845,1.8206,1.8213,1.8062,1.7911,1.7911,1.7799,1.7635,1.7641,1.7589,1.7589,1.7589,1.7589,1.7589,1.7589,1.7589,1.7589,1.7589,1.7589,1.7589,1.7589,1.7589,1.7589,1.7589,1.7589,1.7589,1.7589,1.7589,1.7589,1.7589,1.7589,1.7589,1.7589,1.7589,1.7589,1.7589,1.7589,1.7589,1.7589,1.7589,1.7589,1.7589,1.7589,1.7589,1.7589,1.7589,1.7589,1.7589,1.7589,1.7589,1.7589,1.7589,1.7589,1.7589,1.7589,1.7589,1.7589,1.7589,1.7589,1.7595,1.7622,1.7782,1.8056,1.845,1.8771,1.8965,1.9085,1.9319,1.9403,1.9424,1.9424,1.9424,1.9424,1.9424,1.9424,1.9424,1.9424,1.9424,1.9424,1.9424,1.947,1.9539,1.9713,2.002,2.0261,2.0401,2.0681,2.1036,2.1102,2.1102,2.1102,2.1102,2.1102,2.1102,2.1102,2.1102,2.1102,2.1102,2.1102,2.1102,2.1102,2.1102,2.1102,2.1102,2.1102,2.1102,2.1102,2.1102,2.1102,2.1102,2.1102,2.1102,2.1102,2.1102,2.1102,1.7635,1.7635,1.7687,1.7694,1.7635,1.7641,1.7641,1.7589,1.7589,1.7589,1.7589,1.7589,1.7589,1.7589,1.7589,1.7589,1.7589,1.7589,1.7589,1.7589,1.7589,1.7589,1.7589,1.7589,1.7589,1.7589,1.7589,1.7589,1.7589,1.7589,1.7589,1.7589,1.7589,1.7589,1.7589,1.7589,1.7589,1.7589,1.7589,1.7589,1.7589,1.7589,1.7589,1.7589,1.7589,1.7589,1.7589,1.7589,1.7589,1.7589,1.7589,1.7589,1.7589,1.7589,1.7589,1.7589,1.7589,1.7609,1.7642,1.7682,1.7776,1.8076,1.8395,1.8791,1.8985,1.9212,1.9339,1.9417,1.9424,1.9424,1.9424,1.9424,1.9424,1.9424,1.9424,1.9424,1.9424,1.9424,1.9424,1.9424,1.9524,1.9633,1.9867,2.018,2.0374,2.0521,2.0762,2.1102,2.1102,2.1102,2.1102,2.1102,2.1102,2.1102,2.1102,2.1102,2.1102,2.1102,2.1102,2.1102,2.1102,2.1102,2.1102,2.1102,2.1102,2.1102,2.1102,2.1102,2.1102,2.1102,2.1102,2.1102,2.1102,2.1102,2.1102,1.7589,1.7589,1.7589,1.7589,1.7589,1.7589,1.7589,1.7589,1.7589,1.7589,1.7589,1.7589,1.7589,1.7589,1.7589,1.7589,1.7589,1.7589,1.7589,1.7589,1.7589,1.7589,1.7589,1.7589,1.7589,1.7589,1.7589,1.7589,1.7589,1.7589,1.7589,1.7589,1.7589,1.7589,1.7589,1.7589,1.7589,1.7589,1.7589,1.7589,1.7589,1.7589,1.7589,1.7589,1.7589,1.7589,1.7589,1.7589,1.7589,1.7589,1.7589,1.7589,1.7589,1.7589,1.7595,1.7609,1.7615,1.7702,1.7856,1.7903,1.8076,1.8455,1.8748,1.8998,1.9138,1.9312,1.9417,1.9424,1.9424,1.9424,1.9424,1.9424,1.9424,1.9424,1.9424,1.9424,1.9424,1.9424,1.9477,1.9504,1.9613,1.98,2.006,2.0334,2.0501,2.0723,2.0909,2.1102,2.1102,2.1102,2.1102,2.1102,2.1102,2.1102,2.1102,2.1102,2.1102,2.1102,2.1102,2.1102,2.1102,2.1102,2.1102,2.1102,2.1102,2.1102,2.1102,2.1102,2.1102,2.1102,2.1102,2.1102,2.1102,2.1102,2.1102,1.7589,1.7589,1.7589,1.7589,1.7589,1.7589,1.7589,1.7589,1.7589,1.7589,1.7589,1.7589,1.7589,1.7589,1.7589,1.7589,1.7589,1.7589,1.7589,1.7589,1.7589,1.7589,1.7589,1.7589,1.7589,1.7589,1.7589,1.7589,1.7589,1.7589,1.7589,1.7589,1.7589,1.7589,1.7589,1.7589,1.7589,1.7589,1.7589,1.7589,1.7589,1.7589,1.7589,1.7589,1.7589,1.7589,1.7589,1.7589,1.7589,1.7589,1.7589,1.7589,1.7589,1.7595,1.7635,1.7682,1.7749,1.7869,1.8096,1.8262,1.8484,1.8741,1.9011,1.9172,1.9305,1.9424,1.9424,1.9424,1.9424,1.9424,1.9424,1.9424,1.9424,1.9424,1.9424,1.9424,1.9424,1.943,1.9459,1.9533,1.9726,1.9913,2.0327,2.0595,2.0728,2.0848,2.0962,2.1102,2.1102,2.1102,2.1102,2.1102,2.1102,2.1102,2.1102,2.1102,2.1102,2.1102,2.1102,2.1102,2.1102,2.1102,2.1102,2.1102,2.1102,2.1102,2.1102,2.1102,2.1102,2.1102,2.1102,2.1102,2.1102,2.1102,2.1102,1.7589,1.7589,1.7589,1.7589,1.7589,1.7589,1.7589,1.7589,1.7589,1.7589,1.7589,1.7589,1.7589,1.7589,1.7589,1.7589,1.7589,1.7589,1.7589,1.7589,1.7589,1.7589,1.7589,1.7589,1.7589,1.7589,1.7589,1.7589,1.7589,1.7589,1.7589,1.7589,1.7589,1.7589,1.7589,1.7589,1.7589,1.7589,1.7589,1.7589,1.7589,1.7589,1.7589,1.7589,1.7589,1.7589,1.7589,1.7589,1.7589,1.7589,1.7589,1.7609,1.7655,1.7655,1.7769,1.8009,1.8029,1.8183,1.845,1.8731,1.8905,1.8985,1.9172,1.9305,1.941,1.9424,1.9424,1.9424,1.9424,1.9424,1.9424,1.9424,1.9424,1.9424,1.9424,1.9424,1.9424,1.9531,1.9573,1.9706,1.9826,2.002,2.0501,2.0869,2.0982,2.1062,2.1089,2.1102,2.1102,2.1102,2.1102,2.1102,2.1102,2.1102,2.1102,2.1102,2.1102,2.1102,2.1102,2.1102,2.1102,2.1102,2.1102,2.1102,2.1102,2.1102,2.1102,2.1102,2.1102,2.1102,2.1102,2.1102,2.1102,2.1102,2.1102,1.7589,1.7589,1.7589,1.7589,1.7589,1.7589,1.7589,1.7589,1.7589,1.7589,1.7589,1.7589,1.7589,1.7589,1.7589,1.7589,1.7589,1.7589,1.7589,1.7589,1.7589,1.7589,1.7589,1.7589,1.7589,1.7589,1.7589,1.7589,1.7589,1.7589,1.7589,1.7589,1.7615,1.7589,1.7589,1.7589,1.7589,1.7589,1.7589,1.7589,1.7595,1.7609,1.7622,1.7629,1.7635,1.7642,1.7655,1.7669,1.7662,1.7662,1.7669,1.7729,1.7849,1.7889,1.8029,1.827,1.835,1.8477,1.8758,1.9025,1.9205,1.9252,1.9336,1.9424,1.9424,1.9424,1.9424,1.9424,1.9424,1.9424,1.9424,1.9424,1.9424,1.9424,1.9424,1.9424,1.9464,1.9586,1.974,1.99,2.004,2.0401,2.0842,2.0955,2.1062,2.1102,2.1102,2.1102,2.1102,2.1102,2.1102,2.1102,2.1102,2.1102,2.1102,2.1102,2.1102,2.1102,2.1102,2.1102,2.1102,2.1102,2.1102,2.1102,2.1102,2.1102,2.1102,2.1102,2.1102,2.1102,2.1102,2.1102,2.1102,2.1102,2.1102,1.7589,1.7589,1.7589,1.7589,1.7589,1.7589,1.7589,1.7589,1.7589,1.7589,1.7589,1.7589,1.7589,1.7589,1.7589,1.7589,1.7589,1.7589,1.7589,1.7589,1.7589,1.7589,1.7589,1.7589,1.7589,1.7589,1.7589,1.7589,1.7589,1.7589,1.7589,1.7609,1.7689,1.7769,1.7742,1.7689,1.7655,1.7716,1.7789,1.7849,1.7903,1.7943,1.7929,1.7936,1.799,1.7929,1.7909,1.7896,1.7883,1.7876,1.7916,1.7983,1.8143,1.8237,1.835,1.8544,1.8771,1.8878,1.9098,1.9205,1.9325,1.9403,1.9424,1.9424,1.9424,1.9424,1.9424,1.9424,1.9424,1.9424,1.9424,1.9424,1.9437,1.9437,1.9531,1.9531,1.9593,1.9786,2.0027,2.018,2.0341,2.0742,2.1036,2.1056,2.1096,2.1102,2.1102,2.1102,2.1102,2.1102,2.1102,2.1102,2.1102,2.1102,2.1102,2.1102,2.1102,2.1102,2.1102,2.1102,2.1102,2.1102,2.1102,2.1102,2.1102,2.1102,2.1102,2.1102,2.1102,2.1102,2.1102,2.1102,2.1102,2.1102,2.1102,1.7589,1.7589,1.7589,1.7589,1.7589,1.7589,1.7589,1.7589,1.7589,1.7589,1.7589,1.7589,1.7589,1.7589,1.7589,1.7589,1.7589,1.7589,1.7589,1.7589,1.7589,1.7589,1.7589,1.7589,1.7589,1.7589,1.7589,1.7589,1.7589,1.7675,1.7669,1.7709,1.7936,1.8016,1.7983,1.7909,1.7889,1.8003,1.8063,1.8156,1.8257,1.8364,1.833,1.8323,1.833,1.8337,1.8337,1.835,1.8377,1.8397,1.843,1.8464,1.8497,1.8504,1.8684,1.8911,1.9185,1.9316,1.9363,1.941,1.9417,1.9424,1.9424,1.9424,1.9424,1.9424,1.9424,1.9424,1.9424,1.9424,1.9424,1.9437,1.945,1.9558,1.9646,1.9733,1.9846,2.006,2.0327,2.0501,2.0621,2.0869,2.1042,2.1102,2.1102,2.1102,2.1102,2.1102,2.1102,2.1102,2.1102,2.1102,2.1102,2.1102,2.1102,2.1102,2.1102,2.1102,2.1102,2.1102,2.1102,2.1102,2.1102,2.1102,2.1102,2.1102,2.1102,2.1102,2.1102,2.1102,2.1102,2.1102,2.1102,2.1102,2.1102,1.7589,1.7589,1.7589,1.7589,1.7589,1.7589,1.7589,1.7589,1.7589,1.7589,1.7589,1.7589,1.7589,1.7589,1.7589,1.7589,1.7589,1.7589,1.7589,1.7589,1.7589,1.7589,1.7589,1.7589,1.7589,1.7589,1.7589,1.7589,1.7642,1.7749,1.7896,1.7916,1.8217,1.8323,1.833,1.8277,1.8323,1.8343,1.8384,1.8457,1.8517,1.8571,1.8564,1.8571,1.8577,1.8577,1.8577,1.8564,1.8557,1.8537,1.851,1.8557,1.8798,1.8811,1.8925,1.9199,1.9325,1.9417,1.9424,1.9424,1.9424,1.9424,1.9424,1.9424,1.9424,1.9424,1.9424,1.9424,1.9424,1.9424,1.945,1.947,1.9492,1.9639,1.9806,1.9987,2.012,2.0361,2.0615,2.0695,2.0822,2.0929,2.1089,2.1102,2.1102,2.1102,2.1102,2.1102,2.1102,2.1102,2.1102,2.1102,2.1102,2.1102,2.1102,2.1102,2.1102,2.1102,2.1102,2.1102,2.1102,2.1102,2.1102,2.1102,2.1102,2.1102,2.1102,2.1102,2.1102,2.1102,2.1102,2.1102,2.1102,2.1102,2.1102,1.7589,1.7589,1.7589,1.7589,1.7589,1.7589,1.7589,1.7589,1.7589,1.7589,1.7589,1.7589,1.7589,1.7589,1.7589,1.7589,1.7589,1.7589,1.7589,1.7589,1.7589,1.7589,1.7589,1.7589,1.7589,1.7589,1.7589,1.7589,1.7689,1.7889,1.8009,1.825,1.8517,1.8631,1.8684,1.8758,1.8838,1.8804,1.8771,1.8758,1.8771,1.8811,1.8831,1.8804,1.8811,1.8811,1.8811,1.8861,1.8874,1.8831,1.8838,1.8905,1.9092,1.9112,1.9132,1.9345,1.9417,1.9424,1.9424,1.9424,1.9424,1.9424,1.9424,1.9424,1.9424,1.9424,1.9424,1.9424,1.9424,1.943,1.9419,1.9472,1.9626,1.978,2.0,2.0227,2.0448,2.0681,2.0795,2.0869,2.0955,2.1042,2.1102,2.1102,2.1102,2.1102,2.1102,2.1102,2.1102,2.1102,2.1102,2.1102,2.1102,2.1102,2.1102,2.1102,2.1102,2.1102,2.1102,2.1102,2.1102,2.1102,2.1102,2.1102,2.1102,2.1102,2.1102,2.1102,2.1102,2.1102,2.1102,2.1102,2.1102,2.1102,2.1102,1.7589,1.7589,1.7589,1.7589,1.7589,1.7589,1.7589,1.7589,1.7589,1.7589,1.7589,1.7589,1.7589,1.7589,1.7589,1.7589,1.7589,1.7589,1.7589,1.7589,1.7589,1.7589,1.7589,1.7589,1.7589,1.7589,1.7649,1.7756,1.7796,1.8056,1.839,1.8537,1.8811,1.8958,1.8991,1.9132,1.9192,1.9165,1.9078,1.9038,1.9276,1.9383,1.9424,1.9377,1.937,1.937,1.9377,1.9397,1.9424,1.9417,1.9403,1.9377,1.9319,1.9325,1.9352,1.9417,1.9424,1.9424,1.9424,1.9424,1.9424,1.9424,1.9424,1.9424,1.9424,1.9424,1.9424,1.9464,1.9477,1.9558,1.9553,1.974,1.9913,2.0087,2.0301,2.0508,2.0715,2.0882,2.0955,2.1002,2.1022,2.1102,2.1102,2.1102,2.1102,2.1102,2.1102,2.1102,2.1102,2.1102,2.1102,2.1102,2.1102,2.1102,2.1102,2.1102,2.1102,2.1102,2.1102,2.1102,2.1102,2.1102,2.1102,2.1102,2.1102,2.1102,2.1102,2.1102,2.1102,2.1102,2.1102,2.1102,2.1102,2.1102,2.1102,1.7589,1.7589,1.7589,1.7589,1.7589,1.7589,1.7589,1.7589,1.7589,1.7589,1.7589,1.7589,1.7589,1.7589,1.7589,1.7589,1.7589,1.7589,1.7589,1.7589,1.7589,1.7589,1.7589,1.7589,1.7595,1.7669,1.7796,1.8043,1.8243,1.851,1.8718,1.8838,1.9085,1.9212,1.9219,1.9417,1.9417,1.9417,1.9305,1.9239,1.9397,1.9424,1.9424,1.9424,1.9424,1.9424,1.9424,1.9424,1.9424,1.9424,1.9424,1.9417,1.9424,1.9424,1.9424,1.9424,1.9424,1.9424,1.9424,1.9424,1.9424,1.9424,1.9424,1.9424,1.9424,1.9424,1.9457,1.9517,1.9526,1.9613,1.9766,1.9987,2.0201,2.0394,2.0588,2.0782,2.0969,2.1029,2.1096,2.1102,2.1102,2.1102,2.1102,2.1102,2.1102,2.1102,2.1102,2.1102,2.1102,2.1102,2.1102,2.1102,2.1102,2.1102,2.1102,2.1102,2.1102,2.1102,2.1102,2.1102,2.1102,2.1102,2.1102,2.1102,2.1102,2.1102,2.1102,2.1102,2.1102,2.1102,2.1102,2.1102,2.1102,2.1102,2.1102,1.7589,1.7589,1.7589,1.7589,1.7589,1.7589,1.7589,1.7589,1.7589,1.7589,1.7589,1.7589,1.7589,1.7589,1.7589,1.7589,1.7589,1.7589,1.7589,1.7589,1.7589,1.7589,1.7589,1.7609,1.7729,1.7816,1.8103,1.8384,1.8677,1.8798,1.8931,1.9098,1.9363,1.9424,1.9424,1.9424,1.9424,1.9424,1.9424,1.9424,1.9424,1.9424,1.9424,1.9424,1.9424,1.9424,1.9424,1.9424,1.9424,1.9424,1.9424,1.9424,1.9424,1.9424,1.9424,1.9424,1.9424,1.9424,1.9424,1.9424,1.9424,1.9424,1.943,1.9437,1.9593,1.9606,1.9606,1.9653,1.9666,1.9746,2.002,2.0254,2.0408,2.0581,2.0775,2.0969,2.1042,2.1069,2.1102,2.1102,2.1102,2.1102,2.1102,2.1102,2.1102,2.1102,2.1102,2.1102,2.1102,2.1102,2.1102,2.1102,2.1102,2.1102,2.1102,2.1102,2.1102,2.1102,2.1102,2.1102,2.1102,2.1102,2.1102,2.1102,2.1102,2.1102,2.1102,2.1102,2.1102,2.1102,2.1102,2.1102,2.1102,2.1102,2.1102,1.7589,1.7589,1.7589,1.7589,1.7589,1.7589,1.7589,1.7589,1.7589,1.7589,1.7589,1.7589,1.7589,1.7589,1.7589,1.7589,1.7589,1.7589,1.7589,1.7589,1.7589,1.7589,1.7615,1.7655,1.7903,1.817,1.8444,1.8711,1.8978,1.9052,1.9152,1.939,1.9424,1.9424,1.9424,1.9424,1.9424,1.9424,1.9424,1.9424,1.9424,1.9424,1.9424,1.9424,1.9424,1.9424,1.9424,1.9424,1.9424,1.9424,1.9424,1.9424,1.9424,1.9424,1.9424,1.9424,1.9424,1.9424,1.9424,1.9424,1.9424,1.943,1.9386,1.9526,1.9753,1.9846,1.984,1.992,1.9933,2.0027,2.0301,2.0514,2.0655,2.0762,2.0949,2.1089,2.1096,2.1102,2.1102,2.1102,2.1102,2.1102,2.1102,2.1102,2.1102,2.1102,2.1102,2.1102,2.1102,2.1102,2.1102,2.1102,2.1102,2.1102,2.1102,2.1102,2.1102,2.1102,2.1102,2.1102,2.1102,2.1102,2.1102,2.1102,2.1102,2.1102,2.1102,2.1102,2.1102,2.1102,2.1102,2.1102,2.1102,2.1102,2.1102,1.7589,1.7589,1.7589,1.7589,1.7589,1.7589,1.7589,1.7589,1.7589,1.7589,1.7589,1.7589,1.7589,1.7589,1.7589,1.7589,1.7589,1.7589,1.7589,1.7589,1.7589,1.7589,1.7709,1.7949,1.829,1.8564,1.8791,1.8998,1.9158,1.9239,1.935,1.9424,1.9424,1.9424,1.9424,1.9424,1.9424,1.9424,1.9424,1.9424,1.9424,1.9424,1.9424,1.9424,1.9424,1.9424,1.9424,1.9424,1.9424,1.9424,1.9424,1.9424,1.9424,1.9424,1.9424,1.9424,1.9424,1.9424,1.9424,1.9477,1.9497,1.9517,1.9539,1.9753,1.9947,2.0094,2.0194,2.0441,2.0461,2.0468,2.0668,2.0835,2.0975,2.0975,2.1089,2.1096,2.1102,2.1102,2.1102,2.1102,2.1102,2.1102,2.1102,2.1102,2.1102,2.1102,2.1102,2.1102,2.1102,2.1102,2.1102,2.1102,2.1102,2.1102,2.1102,2.1102,2.1102,2.1102,2.1102,2.1102,2.1102,2.1102,2.1102,2.1102,2.1102,2.1102,2.1102,2.1102,2.1102,2.1102,2.1102,2.1102,2.1102,2.1102,2.1102]}]]